GFSSE_prec_cthk_003.txt.gz
RH
48 54 60 61 64 64 65 67 66 63 61 61 60 59 55 53 53 54 55 54 56 52 54 54 49 51 55 54 56 57 60 61 66 75 75 71 65 60 59 63 64 66 64
39 49 57 58 58 60 65 70 66 60 55 56 51 49 47 45 49 50 51 51 54 53 48 48 50 51 53 53 52 55 57 59 61 70 77 73 66 54 53 55 62 65 67
43 45 48 49 52 55 60 64 57 50 48 47 48 46 44 45 48 46 46 49 52 47 45 43 44 48 51 50 49 51 51 58 61 74 78 78 74 63 49 42 47 58 66
39 39 37 35 39 44 43 40 38 41 43 43 40 35 34 34 34 33 39 41 42 42 37 37 36 36 40 46 49 52 50 51 61 75 77 76 78 69 58 43 39 44 59
33 30 29 31 34 34 33 33 32 34 37 36 30 28 23 22 22 24 28 30 31 27 24 23 24 30 37 41 45 48 54 55 60 70 71 75 81 80 72 61 42 40 40
25 25 27 30 30 31 32 33 35 34 33 29 25 22 23 23 22 24 25 22 19 20 22 25 27 29 32 37 40 41 44 51 58 70 66 77 87 78 75 67 56 48 48
24 24 25 27 29 31 32 32 30 27 24 24 24 24 26 25 22 24 25 26 26 26 25 26 27 28 30 31 34 41 47 48 52 62 65 80 85 87 81 82 65 58 56
23 25 25 28 31 29 28 27 24 23 24 21 20 21 18 13 16 18 21 20 17 15 16 21 26 26 27 28 28 31 35 46 51 51 60 60 66 84 89 93 82 67 63
28 28 26 31 31 30 27 24 19 16 14 14 18 19 13 12 14 15 15 11 8 8 10 12 14 15 13 16 21 24 26 29 33 37 44 55 62 63 84 96 87 74 70
31 30 34 30 25 18 14 11 9 9 11 13 16 16 14 14 17 19 16 13 12 12 12 12 12 12 12 12 14 18 21 27 33 37 41 46 53 58 75 92 90 85 78
30 37 32 26 20 15 13 11 8 8 11 14 18 20 21 21 21 22 20 19 19 18 16 15 15 13 13 15 16 18 21 25 28 33 35 36 42 51 56 76 91 88 83
34 32 27 26 20 18 18 18 17 15 18 22 25 27 28 28 26 25 24 24 24 24 23 21 20 18 16 16 16 18 21 24 27 30 31 32 32 32 39 50 72 80 83
31 30 30 31 24 24 26 27 28 26 25 26 28 30 31 31 30 31 30 31 31 31 32 31 30 28 24 23 22 21 20 20 20 19 18 22 30 33 32 36 56 64 70
29 33 35 33 27 27 27 28 30 30 32 34 36 38 39 39 39 40 40 39 36 35 36 36 37 38 36 33 28 25 24 23 23 23 24 23 23 26 32 41 46 58 65
33 34 37 32 28 30 32 33 35 36 37 37 38 39 41 42 42 43 42 42 41 41 41 41 42 42 41 40 37 34 31 29 29 28 28 27 26 25 27 33 40 47 60
34 37 42 36 34 35 36 38 40 40 40 39 40 40 39 40 40 40 40 39 40 40 41 41 42 43 42 42 41 41 40 39 37 36 35 33 32 31 30 30 35 41 52
38 41 43 36 36 37 40 42 42 42 41 41 40 39 39 39 39 38 38 39 39 41 42 43 43 44 43 43 44 45 46 46 45 44 42 40 39 37 35 34 33 33 41
41 44 45 41 42 42 44 46 48 47 45 44 43 41 40 40 40 41 41 42 43 43 44 44 45 45 46 46 47 48 48 49 49 49 48 47 45 44 41 39 37 36 35
41 45 45 45 46 47 49 50 52 51 50 50 50 47 48 47 46 44 46 46 46 45 46 46 46 46 46 46 47 49 49 50 49 50 51 50 50 49 48 46 43 42 41
41 45 46 46 49 52 52 54 57 54 52 51 50 50 49 48 48 47 43 42 45 46 46 46 47 48 48 47 47 48 49 51 51 51 51 51 51 51 50 49 49 47 44
41 45 48 51 53 54 57 58 57 56 54 52 49 50 51 49 48 48 45 43 42 42 45 47 48 50 49 52 53 53 50 49 50 51 51 52 53 51 51 52 50 50 50
47 51 53 55 57 60 61 61 57 54 53 53 54 53 51 51 49 46 43 43 43 43 45 48 50 51 51 52 52 53 52 53 55 52 50 50 50 50 49 49 48 48 47
53 56 60 60 60 60 61 60 58 57 57 58 57 55 53 52 49 47 45 45 45 44 44 47 51 52 54 55 56 54 53 50 53 55 56 53 50 49 49 45 45 46 45
57 60 63 64 63 62 63 64 63 61 57 57 55 53 50 50 47 45 39 35 34 34 34 37 42 44 52 59 59 61 56 58 55 50 56 62 57 54 51 49 45 44 42
59 61 62 65 68 69 69 69 66 65 63 59 55 50 48 42 36 33 32 30 29 27 26 26 27 30 36 45 55 60 62 59 61 57 49 59 61 57 59 58 55 50 45
63 66 69 71 72 72 70 67 66 64 63 60 57 51 45 41 38 37 35 33 29 27 27 29 30 32 33 37 43 48 62 61 59 59 62 54 56 54 60 61 57 56 51

GFSSE_prec_cthk_006.txt.gz
RH
49 54 58 61 61 59 61 60 58 58 58 55 50 50 51 47 50 51 49 49 51 55 55 57 52 51 52 50 54 58 62 68 66 69 71 71 70 70 64 63 66 68 72
51 57 59 60 60 60 59 59 58 59 55 49 50 50 48 46 49 48 50 49 49 50 51 49 48 47 51 54 56 57 57 60 63 64 62 72 71 67 63 56 64 73 74
50 58 57 55 53 56 58 57 51 43 45 47 48 48 46 42 42 44 44 42 40 42 43 44 40 38 44 47 50 54 53 53 56 62 69 81 84 78 68 56 54 63 68
43 47 49 42 40 42 40 40 41 41 42 41 40 38 34 29 28 30 31 30 32 34 35 33 28 25 27 34 41 45 52 53 52 53 65 78 82 80 74 60 55 52 61
33 33 31 30 31 32 33 33 36 36 35 33 30 27 24 25 25 25 25 28 27 22 19 19 22 25 28 32 39 41 47 50 52 53 62 74 79 78 78 80 66 57 50
27 30 24 24 27 27 28 28 28 30 31 28 25 24 25 25 25 24 23 22 23 22 22 23 27 30 33 32 33 38 40 43 47 56 69 72 74 80 82 85 83 69 57
25 23 25 27 28 30 30 29 28 27 24 23 21 19 20 21 16 17 18 19 19 20 20 20 23 27 29 31 33 34 37 43 47 56 62 67 77 78 83 86 88 77 68
22 23 27 27 25 24 24 24 22 19 19 16 16 18 19 14 14 17 18 16 11 9 10 11 15 18 18 20 26 29 28 31 41 53 56 59 65 73 72 89 93 86 79
26 25 27 25 22 21 19 15 11 12 13 14 17 19 15 13 15 17 17 15 11 11 12 13 14 14 12 11 10 11 15 21 32 36 40 50 49 56 60 70 81 89 86
30 33 30 26 18 14 12 9 8 9 11 13 17 19 18 18 20 22 22 19 18 17 15 14 14 14 14 13 13 15 17 20 29 34 38 39 38 40 47 59 59 74 90
34 33 29 21 16 16 16 14 11 11 14 17 20 23 25 28 26 27 26 24 24 24 24 24 23 19 16 14 14 16 19 28 28 32 36 33 35 37 39 48 54 67 80
34 33 25 22 19 20 22 24 25 24 28 27 28 27 30 30 31 31 30 29 29 31 30 30 30 29 29 30 26 20 22 21 25 28 32 27 32 35 35 35 37 43 61
36 31 29 29 24 26 29 33 35 34 34 36 34 36 39 38 42 43 44 44 43 40 42 40 39 41 37 36 38 31 27 23 25 26 29 19 20 23 31 35 36 36 51
37 33 33 34 28 29 33 37 40 42 43 44 47 43 47 47 48 48 48 47 47 47 45 47 47 42 41 40 39 38 35 33 32 30 29 23 23 23 24 27 33 40 44
37 38 39 40 31 33 35 42 43 44 46 44 47 48 45 45 45 44 43 43 43 44 45 46 46 45 42 42 42 40 40 39 37 38 36 31 30 30 29 28 28 33 41
43 48 46 45 36 36 40 41 45 45 47 47 47 45 40 41 44 43 43 43 43 46 45 45 47 45 45 43 44 42 42 44 44 42 42 41 37 35 34 33 32 31 34
49 49 49 46 40 41 43 46 47 51 50 51 49 44 43 43 45 42 45 45 45 45 44 46 45 44 43 45 45 46 45 46 47 45 45 45 44 42 40 39 38 36 34
47 47 50 45 43 44 47 50 53 55 55 57 53 49 47 47 45 44 48 46 45 44 45 45 45 44 44 43 42 44 45 46 46 47 48 48 49 49 47 45 43 42 40
44 45 49 45 47 48 50 54 55 57 59 58 56 53 51 49 48 47 45 45 45 44 42 42 43 43 43 43 44 44 43 42 44 46 47 47 48 48 50 48 48 47 46
40 46 53 48 48 51 56 56 58 60 58 58 56 53 52 52 49 48 48 46 47 48 46 46 44 44 46 44 44 43 44 46 46 45 45 47 48 48 48 49 49 52 49
41 48 55 53 52 57 60 61 64 62 61 61 61 58 56 54 52 52 51 50 47 47 46 43 44 44 43 47 47 45 44 46 47 47 49 49 48 49 51 51 49 49 50
46 51 56 56 59 63 66 66 66 67 65 64 64 64 63 62 60 53 48 44 43 41 39 39 39 39 41 45 48 50 48 49 50 47 48 47 51 53 53 53 48 47 47
51 57 60 64 66 66 67 68 68 68 68 67 66 63 63 60 54 49 43 38 34 34 35 34 35 35 39 40 46 50 49 50 56 55 52 51 51 50 52 53 51 49 48
58 62 65 66 66 65 66 66 67 67 67 65 65 66 64 56 51 44 38 36 34 35 38 38 39 40 42 38 44 44 49 47 54 59 60 57 55 56 56 53 56 53 52
64 63 63 63 64 64 65 67 69 69 67 70 71 65 57 51 43 42 41 39 36 35 36 33 32 37 37 38 43 43 41 55 51 59 60 69 65 60 56 53 55 61 59
62 64 64 66 68 69 71 71 72 73 77 72 65 58 50 47 51 50 44 39 37 35 34 32 32 31 32 36 41 45 46 46 53 55 58 65 73 72 61 58 59 63 66

GFSSE_prec_cthk_009.txt.gz
RH
52 53 57 59 55 54 53 53 54 51 49 52 50 52 51 51 49 50 51 49 51 51 50 51 49 50 49 46 44 48 54 57 57 66 70 73 71 71 71 71 70 72 69
53 52 55 58 54 54 54 55 53 55 52 48 47 47 50 49 50 50 48 47 44 45 45 45 45 44 44 42 44 48 55 60 54 57 63 64 75 76 73 72 67 79 79
54 51 52 51 50 49 55 56 51 47 41 41 43 44 43 41 38 36 35 36 39 40 38 39 39 41 37 30 28 36 43 55 54 52 57 64 70 95 79 75 74 67 70
53 56 47 44 44 49 50 44 38 38 39 40 37 34 30 27 26 26 26 28 30 33 34 26 23 21 21 23 27 33 40 47 53 54 54 58 68 64 77 75 73 70 68
46 44 36 35 33 29 29 29 32 33 32 32 29 25 24 23 23 23 23 20 20 22 22 20 20 23 26 29 30 32 38 44 48 52 55 59 81 84 69 78 81 74 67
37 28 23 22 22 24 26 28 28 29 30 27 24 21 18 20 19 18 16 18 19 19 20 21 23 26 27 28 29 34 37 42 48 50 54 59 61 78 68 78 81 83 75
28 23 20 22 25 27 27 27 26 25 23 19 18 17 18 18 16 14 16 18 16 13 13 12 12 15 20 22 24 28 32 37 44 52 58 46 80 50 71 76 79 77 80
26 26 25 25 24 21 20 22 20 17 16 16 15 17 19 16 14 15 17 17 13 10 10 10 12 13 14 12 12 16 23 28 30 41 50 58 66 50 71 78 77 80 79
26 33 30 25 18 16 14 11 9 11 12 13 16 20 21 17 17 20 22 20 18 16 16 15 13 12 13 13 12 13 14 15 19 41 41 47 46 53 51 58 74 69 78
32 36 34 29 24 23 14 7 6 8 11 14 19 21 22 23 25 24 26 24 23 23 23 23 22 22 20 15 14 14 14 19 27 37 39 42 42 39 41 45 50 57 67
36 35 35 28 24 23 25 18 18 17 19 22 25 26 29 42 40 42 36 30 28 28 29 28 28 28 28 30 30 24 18 27 28 36 40 32 31 33 36 40 43 48 55
37 36 33 28 22 23 27 31 34 34 40 39 40 44 53 49 48 44 44 42 41 41 39 42 40 38 41 45 44 40 40 38 27 34 37 29 23 21 28 34 36 36 36
43 40 37 27 26 29 34 39 46 48 46 48 50 51 52 51 57 56 56 54 51 47 49 48 50 50 47 44 43 42 44 40 41 41 39 30 23 21 22 22 27 34 34
51 47 39 33 28 30 40 48 49 53 49 50 50 51 51 51 52 51 50 48 48 50 49 49 49 49 45 43 42 41 42 42 43 43 42 35 28 26 25 24 25 28 31
53 53 53 46 34 39 41 49 49 51 54 50 54 51 48 46 48 49 49 48 47 48 51 48 47 47 45 44 44 44 44 43 43 43 45 42 39 35 32 30 29 29 30
52 57 56 59 49 45 45 48 53 53 55 57 56 52 49 50 49 48 48 50 48 46 45 45 45 43 41 40 40 41 43 44 45 47 46 44 42 40 38 37 36 34 33
56 61 66 62 54 46 47 52 55 55 54 57 58 55 51 49 50 47 49 51 50 48 46 46 45 45 45 42 40 40 39 39 39 41 43 45 45 45 43 41 40 39 38
58 61 64 63 54 48 52 54 58 60 59 62 62 57 55 51 51 50 49 48 48 45 47 47 45 48 48 47 44 41 38 38 38 37 37 37 42 44 43 45 44 43 42
55 58 63 63 52 53 55 59 62 63 63 65 62 62 60 56 57 55 54 53 52 51 49 48 46 45 46 45 45 44 41 41 41 41 39 38 37 37 42 41 41 42 42
51 52 62 66 55 56 60 61 64 66 67 69 68 65 63 61 59 56 57 56 54 51 51 49 47 47 45 45 43 43 42 40 39 40 42 41 41 41 40 41 39 39 41
47 54 63 63 55 58 63 66 69 69 71 72 70 67 66 64 60 58 58 55 52 48 44 38 36 34 35 37 41 41 40 39 42 43 41 42 43 43 42 42 46 45 42
52 55 57 58 61 63 66 72 70 69 71 72 72 70 69 66 67 64 59 54 50 43 39 39 37 37 37 40 42 43 47 46 46 49 51 47 40 42 44 44 48 48 46
51 56 60 65 67 68 71 70 71 71 71 72 72 71 71 72 67 63 58 51 45 44 43 44 44 44 41 39 43 46 51 50 51 48 62 68 68 59 47 46 48 47 44
60 63 66 69 69 68 69 70 71 74 74 76 77 76 74 75 65 57 52 46 48 46 43 42 41 38 37 34 36 41 43 45 57 57 50 67 72 68 65 60 61 54 47
63 65 68 67 66 67 66 70 74 76 79 88 86 76 73 68 59 54 49 46 46 44 41 41 41 42 42 42 44 45 44 41 51 58 53 54 76 77 76 73 81 62 58
65 64 66 67 68 68 73 76 78 78 75 71 64 63 61 55 47 46 45 48 48 52 51 47 48 48 45 44 44 44 45 45 46 48 48 47 58 76 84 88 86 82 73

GFSSE_prec_cthk_012.txt.gz
RH
53 48 49 51 52 50 48 47 44 43 46 45 44 46 47 47 48 48 47 47 47 46 45 46 47 44 41 44 40 42 46 48 52 51 51 53 61 66 60 62 66 73 72
46 48 53 52 50 47 44 46 48 47 46 43 43 44 45 45 43 38 36 36 37 39 37 38 35 37 36 34 30 27 30 35 39 47 45 51 57 64 70 68 67 72 67
44 47 50 48 47 46 47 49 47 42 38 39 41 39 36 31 26 24 25 25 26 30 31 33 28 24 21 18 16 17 20 27 32 40 46 50 57 63 68 67 68 69 63
44 44 45 44 45 44 47 44 36 32 34 33 30 26 23 20 20 20 21 20 20 18 19 19 19 17 16 18 19 20 21 25 29 36 46 52 62 60 84 65 61 68 72
43 43 39 42 42 38 30 27 29 29 28 27 26 23 19 17 19 19 18 15 15 17 17 16 16 17 19 20 21 23 24 23 30 35 41 55 70 80 74 78 68 67 70
35 32 28 24 21 20 20 22 24 25 24 23 21 18 16 17 18 15 14 15 16 13 12 13 12 11 13 16 18 20 22 26 28 33 43 64 74 70 85 91 74 70 74
19 18 18 18 18 20 21 22 22 21 19 17 15 16 18 19 16 13 15 16 14 11 10 9 9 10 11 11 10 10 15 22 25 30 48 70 71 77 85 92 74 71 74
19 19 19 20 20 18 16 16 15 13 14 14 14 16 18 17 14 15 19 20 19 18 17 16 15 13 10 10 11 10 12 13 16 29 40 48 43 63 73 85 69 76 71
24 21 21 21 18 13 11 8 7 8 11 11 14 17 18 18 19 19 22 23 22 22 22 22 21 21 21 19 15 11 11 12 14 21 35 30 35 37 41 51 53 56 63
27 30 31 26 17 18 15 8 7 9 11 13 17 20 26 31 33 33 32 30 29 28 27 28 28 29 28 28 30 28 21 19 21 23 33 37 30 28 31 34 34 38 45
32 32 32 25 23 23 23 23 23 22 27 27 32 31 42 43 46 46 44 45 44 41 40 39 40 39 40 40 37 35 34 38 33 31 39 39 30 28 24 25 27 30 36
35 35 30 28 22 23 32 32 35 35 35 39 41 43 51 45 48 47 47 45 45 41 42 41 40 42 44 41 39 40 42 41 38 36 37 36 34 30 21 19 22 26 31
40 42 43 26 24 35 35 42 45 48 43 45 46 42 43 42 47 46 46 46 43 44 44 42 43 44 44 39 36 36 37 38 39 43 43 42 38 33 25 24 24 24 25
51 48 43 31 26 28 41 45 45 47 46 51 49 50 48 47 46 43 45 43 46 45 44 44 42 42 42 41 37 36 36 37 37 39 41 41 40 39 35 31 28 27 26
57 48 48 42 31 34 35 43 42 48 53 49 52 50 45 47 45 45 45 44 44 45 44 42 40 40 39 38 36 35 34 34 35 36 38 39 41 40 38 37 37 35 31
51 50 49 47 41 38 41 43 47 50 50 51 52 52 50 48 46 47 45 43 44 44 43 40 40 41 40 40 38 36 33 31 30 31 34 36 35 35 36 37 37 37 37
49 52 59 79 47 50 43 45 50 52 52 55 57 57 55 52 50 50 48 47 47 45 43 43 42 42 42 41 41 40 39 36 33 32 30 31 31 30 31 32 34 35 37
52 55 92 68 50 51 49 51 53 54 55 59 63 62 59 57 53 52 51 51 49 47 45 43 42 42 43 40 39 40 40 42 40 37 35 33 34 33 31 31 31 31 33
51 62 59 61 55 59 55 54 56 57 61 65 67 66 65 64 59 58 56 54 53 51 49 47 43 41 41 38 35 33 36 41 43 41 38 36 34 35 37 34 33 32 31
53 53 60 67 64 78 66 60 63 64 66 72 72 70 66 66 63 60 59 58 61 57 53 49 42 37 33 32 32 33 32 32 32 31 36 36 38 38 38 38 38 35 33
54 55 54 64 74 73 64 64 67 68 76 75 74 71 69 68 66 68 66 64 61 55 51 45 39 35 33 33 33 31 31 31 33 37 39 43 44 43 43 41 39 40 37
50 51 54 58 60 64 69 69 71 74 72 71 72 72 74 69 76 80 77 66 65 56 49 41 39 36 33 34 36 34 31 27 27 31 35 42 49 55 50 56 56 49 47
51 54 57 62 67 70 72 72 73 69 68 67 72 81 77 77 84 78 67 59 51 47 42 36 38 40 39 37 40 43 39 35 36 35 33 36 53 64 75 85 84 70 54
55 60 64 65 65 69 70 69 68 66 69 75 77 74 66 61 58 58 56 49 45 43 41 41 45 47 45 43 45 47 47 48 46 40 35 36 36 53 69 78 81 90 76
60 63 65 68 67 64 64 64 67 70 69 67 62 58 57 56 57 54 51 49 48 47 47 54 56 50 53 53 53 51 50 48 49 50 41 37 36 42 47 67 85 85 97
66 68 70 63 62 63 64 64 63 62 59 58 59 60 61 62 59 59 57 52 49 51 57 59 57 58 54 54 54 52 53 52 53 52 51 36 39 33 36 42 68 74 98

GFSSE_prec_cthk_015.txt.gz
RH
65 54 48 45 47 47 45 40 40 40 41 41 40 39 37 36 35 34 31 31 29 30 31 32 33 33 34 36 35 35 34 36 45 49 57 66 65 68 75 81 80 75 74
59 56 48 45 44 41 39 38 41 41 38 34 36 36 33 30 27 22 19 18 19 19 22 25 27 27 25 24 23 21 20 20 24 33 50 57 60 73 78 81 84 82 73
50 48 47 43 41 42 40 41 40 36 31 31 30 27 23 19 16 15 16 17 16 15 15 15 16 17 15 13 14 16 19 22 25 33 47 53 60 69 80 78 78 77 80
45 45 43 43 43 44 43 40 33 28 27 25 23 20 18 16 16 17 16 14 11 12 12 12 12 12 13 14 16 19 22 25 27 34 45 50 52 65 84 80 80 75 74
42 42 46 45 44 40 32 25 23 23 23 22 20 18 15 13 14 13 10 11 11 10 9 9 9 8 9 11 13 15 20 24 29 34 40 39 46 62 81 88 84 76 84
38 40 38 34 27 20 18 19 21 21 20 19 17 13 12 14 14 10 12 13 12 11 11 10 8 8 8 9 9 9 10 18 25 31 34 37 39 50 67 66 69 77 78
24 21 19 17 17 18 19 19 17 17 15 13 12 12 13 15 11 13 16 18 18 17 17 17 16 15 15 12 10 9 10 11 15 27 31 43 54 49 44 55 66 70 83
16 17 17 18 18 16 14 12 11 9 9 9 10 13 15 15 16 18 20 21 21 20 20 20 20 20 20 20 20 19 15 13 17 21 19 25 29 26 26 40 60 58 65
18 18 18 18 16 11 7 6 5 7 7 9 12 14 21 25 27 29 29 29 29 29 29 29 29 29 28 28 29 29 29 29 28 27 22 24 24 22 25 33 37 46 56
21 23 23 20 19 14 10 8 8 10 14 20 23 28 32 34 35 39 41 40 39 36 35 34 32 33 34 35 35 36 35 38 40 37 35 34 33 31 25 24 24 31 36
26 28 26 20 16 18 18 22 21 23 24 27 32 37 38 39 38 40 41 38 36 35 35 34 33 33 33 34 33 32 35 40 45 48 45 44 41 37 31 29 23 24 26
31 30 28 22 18 21 26 30 30 33 34 36 37 39 41 43 44 43 42 41 40 40 39 37 35 34 34 33 33 32 31 33 36 44 43 44 45 45 40 32 24 25 27
30 33 29 23 24 29 29 34 37 41 39 40 46 45 43 46 46 45 43 40 39 39 40 39 37 34 34 34 32 31 31 30 31 35 39 41 43 43 42 40 31 28 28
41 45 44 35 21 29 34 38 39 43 45 47 46 45 43 46 47 46 46 44 43 42 40 39 38 36 35 34 33 32 30 29 29 30 32 35 37 37 37 39 38 36 34
47 50 46 44 37 30 40 46 44 43 45 44 45 46 45 46 48 46 44 44 44 43 42 40 39 37 36 34 34 34 34 32 31 30 29 28 30 32 33 34 34 36 37
49 53 54 60 63 49 41 42 41 41 43 44 46 48 48 50 51 52 50 48 48 46 46 43 41 38 37 35 34 36 35 35 35 34 33 31 30 29 29 29 31 32 33
55 56 61 78 73 77 62 49 48 50 48 48 50 51 54 58 58 58 56 52 50 49 47 46 44 42 41 39 37 35 34 33 33 34 37 38 34 31 30 29 28 28 29
46 62 74 79 58 74 79 73 60 57 54 53 57 60 59 59 61 62 60 55 54 55 54 51 50 45 44 43 39 35 32 30 30 34 35 40 39 37 35 33 30 28 27
56 53 59 60 60 68 73 77 70 59 60 62 64 66 68 66 63 64 62 59 62 63 62 58 54 51 44 40 34 29 25 25 26 23 23 32 34 38 37 36 35 34 32
52 54 55 56 63 68 70 67 63 64 66 68 67 68 65 63 63 66 70 66 65 66 67 60 50 43 36 31 29 27 24 23 24 25 25 27 37 38 35 34 38 37 37
73 65 63 64 63 65 66 63 69 71 73 70 73 71 67 66 66 69 69 64 56 53 47 47 42 38 33 30 29 28 27 26 25 24 24 26 30 35 42 45 42 47 41
65 69 71 62 60 60 64 67 72 75 74 71 69 65 67 70 70 71 63 56 50 48 45 43 41 38 38 40 40 38 35 31 31 30 29 29 33 33 36 42 50 71 63
57 58 60 59 60 62 67 71 72 70 64 60 62 68 72 73 68 58 54 54 53 50 48 48 47 47 47 48 52 51 47 45 43 35 32 33 32 33 34 43 55 58 58
50 52 54 57 61 65 68 65 61 58 61 64 66 66 64 60 59 59 58 58 54 53 47 43 44 47 49 50 50 55 61 59 56 48 44 41 40 39 40 38 43 53 67
51 54 57 61 64 64 58 53 54 55 56 56 55 57 60 61 63 60 56 51 45 47 49 48 46 45 47 50 54 56 53 55 57 53 43 37 32 31 34 37 40 43 50
53 58 59 57 56 58 58 56 55 54 53 54 56 56 56 58 56 53 49 47 46 45 43 43 43 40 43 48 52 59 57 51 51 55 47 34 37 31 33 33 35 39 41

GFSSE_prec_cthk_018.txt.gz
RH
75 64 58 55 52 46 43 40 38 38 39 37 35 32 30 27 25 23 21 20 19 18 20 22 25 27 27 25 25 27 27 26 25 29 35 41 43 51 60 72 80 85 92
71 60 52 50 44 40 39 37 39 38 35 30 28 26 22 19 17 15 14 14 15 15 14 14 15 16 16 16 15 16 18 20 23 25 29 36 38 44 51 63 68 77 80
64 55 47 44 40 41 40 38 35 33 28 23 21 19 16 15 14 14 15 13 10 9 11 11 12 12 13 13 14 15 18 20 24 29 33 32 35 42 52 58 64 68 76
55 48 46 41 40 42 40 35 31 26 20 20 18 17 15 12 10 10 7 8 8 8 8 8 8 8 10 12 13 14 19 22 27 32 33 32 36 43 51 58 66 66 69
52 47 46 43 41 41 33 25 19 17 18 18 17 14 11 10 10 7 9 10 10 10 11 11 10 9 9 8 9 9 9 19 23 29 34 33 38 43 48 54 63 62 67
44 45 45 43 34 27 18 17 18 18 17 16 12 10 9 10 8 9 12 15 16 17 17 17 17 15 15 15 13 11 10 10 17 23 30 36 43 50 49 41 52 61 72
38 40 34 28 18 16 18 18 16 15 12 9 8 10 11 10 11 14 16 17 18 20 22 22 24 24 24 23 23 22 20 18 17 20 25 31 38 42 31 32 47 69 70
23 20 18 17 17 16 14 11 10 7 7 7 9 11 12 16 19 20 22 24 26 28 29 30 31 31 32 32 33 33 29 29 31 29 21 20 21 24 31 39 43 52 63
17 17 18 17 15 13 7 5 5 6 8 11 14 19 23 25 27 28 31 30 30 29 30 31 31 32 33 34 34 35 36 39 38 37 36 35 35 29 30 28 33 42 47
18 19 21 21 17 12 8 8 9 13 17 21 25 28 31 32 32 32 33 33 32 33 32 32 32 33 33 33 33 32 34 38 39 42 43 44 45 46 48 39 33 24 28
23 25 24 19 19 19 18 19 22 24 26 28 32 34 35 38 39 36 36 36 36 36 35 36 35 35 35 34 32 32 32 35 37 36 40 40 43 48 44 41 35 23 29
24 26 26 18 19 21 25 27 29 32 36 37 39 37 37 40 40 40 40 38 36 37 37 37 35 36 36 35 34 33 32 32 30 32 35 37 39 41 42 44 43 38 27
33 38 36 28 20 21 27 34 36 38 39 40 40 41 40 40 41 41 41 38 37 36 37 37 37 37 37 39 39 37 36 35 34 31 29 32 34 36 39 39 38 38 35
42 45 44 37 32 31 29 35 38 39 41 42 42 42 39 41 42 42 44 45 44 41 40 39 39 38 37 36 38 36 35 36 36 34 32 31 29 28 30 32 34 36 35
42 46 49 47 42 44 35 44 46 43 47 48 48 44 41 43 45 47 50 50 49 47 43 41 41 39 36 36 36 36 35 35 36 37 36 33 32 31 29 27 26 28 31
40 48 50 56 57 57 53 54 58 59 57 54 52 52 49 48 50 52 53 51 51 49 47 45 44 42 41 39 36 37 38 36 36 37 39 37 37 37 34 31 28 27 26
41 46 44 55 63 61 62 62 64 62 63 58 54 52 56 56 60 60 58 54 53 52 52 50 50 50 49 46 43 41 40 37 36 34 33 34 36 37 37 36 32 30 28
47 53 57 65 65 67 62 67 64 61 63 59 57 62 61 63 63 63 57 57 56 56 59 59 55 48 48 50 43 41 33 29 27 26 24 24 27 31 36 37 36 38 35
52 60 73 83 74 74 71 63 61 63 62 64 68 70 71 72 66 62 63 64 60 63 61 56 51 44 39 36 33 31 29 27 26 25 25 25 26 27 31 35 37 37 37
57 67 75 75 79 83 79 64 63 62 73 77 77 74 72 69 69 70 71 70 68 64 56 46 41 38 35 33 29 28 28 28 27 27 28 29 27 30 31 33 34 34 38
71 77 76 81 76 70 72 68 69 75 79 80 78 77 72 73 72 69 72 68 58 50 46 44 42 40 40 39 35 33 31 32 34 34 32 32 33 35 35 37 36 37 35
79 75 68 65 69 70 67 74 78 79 79 80 78 74 71 69 71 68 61 56 54 51 51 49 47 44 40 39 39 37 35 31 32 37 39 40 40 39 39 41 41 41 43
61 62 60 60 61 67 71 75 77 77 77 73 68 67 68 64 61 58 55 55 54 52 49 42 38 38 40 41 43 46 46 44 43 38 36 39 40 42 45 44 42 42 44
50 50 52 56 60 62 63 65 67 62 57 55 56 54 54 54 53 52 53 53 49 40 34 35 37 40 43 42 37 39 45 50 49 43 40 37 38 38 37 41 42 40 40
48 49 49 52 55 54 54 51 50 51 52 50 52 52 53 55 56 57 54 43 38 38 35 35 36 38 36 36 39 37 40 44 44 47 41 37 34 31 32 35 34 37 41
49 50 49 51 53 55 55 54 53 51 51 53 55 62 64 70 59 58 53 42 37 34 31 33 33 35 36 37 39 43 43 44 44 50 46 34 41 35 32 36 36 35 38

GFSSE_prec_cthk_021.txt.gz
RH
71 72 64 58 54 52 46 41 39 35 34 33 31 27 23 19 17 16 14 14 13 14 13 13 14 14 15 16 16 16 15 15 19 19 20 20 23 31 36 43 52 60 64
72 65 59 57 51 45 39 36 35 34 32 28 22 19 17 16 14 13 13 13 12 9 9 10 12 13 13 14 14 14 14 16 17 20 23 22 25 31 37 39 45 55 60
67 57 54 54 45 40 38 38 34 30 26 19 18 18 16 15 11 10 8 7 7 7 7 8 8 8 10 11 12 15 17 19 21 23 25 28 29 33 38 45 48 53 58
55 56 51 46 38 40 40 37 32 24 18 18 18 17 14 10 8 5 7 8 9 10 10 11 11 11 10 10 9 9 10 15 22 24 25 30 32 38 41 46 49 52 60
62 57 54 43 38 40 40 32 22 18 18 18 16 13 9 8 6 8 11 13 14 15 16 16 17 17 16 15 15 14 12 12 17 25 27 30 32 37 41 42 42 56 57
50 50 45 41 39 37 30 19 19 19 17 14 10 8 10 8 9 13 17 18 18 19 21 22 23 24 24 24 24 22 20 20 21 22 29 33 34 43 47 42 39 55 66
46 45 44 41 31 23 17 18 17 14 9 7 8 9 10 14 18 21 24 25 25 25 26 26 28 28 28 30 31 31 28 28 30 31 32 33 31 32 25 25 31 42 58
43 41 33 25 17 17 17 14 10 6 5 7 11 16 22 24 25 27 28 28 28 29 28 28 28 29 30 30 30 31 32 34 37 37 37 34 30 26 24 27 34 36 41
27 20 17 17 16 15 10 6 6 6 9 14 21 25 26 29 32 33 33 32 31 31 30 30 29 28 29 30 30 30 31 36 37 39 42 44 46 44 40 40 42 46 46
17 18 17 17 14 11 6 6 8 13 18 23 25 29 33 36 36 34 34 35 34 36 34 34 33 32 32 31 31 30 30 32 36 39 41 42 47 56 57 54 52 45 31
19 20 19 17 15 12 12 15 19 22 24 27 32 33 35 38 38 39 40 40 40 38 37 34 35 35 35 35 35 33 32 30 29 30 32 37 40 45 53 56 53 47 38
20 21 19 18 17 18 19 23 25 29 31 35 37 33 34 36 38 37 41 41 42 44 43 41 40 40 40 39 39 40 38 33 32 31 30 30 34 39 42 44 46 47 44
30 32 30 27 26 22 25 26 31 32 33 34 35 35 36 37 37 37 39 42 45 47 46 45 44 43 42 40 41 41 41 39 35 31 30 31 31 30 31 35 39 41 41
39 40 40 34 33 29 30 33 37 40 43 45 47 45 42 42 39 39 43 45 46 48 49 49 47 46 44 42 40 40 40 39 38 36 34 32 29 32 32 31 30 32 36
37 41 43 43 42 42 44 46 48 54 55 56 52 50 46 42 41 43 48 50 51 51 50 50 50 50 49 49 48 46 44 43 43 42 40 37 34 31 32 33 33 30 29
36 43 48 47 50 53 54 55 55 59 58 53 53 50 49 47 50 52 57 56 54 50 50 52 52 52 53 52 50 45 47 50 48 48 44 39 36 35 31 32 31 33 31
41 48 53 56 60 65 68 67 62 61 55 50 51 52 54 61 64 63 64 58 54 51 54 55 55 54 52 49 44 37 37 40 37 34 31 29 29 28 29 32 30 30 31
50 55 70 75 82 82 81 81 77 73 61 57 56 60 67 67 69 66 60 58 56 55 58 56 53 49 42 36 32 31 29 28 28 27 27 27 27 27 26 27 29 32 29
55 62 80 82 87 91 89 84 70 66 63 64 68 70 72 75 72 66 65 63 60 58 52 49 43 37 37 35 33 33 33 32 31 30 29 27 26 26 26 25 26 29 32
66 77 88 92 92 91 86 75 71 71 70 74 78 78 77 74 73 71 69 62 55 51 49 42 38 37 36 34 32 31 31 32 32 34 37 37 36 33 32 32 31 31 31
73 84 88 89 78 75 75 75 74 74 79 81 80 81 78 79 75 68 61 58 55 50 46 44 41 39 35 30 27 28 28 31 32 32 33 35 36 38 39 37 38 39 37
82 77 67 68 74 76 73 70 76 81 79 77 77 77 75 70 65 60 58 56 51 48 48 45 40 33 28 28 29 27 28 25 27 29 30 34 36 36 37 37 38 38 39
67 63 62 59 60 64 67 68 68 68 69 69 67 63 58 56 56 57 57 57 59 55 45 38 31 28 26 26 28 29 31 31 29 25 23 26 29 30 32 34 33 34 36
58 55 54 57 59 61 60 64 65 66 64 64 63 61 60 63 62 60 56 65 62 52 42 29 25 26 28 28 28 28 30 34 34 30 29 24 23 24 25 27 30 31 32
55 56 54 55 55 57 61 60 61 62 64 62 61 60 57 61 61 60 56 51 49 47 34 28 30 33 31 30 31 30 28 33 36 45 36 33 35 29 30 28 32 33 33
60 59 57 58 59 61 63 64 63 59 58 58 58 58 58 54 49 43 39 37 36 33 30 32 33 35 35 36 42 44 45 45 45 52 54 44 46 42 42 44 46 44 41

GFSSE_prec_cthk_024.txt.gz
RH
72 70 64 60 59 57 54 45 40 38 37 36 31 24 20 19 17 16 14 14 13 11 10 11 12 12 12 13 13 12 12 12 13 13 13 16 18 22 29 35 40 51 54
74 67 61 59 54 49 42 39 40 38 35 27 20 20 19 17 14 9 9 8 7 7 7 8 8 8 10 11 12 13 15 16 16 18 17 20 23 26 30 35 40 47 52
74 70 64 56 54 44 39 39 38 33 25 20 20 19 17 13 7 6 7 7 8 10 11 12 12 12 11 10 9 9 11 14 18 21 23 24 27 31 34 37 42 48 53
75 63 60 58 49 41 38 38 33 26 20 19 19 15 12 8 6 8 10 12 14 14 15 15 16 16 16 16 15 15 15 17 18 22 26 29 32 35 38 42 46 51 57
65 62 58 54 45 40 37 34 23 19 19 18 13 11 9 7 9 12 15 17 18 19 20 21 21 22 22 23 22 21 21 21 22 25 30 31 32 34 39 39 40 50 60
57 56 55 52 42 38 32 20 18 18 15 11 9 9 8 12 15 18 20 22 23 23 24 24 25 25 26 26 27 26 25 25 26 28 30 34 37 41 41 38 32 37 52
54 55 52 46 37 27 19 17 16 13 7 7 8 12 17 20 21 22 24 24 26 27 27 29 30 30 29 28 27 28 30 30 30 31 32 37 34 35 33 25 25 33 42
53 48 47 37 26 17 16 15 10 6 6 10 18 22 23 26 26 27 27 29 29 28 28 28 28 28 27 26 26 27 29 34 36 36 35 32 34 33 31 33 32 34 42
53 45 31 21 17 17 14 8 6 7 13 20 24 27 31 31 31 31 31 32 33 34 33 32 31 30 30 29 29 28 28 29 33 36 39 38 38 38 39 39 39 43 47
30 20 19 17 15 12 7 6 8 14 20 24 28 31 33 32 32 33 33 35 37 38 38 38 36 35 34 33 33 33 31 30 28 28 30 32 36 38 43 45 46 46 46
17 17 17 15 12 9 8 10 17 21 26 31 34 35 35 33 34 35 34 37 37 39 40 43 41 39 39 37 38 38 37 34 33 32 30 29 30 34 37 40 43 44 47
17 19 18 17 15 14 16 19 23 26 32 36 36 37 37 38 37 37 37 39 43 44 44 45 44 43 41 42 42 41 39 37 35 33 32 31 30 30 29 30 33 35 39
22 27 23 21 19 20 22 25 30 34 40 40 43 47 48 48 46 44 44 44 46 47 47 47 48 47 45 45 45 45 43 41 39 37 35 31 29 27 28 28 28 29 32
32 38 37 35 31 27 31 36 39 45 50 50 56 54 50 49 49 49 47 47 50 52 51 48 46 47 48 48 49 49 48 46 42 42 42 40 37 31 28 28 28 27 27
45 45 45 45 45 44 43 50 52 55 60 61 58 51 47 48 51 50 51 54 57 55 50 48 48 50 51 50 49 48 46 44 40 39 42 46 43 41 35 29 28 28 28
48 52 54 54 50 51 57 59 64 65 68 70 61 55 53 53 57 59 58 61 62 59 56 53 52 52 52 48 45 39 36 33 30 29 28 31 34 34 34 32 29 27 28
50 52 59 61 64 67 70 77 79 82 80 69 60 58 59 62 67 66 67 67 64 63 62 58 56 52 47 41 36 32 31 30 30 28 26 25 25 24 23 24 26 27 28
50 54 61 69 81 84 88 89 86 85 80 74 71 67 67 73 75 75 70 70 66 70 68 56 48 44 41 37 34 33 32 31 29 28 27 28 28 28 26 25 24 24 24
59 59 68 79 84 94 91 83 84 87 86 79 73 76 84 85 78 78 71 73 70 62 52 48 47 45 40 36 34 31 28 26 25 25 27 30 31 33 33 33 31 28 26
62 65 74 84 88 94 93 86 83 80 76 77 80 86 81 75 80 73 74 67 54 50 48 47 46 43 38 33 29 23 22 21 21 22 23 24 26 28 31 33 33 33 33
67 79 95 90 90 87 82 79 75 75 79 84 79 70 71 68 67 63 57 52 52 51 49 47 46 43 39 34 29 23 18 20 19 17 20 21 19 19 21 23 26 29 31
85 89 78 75 73 69 64 67 71 73 66 63 61 60 59 58 55 51 50 50 50 50 51 48 41 35 32 28 26 23 22 20 21 22 18 19 19 17 18 18 17 17 20
71 67 64 61 57 60 61 56 56 56 57 58 59 59 57 54 52 54 54 54 52 47 40 33 27 22 21 22 24 27 29 30 29 27 22 21 22 20 18 16 17 20 19
61 55 54 55 59 59 57 57 59 60 61 61 58 58 58 59 59 57 52 44 39 36 31 27 24 24 26 29 32 38 41 45 44 38 38 37 35 32 27 26 24 24 26
58 60 65 66 64 62 62 62 62 63 63 61 62 62 61 56 50 49 42 38 36 34 33 30 30 30 32 36 37 39 40 46 47 50 44 40 41 42 40 32 34 39 41
67 75 70 71 71 70 69 64 64 62 60 59 58 54 50 46 37 33 31 30 29 31 29 35 34 34 38 38 41 46 49 49 49 47 46 45 51 52 51 48 47 57 53

GFSSE_prec_cthk_027.txt.gz
RH
79 74 69 70 61 57 53 49 41 37 34 31 26 20 19 17 14 10 10 8 8 8 9 9 9 10 10 11 11 11 12 12 12 12 13 15 17 21 26 32 33 38 44
78 76 71 73 64 58 50 45 39 36 30 22 18 19 17 13 8 7 7 7 8 10 11 12 12 12 11 10 10 10 11 13 15 16 18 20 23 26 31 35 35 40 45
80 75 74 74 61 54 48 43 39 32 24 19 19 17 13 8 6 7 9 12 13 14 14 15 15 15 15 16 16 15 16 17 19 21 24 25 27 27 31 36 43 48 52
79 76 68 68 61 52 46 42 36 24 21 19 17 13 8 7 9 11 13 16 16 17 18 18 18 18 19 20 20 20 20 19 21 25 29 30 31 34 34 38 41 42 50
79 71 66 65 58 49 43 39 24 21 20 14 12 9 8 10 13 15 17 18 20 22 22 23 22 23 23 24 24 24 22 22 23 25 31 35 36 38 42 43 35 29 44
78 69 61 58 53 44 40 28 20 19 13 11 8 9 14 16 18 21 23 23 24 24 24 25 25 24 23 23 23 24 25 26 28 30 33 34 37 40 43 43 40 31 36
68 64 60 59 46 38 27 19 18 12 7 8 12 18 20 23 25 25 25 25 26 26 25 24 25 25 24 24 24 25 26 29 31 32 32 34 33 29 34 35 34 35 36
64 61 60 47 36 26 19 18 11 6 8 15 21 23 26 27 26 28 29 29 28 29 30 30 28 28 27 26 26 26 25 25 28 31 34 35 36 40 34 31 34 35 39
59 57 48 36 24 20 19 11 7 8 17 24 27 29 29 30 29 30 30 31 32 31 32 32 31 30 30 30 31 30 29 29 27 26 26 30 33 37 38 40 39 36 39
52 47 30 23 21 18 12 7 9 18 25 29 31 32 32 32 33 32 33 33 36 37 36 35 35 36 34 35 36 36 34 35 33 30 29 27 27 29 33 37 42 43 42
35 21 20 19 16 12 9 11 19 26 32 34 36 36 36 36 36 37 41 45 45 45 42 41 40 40 40 39 41 41 40 39 37 35 33 31 30 28 27 27 31 36 40
18 20 19 17 15 13 15 21 26 33 38 39 40 43 44 45 48 49 48 50 51 49 49 45 43 40 40 43 43 43 43 42 41 37 35 33 32 30 27 26 25 25 28
21 23 21 19 18 19 24 30 34 41 44 45 51 51 50 51 49 48 48 51 52 53 53 50 45 42 42 44 45 44 42 40 39 39 38 35 34 35 34 32 27 24 25
34 35 35 31 27 30 33 38 43 48 54 55 58 55 54 54 54 49 47 49 51 53 56 53 51 49 46 44 44 43 41 37 33 32 33 33 35 36 38 35 33 30 27
50 45 44 44 40 41 46 50 54 57 62 68 67 65 61 58 55 53 55 57 59 60 59 55 55 55 51 47 44 40 37 33 29 26 25 24 24 28 30 32 32 31 30
50 53 57 53 56 54 58 64 71 74 74 77 82 75 68 61 61 63 66 69 69 67 65 60 55 57 52 47 41 36 33 29 27 26 24 23 21 21 21 21 21 22 25
56 60 58 64 67 69 76 81 84 77 80 83 89 86 79 69 70 76 76 76 73 67 62 68 59 56 48 41 37 35 31 28 26 24 23 22 22 22 21 20 21 21 20
62 64 67 68 77 82 91 92 86 83 86 89 86 81 76 76 80 78 74 72 75 68 73 63 53 47 44 42 38 34 31 27 23 22 20 20 20 21 22 23 24 24 23
64 71 71 75 82 91 92 85 89 87 89 85 78 81 85 86 84 78 73 71 69 59 53 49 47 46 41 38 35 31 28 24 23 22 21 21 19 18 18 18 20 22 24
65 66 70 82 91 97 89 78 80 79 77 73 78 84 80 75 70 65 63 59 55 50 49 48 45 40 34 27 22 19 17 15 15 18 18 16 16 17 15 14 14 13 15
62 72 80 87 93 76 77 70 69 74 70 71 65 62 58 59 61 60 56 52 51 49 46 43 39 34 27 20 19 20 18 15 20 17 19 20 19 15 15 14 14 13 12
71 80 84 77 67 59 61 63 63 59 57 55 55 58 59 58 56 54 54 55 53 50 46 39 31 26 22 20 20 23 24 25 26 24 25 21 21 20 22 21 18 17 15
69 67 63 63 58 56 63 63 60 59 60 58 61 61 60 60 59 58 56 51 44 40 33 29 26 23 24 25 23 30 35 34 37 31 34 37 36 32 30 28 28 28 26
62 61 60 57 57 64 66 64 66 67 66 64 64 62 60 59 55 50 47 41 32 29 27 26 24 24 26 33 33 37 38 41 46 46 53 51 43 37 34 32 32 31 31
63 59 62 66 67 70 72 72 66 68 68 65 63 62 58 52 45 37 33 31 31 31 31 32 32 35 34 35 41 43 45 52 54 59 53 51 48 46 44 42 40 40 40
63 67 76 76 72 71 71 68 68 65 64 63 58 51 45 38 36 36 36 36 37 37 37 38 39 41 41 38 42 43 46 47 49 51 55 53 45 37 37 33 42 49 49

GFSSE_prec_cthk_033.txt.gz
RH
72 66 61 61 63 58 56 52 47 41 34 29 22 19 16 12 7 6 9 10 11 11 12 12 12 12 12 12 11 10 11 13 16 19 22 24 24 24 28 29 34 39 37
75 68 65 66 67 64 59 53 46 36 30 22 19 17 13 7 7 9 10 12 13 14 14 14 14 15 15 15 15 15 15 17 20 22 33 43 54 31 32 35 37 40 38
78 69 68 73 73 66 57 52 44 32 23 20 17 13 9 8 9 11 13 14 15 16 17 18 19 19 19 19 19 18 17 17 21 28 39 69 51 33 42 37 39 38 39
82 75 75 78 74 63 59 52 37 23 22 20 14 10 9 10 13 14 16 18 19 20 21 22 20 19 19 20 20 21 21 21 23 35 49 49 52 36 43 35 37 38 39
81 82 81 80 76 64 63 48 27 23 22 15 11 10 12 15 17 20 21 22 22 23 23 22 21 21 21 21 20 19 21 27 34 42 51 40 44 35 43 36 38 39 39
89 85 82 86 74 66 60 35 25 23 16 12 9 14 18 21 23 23 24 24 24 25 25 24 24 24 23 23 23 21 20 25 32 42 45 44 34 29 27 28 35 36 34
93 88 86 85 73 71 51 29 23 17 12 9 16 20 24 26 26 25 25 26 26 27 27 27 27 30 29 28 28 28 26 26 30 29 34 32 24 28 31 33 32 31 31
96 97 91 81 78 69 36 26 18 12 10 17 22 27 28 28 27 27 29 30 30 31 32 38 38 38 36 32 33 33 33 32 38 37 35 31 24 23 24 27 32 38 36
96 95 84 81 77 50 29 21 13 10 15 23 30 31 30 30 30 32 32 33 34 36 41 45 44 42 39 36 36 34 35 37 40 43 43 36 28 28 28 26 26 28 31
91 85 91 84 59 35 25 16 11 12 23 29 33 32 32 33 34 36 39 41 44 44 46 46 43 43 40 39 37 35 36 39 41 44 43 40 32 29 28 29 29 28 27
92 96 92 70 48 39 21 13 11 21 30 35 36 35 39 51 49 50 45 45 46 47 46 47 45 42 44 43 42 39 36 38 39 41 39 34 29 30 31 31 30 31 31
87 77 70 49 40 33 25 12 18 31 39 45 47 45 58 56 57 56 46 47 48 49 52 52 50 49 49 47 44 43 42 39 38 36 34 31 28 25 25 26 27 29 31
63 51 45 37 29 28 25 28 36 44 48 51 54 57 61 65 67 66 63 63 63 58 62 59 59 57 53 48 46 45 43 43 42 40 38 33 29 26 24 23 23 24 26
39 38 36 27 25 29 30 39 47 57 57 56 62 65 67 71 80 71 74 72 69 71 68 66 66 61 59 53 48 46 45 44 41 40 38 33 29 26 24 22 21 21 20
37 33 30 28 28 30 38 46 52 56 56 65 72 77 80 80 78 81 78 75 73 73 72 71 67 60 58 55 51 48 45 42 40 38 35 29 26 22 20 19 19 18 18
44 42 35 35 37 41 47 50 60 70 65 66 69 77 83 84 82 83 82 82 82 80 80 72 60 53 54 52 49 46 43 38 34 32 29 26 24 23 19 18 17 18 18
49 49 55 58 55 60 61 63 65 61 65 66 76 79 80 85 86 88 84 82 93 75 73 59 58 55 51 49 44 38 34 27 25 24 26 27 28 27 25 19 15 14 14
55 56 58 61 67 71 72 76 74 71 72 79 77 76 77 86 87 83 84 76 66 61 56 57 54 50 47 41 36 32 27 25 25 24 27 35 31 26 25 26 23 15 13
63 66 69 75 78 78 82 83 86 87 81 77 79 79 85 78 74 70 62 58 56 56 55 51 49 46 41 35 30 30 30 27 28 29 30 38 38 36 36 29 28 22 19
66 68 71 73 74 79 83 72 80 71 69 73 73 72 68 62 57 58 57 55 54 56 54 52 46 41 37 35 33 34 32 29 28 36 40 42 41 39 38 37 36 35 32
67 70 74 74 75 81 78 73 70 72 72 66 62 58 57 57 58 59 60 59 61 62 56 50 45 39 38 37 34 32 33 31 31 37 39 47 39 38 37 38 38 37 36
67 69 71 76 79 78 72 71 70 63 62 64 59 58 60 61 63 63 64 67 65 60 52 47 42 42 39 37 36 36 37 31 33 41 43 44 43 43 45 42 41 41 41
67 72 76 82 75 79 75 65 64 67 63 60 62 65 67 66 66 65 66 65 58 50 47 47 46 44 42 42 44 41 40 40 39 38 36 38 40 41 42 42 40 38 41
68 71 71 68 68 66 62 63 62 63 68 68 68 68 67 66 68 67 61 53 49 50 50 49 52 51 50 48 45 44 44 45 47 39 42 42 41 44 43 41 43 43 38
64 66 69 66 63 58 56 60 61 65 68 68 69 69 69 71 67 60 55 55 56 53 55 56 57 55 50 47 47 47 46 46 43 46 45 45 42 42 46 45 44 43 42
61 64 66 57 58 59 57 58 62 65 65 67 71 66 66 67 60 60 61 58 54 52 58 56 55 49 53 51 59 58 55 50 51 54 54 49 46 35 43 44 45 46 44

GFSSE_prec_cthk_036.txt.gz
RH
72 60 56 56 58 59 55 51 48 46 39 29 19 16 12 7 6 8 9 10 11 12 13 13 13 13 13 13 14 14 15 17 19 26 35 43 49 47 28 27 31 30 33
76 65 58 58 60 59 57 54 50 46 33 20 16 14 8 6 8 9 12 13 14 14 15 15 17 18 17 17 17 16 17 21 30 34 43 51 61 38 30 32 35 35 36
75 69 64 62 63 60 60 58 50 40 23 19 15 10 8 8 10 13 14 16 17 18 18 19 18 18 18 19 20 20 20 27 39 45 50 52 46 41 35 40 34 35 34
77 70 69 71 71 70 66 58 47 27 22 18 12 8 9 11 13 15 18 19 20 20 20 20 20 19 19 18 19 22 28 31 39 44 50 51 42 33 33 37 34 35 35
79 73 73 77 80 74 69 57 38 24 20 15 9 10 13 15 18 20 21 22 22 22 22 22 22 23 23 22 21 24 29 33 41 50 44 39 33 26 26 28 30 33 35
83 78 80 86 81 76 69 55 36 23 17 10 10 13 17 21 23 23 24 24 23 24 25 25 26 29 30 30 28 27 29 30 31 39 34 32 20 24 27 30 30 30 30
87 90 89 90 83 74 63 51 29 18 12 9 13 19 23 24 25 26 26 26 27 27 29 30 35 38 37 38 35 32 34 35 35 36 33 32 27 25 23 24 27 31 34
97 94 92 91 85 70 60 42 23 14 9 13 19 24 26 26 27 28 28 29 30 32 33 38 40 40 40 38 36 36 36 36 40 45 39 39 36 27 28 28 26 25 26
98 95 96 90 81 63 49 34 21 14 11 18 25 27 28 28 30 31 31 33 36 37 41 43 42 41 41 40 38 38 34 36 39 42 41 41 38 29 29 30 30 29 28
93 93 96 90 73 54 46 26 17 12 18 25 28 29 30 30 32 34 35 37 40 41 44 45 45 46 48 44 42 39 39 38 38 39 36 34 32 28 26 28 30 32 32
91 96 93 77 54 42 28 18 13 16 23 29 30 36 41 45 44 44 39 40 43 45 46 48 51 54 54 51 48 45 42 40 38 37 33 30 30 28 25 23 23 26 29
96 80 80 61 44 29 19 14 16 23 28 34 35 45 62 56 53 49 50 48 50 52 56 60 61 59 57 56 55 52 46 42 38 37 33 33 32 31 28 26 24 23 23
89 82 62 50 36 27 18 19 26 31 41 46 55 47 57 51 60 69 65 66 67 68 66 65 65 63 62 56 49 52 43 40 38 35 33 33 34 32 28 26 25 23 22
66 53 40 33 31 31 27 29 35 40 46 49 43 48 52 59 71 70 70 74 74 74 70 71 69 69 64 54 49 46 43 42 40 37 37 33 31 30 29 25 22 20 20
42 33 25 23 27 27 34 44 46 61 51 57 62 58 63 68 72 71 74 74 73 73 72 71 67 66 56 48 47 44 43 40 36 32 33 31 27 29 27 24 21 19 18
35 32 29 27 31 40 47 50 61 69 64 69 66 68 73 71 74 77 73 77 78 76 69 71 60 51 49 46 44 41 38 34 28 26 27 25 25 29 28 26 24 19 18
41 40 40 49 52 57 53 59 59 66 67 68 60 67 72 71 74 74 72 79 77 68 53 48 46 45 44 40 36 32 30 30 25 24 25 23 31 34 31 29 28 25 22
54 52 56 57 61 67 65 65 67 72 69 63 63 70 69 68 69 72 70 65 55 48 45 44 45 45 42 38 32 29 30 29 26 28 28 27 35 37 37 35 35 31 28
53 56 58 64 68 72 75 75 72 72 71 66 69 67 70 68 66 61 51 47 47 48 48 48 49 46 40 33 30 31 31 30 29 29 33 35 40 42 42 42 41 38 36
58 60 67 68 71 73 73 74 70 67 63 64 65 67 65 58 48 47 47 48 49 51 53 53 50 45 39 36 35 34 33 34 33 32 38 44 42 42 42 40 39 38 37
58 62 64 64 66 68 73 74 68 64 60 60 59 55 47 46 50 52 54 54 56 59 57 52 45 41 39 38 36 34 34 33 32 31 35 37 41 43 43 41 39 38 34
54 60 61 67 68 74 78 71 62 58 55 52 46 46 51 53 57 58 58 60 61 60 54 44 40 39 39 39 38 39 35 32 32 33 33 35 38 41 43 44 41 38 37
59 60 62 71 73 73 75 61 55 51 50 47 50 52 56 58 60 59 62 63 60 55 46 42 39 41 44 42 40 39 38 36 33 33 33 30 30 34 36 33 34 37 38
57 60 68 70 70 66 68 58 54 50 49 55 58 58 61 62 61 62 64 57 54 52 47 41 42 46 45 43 42 41 38 40 40 34 35 29 31 35 36 34 34 34 33
57 67 67 62 64 73 62 54 54 59 59 62 64 66 69 63 63 62 57 58 56 52 46 43 47 52 52 49 48 44 42 43 49 47 40 34 32 34 36 40 39 38 37
55 57 61 73 67 62 55 57 58 57 60 62 63 62 67 67 71 63 60 57 52 46 40 44 49 49 51 48 46 48 55 59 61 60 55 43 42 36 38 41 38 36 40

GFSSE_prec_cthk_039.txt.gz
RH
69 68 65 66 65 62 56 52 49 43 37 28 22 18 8 4 6 8 10 11 12 13 14 14 15 15 15 14 14 17 19 25 27 34 40 47 47 51 34 30 28 31 32
67 71 71 70 67 62 58 56 50 43 35 24 22 15 6 6 8 10 12 14 15 16 17 16 16 16 15 16 16 22 30 32 34 34 42 56 45 38 37 37 37 34 34
74 73 73 73 70 64 63 59 52 41 31 24 15 10 7 8 10 13 15 17 17 17 16 17 17 16 17 19 21 24 35 34 35 37 44 47 37 29 32 33 35 33 33
76 75 72 71 72 69 67 62 52 40 32 22 11 10 9 11 13 16 17 17 18 18 19 20 20 19 18 22 26 28 32 36 38 41 37 32 23 23 24 25 29 30 31
76 77 76 75 74 73 68 63 49 40 30 18 10 11 12 14 17 17 19 19 20 20 22 23 24 25 25 26 28 28 30 34 37 37 33 27 20 19 23 27 29 29 28
81 79 80 80 78 77 71 58 46 37 27 16 12 13 15 17 19 20 21 22 23 24 26 27 29 33 34 34 34 34 33 36 34 33 33 34 30 23 22 21 24 29 33
91 83 85 85 88 80 70 55 47 32 24 19 14 16 19 20 21 23 23 24 25 28 30 32 35 37 35 34 35 34 38 40 39 39 40 40 35 28 24 24 25 24 26
96 95 94 94 88 82 66 54 38 24 11 13 16 21 21 23 24 24 25 27 31 33 34 37 39 41 39 38 37 36 36 39 39 38 40 40 37 33 26 25 27 27 28
99 99 97 90 88 75 56 43 28 15 13 16 21 23 25 26 27 27 28 29 33 35 37 39 41 46 45 45 45 41 40 39 37 36 35 34 32 30 28 23 24 27 30
97 94 91 91 81 58 52 41 29 19 18 21 21 27 30 28 27 28 30 34 37 37 41 45 47 51 52 51 49 49 44 45 41 36 35 32 32 29 28 26 23 22 24
94 91 95 89 69 52 48 32 17 17 21 23 28 29 28 31 34 35 36 40 44 48 51 56 57 56 58 55 50 45 50 42 38 35 33 32 31 30 29 27 25 24 23
94 90 80 69 56 44 28 18 15 18 20 21 28 33 34 37 40 43 50 52 55 58 60 63 62 61 60 58 54 46 43 42 38 35 32 33 32 31 29 28 26 25 24
80 78 71 61 46 32 22 19 18 19 22 26 31 42 45 43 48 59 62 64 62 62 65 66 67 62 61 59 51 44 43 41 40 35 33 34 32 30 30 30 28 26 24
64 66 51 42 30 22 18 20 21 25 28 41 43 53 52 53 60 66 66 65 63 67 70 68 69 64 60 52 46 41 40 38 34 28 28 30 31 28 28 31 30 29 24
54 47 42 36 29 25 25 29 29 40 47 55 53 54 58 61 65 67 67 66 68 69 68 66 64 52 44 41 39 38 33 29 27 27 26 26 28 26 29 31 29 26 25
40 40 37 28 30 37 41 44 52 56 60 62 59 66 66 65 71 72 70 68 70 68 66 65 48 39 39 38 35 29 26 27 26 26 26 25 25 25 29 30 29 29 29
36 32 30 30 44 48 51 52 56 63 59 67 59 61 62 68 69 68 66 65 68 61 57 43 38 39 39 36 31 27 28 27 27 26 26 27 28 33 37 38 34 33 32
39 35 38 44 51 55 59 59 67 59 62 65 61 62 60 63 66 62 60 60 55 46 40 38 39 42 41 36 30 30 29 28 28 28 29 31 34 39 39 39 39 39 38
45 44 48 54 57 68 62 63 62 60 64 64 64 64 63 65 62 56 55 46 40 40 40 42 45 45 40 33 31 30 30 29 31 32 34 37 42 44 44 43 42 41 40
51 51 52 55 59 64 62 62 71 66 69 65 60 58 59 60 57 48 42 42 44 47 48 49 50 45 39 34 33 31 33 31 32 33 33 35 40 42 41 40 40 39 37
48 53 56 57 59 69 70 77 75 66 56 55 55 55 50 46 43 44 46 50 52 52 54 53 48 42 36 35 31 32 33 32 28 30 32 33 35 38 39 39 38 36 35
46 50 54 66 71 73 73 71 70 61 55 53 51 44 42 45 49 51 53 52 54 57 56 51 44 39 37 34 35 36 34 33 33 32 29 29 32 32 35 36 38 40 40
47 51 54 63 73 73 69 70 69 56 49 46 42 42 47 51 51 53 55 55 56 55 51 48 44 38 36 37 41 41 39 37 34 34 32 31 27 28 28 29 31 32 34
49 55 58 65 68 67 69 71 57 51 44 42 45 48 53 55 56 58 57 61 61 55 49 48 44 39 38 41 44 44 46 44 41 38 40 40 38 37 34 32 29 33 34
50 57 57 61 60 64 64 58 57 49 48 48 50 51 53 56 57 56 61 67 63 55 49 44 42 39 43 48 48 50 48 42 43 44 41 41 45 47 44 36 36 34 33
52 53 58 57 57 58 61 60 57 54 51 50 53 58 62 64 63 62 66 68 62 56 47 42 36 41 44 44 45 45 44 47 52 54 53 48 50 46 44 39 38 41 40

GFSSE_prec_cthk_042.txt.gz
RH
59 59 64 69 71 72 63 60 55 50 40 31 27 18 12 10 8 9 11 12 13 14 15 15 15 15 17 22 24 25 26 28 32 37 43 42 42 36 34 33 36 29 35
55 58 67 72 70 68 67 64 56 49 40 33 25 18 12 9 9 11 13 14 15 15 15 15 16 17 19 23 24 27 28 30 33 35 35 33 29 25 26 28 31 33 35
63 66 69 75 73 67 68 64 56 45 39 34 23 18 16 8 11 13 14 15 16 16 16 17 19 22 22 23 25 29 31 32 34 31 26 17 18 20 21 22 26 29 29
68 70 73 71 72 69 68 62 54 43 40 33 25 19 11 10 13 14 16 17 18 18 18 19 19 24 25 25 26 30 31 30 30 27 24 22 20 17 19 24 25 25 25
75 79 81 79 72 70 70 63 50 45 38 34 30 24 19 13 15 16 18 18 19 20 20 21 22 23 28 32 34 34 35 34 31 29 29 30 28 22 20 19 21 26 28
76 83 82 80 74 71 70 58 50 44 40 34 24 23 24 16 17 19 19 21 22 23 23 24 27 29 31 31 33 34 35 35 36 35 35 34 33 29 22 22 23 22 22
77 83 90 93 84 74 66 57 51 46 38 26 25 23 20 21 19 20 21 22 24 25 26 28 31 31 33 35 33 32 34 35 34 34 34 33 32 32 26 23 24 24 24
86 94 97 97 89 75 63 58 54 42 33 27 24 20 18 19 21 22 23 26 28 30 31 32 34 36 39 42 41 40 39 37 35 34 33 32 31 29 27 25 22 24 27
96 98 98 97 87 78 74 61 46 30 23 19 16 19 21 22 22 24 25 27 29 33 36 39 41 43 48 49 48 47 45 43 40 37 33 32 30 28 27 26 25 23 24
97 98 94 90 86 76 64 47 33 26 28 28 25 22 22 24 26 26 28 32 35 39 43 48 50 54 54 53 53 46 41 41 39 34 32 31 29 28 27 26 25 24 23
95 95 90 88 78 67 58 46 35 31 25 19 22 26 28 28 30 34 33 38 43 48 51 54 59 59 59 56 53 49 42 37 36 35 31 29 29 28 28 28 25 25 24
91 89 85 85 68 60 46 36 29 25 21 22 26 27 29 32 34 38 42 49 53 54 56 60 63 62 64 61 53 45 42 38 35 32 28 29 29 29 28 28 28 26 25
89 88 83 72 58 45 32 19 18 18 21 24 29 35 39 43 48 53 55 58 59 59 62 63 64 60 59 53 42 38 39 32 28 25 25 26 27 28 29 26 27 27 26
62 69 64 52 44 32 20 18 18 20 25 32 42 45 48 52 55 59 57 59 63 62 62 63 63 61 50 40 34 33 29 25 24 24 23 25 26 28 27 28 30 29 28
52 64 54 38 32 24 22 24 26 29 38 51 53 56 56 54 60 62 62 65 65 62 60 60 58 49 39 35 34 31 26 24 24 24 23 23 24 26 29 31 32 34 34
45 45 48 44 29 26 29 33 38 46 54 57 65 60 54 60 65 65 67 65 59 58 58 58 49 39 36 36 35 28 25 25 24 23 23 25 27 29 33 35 36 36 36
32 37 38 40 41 41 42 44 54 66 65 65 62 59 57 59 59 59 59 60 59 58 57 47 39 37 39 39 35 29 28 27 25 24 25 27 30 35 38 38 38 39 39
41 44 47 46 45 51 60 61 67 64 61 59 59 56 55 56 52 57 57 57 59 55 43 39 39 41 42 41 35 32 31 28 28 28 31 32 33 38 40 41 40 41 41
47 46 48 48 51 59 67 61 60 60 57 58 57 58 53 52 52 56 57 57 48 42 41 42 46 47 44 41 38 36 34 30 29 32 33 35 35 39 42 40 39 39 39
54 44 49 48 49 54 57 61 63 64 57 52 49 49 47 48 50 53 52 45 43 45 48 50 50 48 45 44 41 37 34 32 32 31 33 35 37 39 39 37 36 35 34
48 44 41 44 47 53 63 63 63 64 58 49 47 45 47 47 48 45 44 45 48 52 53 51 53 47 45 41 39 38 35 35 36 37 35 33 33 32 33 35 35 35 34
45 47 45 48 52 60 69 65 64 64 58 52 48 49 49 46 42 44 48 50 53 55 55 55 49 46 45 39 38 37 37 39 39 39 39 38 34 32 33 32 32 32 30
42 47 50 59 63 68 67 64 71 66 62 55 50 47 47 45 47 49 52 54 57 59 62 60 52 47 47 41 38 41 43 45 42 42 39 37 39 40 40 40 39 37 36
42 45 51 63 64 65 63 67 66 65 61 54 51 47 46 46 50 55 56 58 59 64 67 64 61 59 59 49 43 45 49 51 49 45 44 45 42 45 47 44 38 36 33
46 50 58 59 61 61 62 64 67 65 58 54 46 46 48 52 56 59 60 61 61 66 67 65 66 64 59 50 45 44 47 47 47 48 46 43 48 48 48 47 44 43 42
52 53 63 62 61 63 64 65 65 61 57 49 48 50 55 58 60 60 63 68 72 69 69 64 60 52 44 43 43 46 49 50 47 52 47 48 51 47 52 53 50 49 44

GFSSE_prec_cthk_048.txt.gz
RH
61 64 68 67 66 63 55 52 53 54 51 47 42 35 29 24 23 17 18 12 11 12 14 16 17 20 21 23 26 27 27 24 22 18 16 17 18 19 22 24 26 28 31
64 65 71 70 71 66 59 57 53 49 50 48 39 35 31 28 21 26 19 11 12 15 16 19 21 22 24 23 25 28 28 24 21 20 19 17 16 17 18 18 20 23 25
74 69 70 74 74 71 68 62 56 49 48 43 39 35 32 28 24 24 17 13 15 18 19 19 22 25 26 25 29 26 27 28 26 24 23 21 18 17 18 19 21 21 20
72 71 72 76 77 77 72 65 57 51 47 43 38 37 34 32 23 20 19 18 19 19 20 21 22 24 24 25 26 27 28 28 29 28 27 26 24 19 19 20 20 20 22
78 79 79 80 83 80 75 65 56 49 51 40 40 38 40 26 26 28 27 22 20 21 24 23 23 24 25 27 29 29 29 28 27 26 25 25 24 25 22 20 21 22 22
84 81 83 80 80 81 77 65 51 47 48 41 40 39 36 36 32 25 24 20 23 26 24 24 25 26 28 30 31 33 35 35 34 31 28 26 24 23 23 23 22 21 22
81 82 84 86 92 87 78 64 49 55 43 45 44 41 42 35 36 35 31 26 26 25 26 27 30 33 35 36 37 39 39 40 38 34 32 30 26 26 24 22 21 21 21
84 88 91 93 94 92 77 62 60 46 49 48 48 44 34 37 33 28 27 28 30 32 31 34 39 42 43 42 42 41 39 36 34 31 29 28 28 27 24 23 21 20 20
83 95 98 98 96 86 73 66 52 51 53 54 43 43 43 42 35 31 32 34 35 32 35 42 47 48 49 49 46 41 39 35 33 31 26 24 26 27 23 22 21 20 20
77 87 94 95 90 80 71 59 53 56 59 49 42 38 36 29 28 29 31 32 34 38 44 49 53 51 53 54 49 39 31 27 23 22 19 20 21 26 22 19 18 19 19
89 99 97 93 87 78 69 68 68 62 49 36 35 41 38 32 31 32 34 37 39 45 48 52 56 57 56 54 44 37 28 23 21 19 19 19 24 27 26 20 19 20 20
80 90 94 87 82 84 83 74 63 51 46 45 39 37 33 38 37 38 38 41 44 48 54 58 55 59 57 48 39 30 26 23 21 21 20 20 22 28 27 26 22 22 22
84 89 93 90 89 87 81 69 56 49 37 33 32 36 39 42 44 46 46 50 55 57 61 59 60 58 51 41 34 30 26 23 22 22 22 20 19 26 27 27 26 27 25
89 91 93 93 89 77 64 48 41 43 41 43 44 44 44 49 49 53 60 60 60 63 63 64 64 51 42 37 32 30 28 26 24 24 22 20 21 22 26 29 30 31 30
80 81 75 73 70 60 50 42 42 37 38 39 48 53 60 60 61 61 67 65 63 62 61 59 55 44 41 38 34 32 30 27 25 25 23 21 23 22 28 31 31 32 33
54 57 58 53 47 38 31 32 35 39 48 60 64 72 69 63 63 63 61 63 59 59 60 58 51 45 42 38 37 35 30 28 27 27 25 23 24 25 29 30 32 35 35
56 56 45 44 39 39 41 42 46 55 60 66 68 70 65 61 62 63 61 59 58 58 59 58 49 46 41 41 41 35 30 28 28 28 26 26 27 30 32 34 34 36 37
55 57 53 51 50 45 44 46 52 60 61 63 69 63 66 66 66 59 57 57 56 56 58 54 47 44 43 44 39 33 31 29 28 29 30 29 31 33 34 37 39 40 38
51 55 53 51 50 50 49 51 51 51 59 71 70 56 58 52 51 55 51 55 54 59 53 46 45 46 47 44 40 37 35 34 33 33 34 36 37 36 36 35 38 39 37
53 53 51 45 44 45 46 50 57 64 68 70 66 56 52 50 51 52 51 53 56 55 44 44 49 50 46 42 40 40 39 40 40 43 45 46 42 40 38 36 37 37 37
49 48 45 44 45 47 49 57 65 65 73 77 66 62 54 51 51 51 50 53 54 46 43 48 52 47 47 45 45 47 47 44 47 52 52 51 51 47 46 44 42 42 41
45 45 43 45 49 55 61 64 67 69 69 75 69 66 59 55 54 53 54 53 46 44 47 53 50 53 57 63 63 62 59 53 53 52 56 58 55 52 50 53 54 53 49
47 46 46 45 52 58 59 65 62 64 75 74 74 73 72 61 56 54 53 45 46 47 51 55 62 66 71 73 73 66 64 56 61 63 59 61 58 59 61 56 54 55 56
53 51 50 52 55 58 60 60 58 64 71 73 80 75 63 62 56 53 49 49 53 59 66 71 75 80 76 81 78 71 64 63 64 62 59 58 58 60 61 57 57 60 62
57 56 59 58 59 63 63 60 59 66 78 79 82 75 76 69 63 59 58 63 67 69 75 80 85 86 94 90 77 67 65 62 66 64 60 57 63 67 66 64 63 64 63
61 58 63 66 63 68 70 56 56 64 71 75 82 81 76 69 67 66 70 75 77 81 89 85 86 95 85 80 74 73 68 64 62 63 59 64 67 65 63 61 62 62 62

GFSSE_prec_cthk_051.txt.gz
RH
65 67 69 67 64 63 59 57 57 56 53 50 47 40 32 27 26 19 21 18 14 13 15 17 18 20 23 24 23 24 21 18 16 13 14 16 16 16 18 20 22 25 27
72 72 72 70 66 64 62 60 57 53 50 42 40 37 31 27 27 21 22 18 14 15 18 20 21 21 22 23 22 22 23 23 22 20 17 16 16 17 18 19 19 20 23
78 77 79 76 71 70 67 62 56 50 46 39 39 32 32 30 30 27 23 19 17 19 20 21 22 21 22 22 23 23 23 23 23 23 24 25 20 18 17 18 19 20 20
83 81 83 78 76 76 73 67 59 51 44 41 40 39 37 32 33 24 24 21 18 20 21 22 22 22 23 25 26 27 26 24 23 22 22 27 26 22 20 20 20 20 21
84 81 84 81 82 81 80 72 58 49 44 38 44 42 35 36 34 28 30 27 22 20 21 23 24 25 27 28 30 29 29 29 30 29 28 27 31 29 24 22 22 21 22
82 83 82 82 83 83 80 73 58 50 43 44 39 39 37 35 36 38 36 33 25 23 25 27 31 31 31 32 35 35 35 34 33 31 29 27 34 30 24 24 23 23 22
84 86 85 86 88 86 79 74 64 50 46 47 42 44 40 40 38 34 34 30 27 26 29 31 33 34 36 39 39 39 38 35 32 30 29 30 29 25 23 23 22 22 21
94 96 92 91 91 88 80 71 62 53 53 49 46 46 47 46 42 41 40 37 34 33 33 35 38 41 42 43 41 38 35 32 29 27 27 31 25 20 18 19 19 20 19
87 93 97 95 93 87 80 64 58 57 53 50 48 50 47 43 42 40 36 34 33 35 40 43 44 48 48 47 43 40 35 30 22 19 19 26 17 17 16 16 16 16 16
84 90 95 95 95 86 82 67 63 60 54 54 54 48 53 52 45 40 40 37 38 40 42 45 50 52 52 50 43 35 32 25 20 18 20 24 22 25 18 17 17 18 18
76 78 84 95 90 88 83 67 64 60 60 58 55 50 44 43 42 41 36 36 39 42 49 54 53 54 57 51 38 32 28 22 20 20 21 19 25 27 27 19 18 18 18
81 81 89 89 90 91 83 83 66 69 69 56 47 46 48 45 41 41 40 41 46 50 55 57 58 60 56 48 34 30 28 24 22 21 21 22 25 28 28 27 23 22 21
86 84 87 95 92 91 84 79 85 74 54 51 51 46 44 42 44 47 49 52 58 59 62 63 61 63 56 41 30 29 30 26 23 22 23 22 21 28 28 28 29 27 23
87 91 91 88 87 89 91 89 77 64 57 47 43 42 47 50 52 52 55 62 63 66 66 63 59 60 48 37 31 31 31 27 24 24 24 23 23 27 28 29 29 30 28
90 91 88 89 91 91 85 73 59 48 43 45 48 50 47 51 56 62 66 68 67 65 64 60 57 55 43 39 35 35 31 26 26 25 24 24 23 24 28 30 30 31 31
76 78 76 79 78 70 62 54 52 48 41 38 45 53 61 69 69 66 71 68 63 60 58 57 58 47 43 40 38 36 32 29 26 25 24 23 23 26 31 30 33 34 34
62 60 57 55 52 43 38 38 41 43 47 56 65 74 77 71 66 68 70 66 59 57 54 55 55 46 44 40 40 36 33 32 30 29 28 30 30 32 37 39 39 39 38
51 55 55 51 45 39 38 43 52 56 63 67 69 78 78 74 77 76 67 60 55 54 53 55 51 46 42 41 38 35 33 34 33 32 31 32 35 39 42 41 40 40 39
55 54 52 53 53 51 49 46 51 52 54 62 68 77 70 68 67 59 58 53 53 53 54 53 47 43 42 39 39 38 39 39 37 36 38 40 39 39 40 41 41 40 38
58 58 56 56 60 59 54 51 49 53 58 63 73 73 61 56 54 51 55 54 53 54 53 49 42 42 42 41 44 48 49 48 45 45 46 43 43 44 42 42 42 42 41
55 55 53 52 50 51 49 51 54 55 59 68 84 79 67 58 54 52 54 53 52 53 50 46 43 45 46 52 57 59 56 53 51 52 51 48 47 50 49 48 47 46 45
49 48 49 51 54 53 55 55 59 61 64 73 89 74 79 70 62 57 56 53 53 52 51 49 53 53 58 61 65 69 71 68 64 59 54 54 50 51 54 54 51 50 51
47 46 47 47 50 58 61 61 63 65 67 75 77 83 82 77 70 65 64 61 59 57 54 60 62 63 70 72 75 78 76 76 73 66 62 59 54 55 57 56 57 57 56
45 48 48 47 48 57 62 61 64 64 65 72 79 85 90 84 73 73 74 68 65 64 64 70 71 75 80 84 79 79 73 69 67 63 64 61 56 58 58 59 61 58 57
50 51 51 54 57 58 62 66 66 63 63 72 87 90 84 85 82 82 75 69 73 71 71 79 82 87 91 93 85 77 68 64 62 63 61 62 60 60 62 62 55 49 44
55 55 57 56 64 67 68 72 74 62 57 64 73 84 87 87 86 82 77 79 80 78 80 88 94 96 91 88 86 78 71 68 63 63 60 61 64 62 58 52 43 38 40

GFSSE_prec_cthk_054.txt.gz
RH
68 69 62 65 68 67 67 65 63 63 61 56 49 41 35 28 24 21 21 18 18 21 21 21 22 20 20 22 21 18 19 19 18 16 15 15 16 17 19 22 28 29 28
73 72 68 66 65 67 66 66 67 64 57 51 43 35 29 27 24 26 24 22 21 19 21 22 21 21 21 19 19 20 20 22 21 21 23 20 18 18 18 17 18 20 23
77 76 73 72 70 68 67 66 64 61 54 44 37 32 30 28 27 29 27 26 25 22 21 20 21 20 21 21 21 21 20 21 20 23 31 33 26 19 19 19 19 19 19
83 86 79 76 75 72 67 66 64 59 48 38 34 33 34 35 32 31 30 29 28 26 23 22 21 24 24 23 24 24 25 25 24 31 36 37 30 22 21 21 22 22 25
82 88 85 79 79 78 75 70 64 55 47 39 36 38 36 35 36 34 32 31 30 29 25 25 25 28 28 27 28 28 31 30 31 38 37 37 33 26 23 23 23 22 22
87 91 91 85 86 84 80 73 64 56 51 42 40 44 40 37 39 38 35 34 34 31 28 27 29 32 31 30 30 33 31 29 38 40 41 34 32 22 22 22 23 22 21
90 95 90 87 88 86 79 73 67 58 51 47 49 46 39 42 44 43 41 38 37 35 31 30 34 36 33 34 35 34 31 31 38 37 40 34 28 20 19 16 15 17 18
97 91 86 86 85 86 83 74 65 57 52 50 48 48 47 48 45 43 40 41 40 37 36 36 39 37 38 37 39 36 31 32 37 34 35 27 21 16 14 14 14 14 14
85 94 87 92 95 87 85 69 62 58 57 51 51 52 49 50 48 48 48 45 43 42 40 42 42 43 44 41 40 35 30 29 33 27 31 30 20 18 16 15 16 16 16
83 87 97 98 95 84 73 71 69 64 54 54 54 54 53 51 48 48 46 45 43 40 43 44 47 48 52 47 38 34 28 28 27 29 32 28 27 25 18 16 17 16 16
85 87 91 96 92 81 84 84 67 60 59 58 58 58 57 56 56 51 46 44 44 45 47 48 51 55 57 46 40 34 31 29 27 28 29 24 28 29 28 19 19 18 18
78 84 84 87 90 88 86 83 75 75 68 63 64 63 61 58 53 48 47 48 46 48 52 55 58 60 59 47 41 34 30 28 26 25 26 23 30 29 30 28 22 20 20
75 75 82 85 86 87 85 91 92 80 73 76 72 61 56 52 51 50 45 49 56 60 60 61 63 63 60 49 39 33 30 29 27 27 25 23 22 30 30 29 28 25 22
75 89 82 88 90 93 98 91 86 86 83 71 64 60 56 52 51 53 54 59 62 66 65 66 66 63 54 42 35 34 32 29 28 28 26 23 21 27 25 28 28 30 28
83 86 93 93 96 95 94 89 91 81 75 66 59 57 54 56 56 56 61 68 67 66 64 63 63 58 47 41 37 36 33 30 30 32 31 25 25 29 32 33 32 35 35
89 94 97 94 94 93 92 93 83 71 61 57 56 54 57 54 53 66 71 70 70 64 61 57 57 53 43 41 37 37 33 31 30 30 32 31 27 29 33 33 37 39 39
76 81 88 95 95 92 89 78 70 65 60 57 54 52 54 64 71 68 69 67 66 60 58 54 52 46 44 40 37 36 34 32 32 32 34 37 41 36 35 37 37 39 41
58 65 68 73 80 79 70 57 55 54 47 49 52 63 73 77 71 73 76 74 64 59 52 53 50 46 43 38 36 36 37 37 38 40 41 42 43 48 47 43 38 38 40
52 53 54 55 53 46 46 45 45 50 58 60 68 77 83 84 81 80 72 64 62 56 53 51 50 47 42 39 40 43 45 48 48 48 46 48 47 46 44 42 37 37 38
54 55 56 54 51 48 51 51 55 59 59 61 69 78 84 78 73 75 65 58 59 54 49 50 50 47 42 45 49 52 54 55 56 55 53 54 55 51 49 45 45 46 46
58 60 60 64 65 62 60 57 54 56 60 62 69 74 83 81 74 61 55 55 55 52 49 52 54 51 49 52 58 61 62 61 59 57 56 53 53 51 50 47 48 52 50
53 53 55 54 57 60 61 59 57 56 62 63 68 81 85 86 84 70 67 62 61 57 59 60 61 57 56 58 65 70 72 70 62 59 59 56 55 55 55 55 54 53 55
50 50 51 52 56 59 62 66 66 69 68 65 71 79 88 91 91 86 77 71 69 68 66 67 64 63 61 64 73 81 81 81 71 65 63 65 62 62 59 56 58 57 55
46 47 48 49 51 55 60 68 66 67 70 65 65 79 90 92 94 93 85 80 79 76 73 72 68 69 70 75 83 87 90 82 71 69 70 65 63 67 63 62 64 57 45
48 51 50 50 51 55 59 65 70 71 71 75 71 74 86 86 91 90 89 86 85 86 82 79 74 76 78 86 95 90 85 83 78 77 66 66 65 64 64 63 52 46 38
53 55 55 57 60 61 66 67 71 77 80 72 62 60 67 76 87 92 93 93 92 89 86 84 81 88 87 91 93 88 89 87 81 70 69 68 66 63 60 53 50 40 35

GFSSE_prec_cthk_057.txt.gz
RH
62 63 60 61 65 67 65 65 63 61 61 60 54 43 30 26 26 24 21 25 25 24 24 23 21 21 20 17 17 18 17 17 18 18 17 16 17 18 20 22 25 26 29
54 63 63 64 68 69 69 67 65 65 65 60 50 38 30 27 24 23 23 30 27 25 24 24 24 20 19 18 19 19 19 20 21 24 25 19 18 19 19 19 20 21 24
62 65 66 67 69 68 68 68 68 68 66 57 46 35 31 31 28 25 30 33 31 27 26 22 21 21 21 21 21 22 21 23 29 32 38 33 28 23 21 23 24 22 21
66 67 73 71 76 74 74 70 70 69 62 52 42 34 33 32 29 32 34 35 33 29 25 23 24 23 24 26 24 26 26 29 36 42 44 39 31 25 29 23 25 29 30
76 63 73 73 76 80 79 77 75 67 59 50 41 36 36 35 31 35 38 38 37 33 31 29 27 28 28 29 28 27 28 32 37 39 38 36 32 23 23 23 22 21 21
80 74 72 68 77 82 78 76 71 65 56 48 42 40 40 40 38 39 40 42 43 37 37 35 33 33 31 31 27 26 30 37 44 43 36 30 26 20 18 16 17 15 16
91 93 87 80 87 81 76 75 69 60 53 48 45 42 45 42 42 40 41 44 44 41 42 43 36 34 33 31 28 30 32 36 44 41 35 26 16 14 14 13 12 12 13
96 95 92 89 92 89 82 74 69 60 54 50 48 46 50 45 46 46 46 49 44 45 46 45 40 36 34 32 30 30 33 35 41 44 34 24 16 15 14 13 13 14 14
75 87 96 98 95 92 86 80 70 66 60 55 50 46 54 48 50 51 51 50 46 48 50 46 43 39 37 34 34 33 31 34 36 37 35 28 18 20 17 15 15 15 15
79 95 94 91 98 92 86 80 72 71 63 60 50 54 56 53 53 53 54 48 51 58 54 54 49 44 40 38 35 33 33 33 34 32 31 24 26 22 18 17 16 16 16
82 83 84 86 87 92 86 81 78 80 63 59 58 60 62 60 59 59 52 53 53 56 55 47 51 49 48 40 38 36 35 32 31 31 29 24 28 29 22 18 18 18 17
84 88 84 79 82 89 79 79 89 85 71 65 64 66 68 67 68 61 56 53 47 51 53 54 53 57 56 47 40 40 34 29 26 28 25 20 28 28 27 23 20 20 20
85 85 82 83 86 84 79 77 85 90 77 71 73 76 75 74 74 62 54 52 59 58 57 61 59 62 61 49 37 34 31 29 28 28 26 21 27 29 27 28 29 27 28
75 80 82 80 83 77 81 98 94 88 82 79 79 80 78 73 69 59 59 58 60 66 65 66 66 66 63 45 36 33 31 32 29 30 29 24 22 26 27 29 30 31 32
74 83 80 84 88 84 89 94 91 87 85 82 84 81 72 71 68 66 63 65 67 69 67 67 62 58 50 39 34 35 33 30 30 31 32 26 24 27 31 36 35 35 34
88 88 84 91 95 92 96 95 94 92 89 88 81 72 70 73 69 67 66 72 73 71 69 63 55 54 44 38 36 34 33 32 32 33 37 34 28 31 35 35 38 40 40
85 94 95 95 97 98 96 91 93 91 84 78 72 71 72 72 67 65 72 76 76 74 67 59 53 50 43 39 37 35 35 38 39 41 42 43 42 39 37 38 38 39 40
72 85 94 97 95 95 93 92 89 87 74 68 71 72 66 65 64 76 76 77 75 70 61 56 51 49 45 41 37 38 41 44 45 46 47 48 51 49 49 46 43 41 40
58 63 68 77 85 84 85 83 77 74 62 66 64 63 58 63 77 75 78 81 77 67 58 56 51 50 46 43 40 44 48 51 51 49 49 51 50 47 48 43 42 38 35
52 50 54 55 65 74 73 63 59 60 60 63 67 70 81 85 81 80 81 79 69 60 54 51 49 50 53 49 45 46 52 56 55 53 55 56 51 51 50 52 47 44 43
57 55 52 53 54 59 61 64 64 61 60 63 64 68 74 81 82 78 71 64 57 55 57 54 51 60 61 57 54 56 58 57 60 62 61 60 58 56 54 54 51 51 49
58 56 58 56 55 58 63 59 61 59 59 61 65 70 73 78 80 76 69 76 68 67 68 66 63 66 66 65 59 62 67 69 66 65 66 65 63 64 62 58 54 55 55
55 56 54 57 58 60 64 64 66 67 66 70 70 70 65 83 84 91 91 91 86 83 76 76 74 74 75 70 66 68 75 77 81 79 67 67 71 69 66 62 57 58 59
48 50 51 53 58 61 64 68 71 71 69 71 71 69 68 70 83 89 93 98 97 90 82 84 87 84 83 77 72 75 79 85 87 82 85 79 71 66 67 62 62 61 56
46 46 48 51 56 59 62 64 68 70 71 74 76 77 70 70 80 82 83 92 98 97 94 94 94 90 88 81 78 80 82 90 89 87 83 78 75 71 68 65 63 59 47
46 51 53 55 56 60 64 68 68 75 72 74 77 79 71 68 68 78 88 90 97 96 98 97 96 91 88 86 90 87 89 94 91 86 83 79 72 72 71 65 57 48 41

GFSSE_prec_cthk_063.txt.gz
RH
69 86 88 80 68 61 58 60 59 59 56 52 42 32 25 22 22 22 20 20 25 28 26 24 21 18 17 18 20 21 22 22 17 14 16 17 17 17 19 20 22 24 26
70 76 85 88 76 71 62 60 61 60 56 53 40 31 28 26 26 26 23 26 26 25 24 20 19 20 19 22 23 25 26 25 24 22 18 24 27 22 20 20 20 21 21
62 66 75 97 87 77 72 67 69 65 61 54 39 32 32 31 33 29 30 28 27 27 23 20 20 21 23 25 28 30 32 32 27 26 21 23 24 26 25 24 22 27 25
57 50 51 65 97 91 85 78 73 73 68 55 39 36 36 39 37 34 31 30 29 28 28 25 25 25 26 28 33 31 30 30 28 26 20 21 23 24 24 21 19 21 23
56 44 50 72 94 88 88 87 82 78 71 55 42 40 41 42 39 38 34 30 29 30 31 30 29 28 29 31 33 32 31 29 29 24 18 18 18 18 15 14 14 15 17
55 50 60 92 80 91 88 80 81 85 71 52 41 41 45 43 42 41 39 35 35 36 36 34 32 30 32 35 34 31 31 29 22 17 17 15 14 14 13 13 11 11 11
70 67 76 85 81 82 86 86 81 82 68 52 45 44 48 48 47 42 42 40 42 42 39 37 35 32 35 35 36 33 31 32 26 19 19 15 14 15 14 12 11 11 11
84 80 95 97 93 87 96 94 91 86 67 54 49 48 50 52 50 46 44 45 47 47 41 37 37 34 35 40 39 35 35 32 28 22 20 16 14 13 12 12 11 12 13
79 87 87 95 98 98 99 98 95 80 68 58 54 53 57 54 53 48 48 51 51 53 48 46 45 38 36 37 37 39 36 30 28 26 20 18 15 15 14 13 13 13 13
73 77 82 80 80 86 95 97 97 89 74 63 58 58 63 59 56 55 52 54 58 59 57 51 44 41 43 38 36 35 35 33 29 27 22 19 16 15 14 13 14 16 14
70 71 71 71 77 78 79 89 91 86 61 63 61 68 66 67 60 57 58 62 66 69 60 51 47 45 42 41 37 40 36 33 31 26 20 17 17 16 15 15 16 19 20
65 64 65 71 78 82 86 82 85 83 72 70 73 75 75 68 64 61 65 69 68 67 65 65 56 49 46 44 39 40 34 33 29 24 21 19 19 18 17 16 17 18 18
59 56 62 65 70 77 83 76 77 78 72 80 86 81 79 70 67 69 68 70 71 72 70 61 61 54 49 46 46 35 30 29 26 23 22 19 19 20 21 21 21 21 22
59 58 57 64 68 75 78 80 81 77 73 76 75 73 71 74 74 72 72 67 72 73 70 68 61 61 57 51 43 34 28 27 25 26 26 23 23 24 25 26 27 28 27
61 66 70 70 70 86 80 83 80 82 80 74 71 72 79 79 75 73 70 66 71 75 73 63 68 65 57 40 35 32 30 27 28 29 32 31 30 28 33 34 32 30 30
61 75 78 82 80 78 83 75 80 77 78 80 76 79 82 81 78 74 69 66 73 74 68 71 69 59 48 38 31 31 31 31 29 31 35 36 35 34 33 35 35 34 34
66 76 82 81 82 79 80 82 84 81 83 83 84 85 86 81 78 72 67 70 74 71 73 76 71 54 45 45 34 30 33 34 33 35 38 40 39 38 40 40 42 40 37
68 80 84 81 81 79 79 83 88 87 88 85 88 87 82 79 73 70 71 69 70 74 80 78 68 55 47 41 38 35 34 37 42 44 44 44 44 46 46 48 45 44 42
60 70 79 86 84 82 83 85 84 87 89 88 90 86 78 72 71 72 70 69 70 78 80 72 60 53 47 45 42 43 46 42 44 46 50 49 47 48 49 46 46 45 47
51 57 63 73 79 81 81 82 83 80 79 76 75 76 75 72 67 64 65 68 74 78 80 69 56 56 55 53 57 54 52 52 52 54 56 58 53 54 54 54 54 55 53
43 45 46 51 59 61 65 68 64 61 63 66 69 69 68 68 70 67 62 72 79 83 69 62 60 62 67 72 72 67 64 64 65 64 64 66 66 67 67 62 58 56 53
37 41 42 43 42 44 45 47 49 50 51 53 54 55 61 66 72 73 80 81 82 81 79 75 73 72 79 86 82 85 76 76 73 74 72 70 74 73 71 67 63 60 55
36 34 32 35 38 41 44 47 52 58 56 54 52 55 55 58 60 69 78 86 88 89 85 85 86 87 89 92 95 90 90 86 82 83 80 79 79 75 75 73 69 63 61
32 32 32 34 36 42 45 45 47 49 52 50 49 52 56 56 57 59 65 77 85 80 83 85 85 86 90 90 97 95 89 90 92 89 86 88 84 80 80 79 70 65 63
33 32 34 36 37 38 40 44 48 47 45 44 50 56 61 62 59 60 64 70 77 80 78 78 87 91 91 98 94 96 94 97 97 94 91 91 85 86 82 77 73 72 66
41 39 38 38 40 40 44 50 57 62 63 66 69 67 68 76 79 82 78 75 76 80 83 87 91 93 95 95 94 95 95 98 98 93 89 91 92 94 85 78 78 72 71

GFSSE_prec_cthk_066.txt.gz
RH
75 76 79 78 78 77 75 70 66 63 59 54 43 34 29 24 23 22 19 19 23 28 28 26 23 19 17 18 19 18 17 17 18 19 18 21 17 18 20 20 24 25 27
77 79 80 76 74 84 75 74 74 70 68 57 39 33 29 26 26 24 24 26 27 25 23 20 18 19 20 22 22 23 23 22 19 22 26 26 26 23 19 20 21 26 26
74 78 75 79 76 91 89 78 77 77 72 55 37 32 32 30 29 30 30 28 27 25 23 21 22 23 24 26 27 28 26 22 20 19 21 25 28 24 21 26 28 28 27
72 72 73 76 70 76 95 88 80 78 70 51 40 37 36 36 33 34 31 30 27 25 25 25 27 27 27 29 27 28 25 24 24 20 18 19 21 23 22 19 22 25 23
66 65 65 67 70 59 65 95 85 84 73 53 46 43 40 37 37 35 34 31 27 26 28 31 33 33 30 30 28 27 27 24 24 17 16 16 16 18 15 14 17 21 21
63 58 61 59 63 68 77 80 92 92 75 55 48 49 44 39 37 38 36 36 34 33 35 34 36 34 33 33 31 30 29 20 18 17 14 14 15 16 13 12 12 18 20
59 60 61 69 75 76 80 98 95 87 76 57 53 52 45 42 41 41 41 42 40 39 38 38 37 36 35 36 36 33 27 23 19 17 16 15 15 15 15 14 15 17 15
64 78 77 82 95 99 98 94 92 84 83 67 56 54 48 44 44 44 47 47 44 42 40 40 40 40 37 40 41 40 31 26 21 19 17 17 18 17 16 16 16 16 15
66 82 83 96 84 94 93 98 96 83 66 56 60 57 51 48 46 49 52 51 46 45 43 39 42 44 46 44 45 38 31 28 24 21 18 18 19 17 18 16 16 14 13
68 77 91 89 94 91 87 98 98 92 66 61 63 64 58 51 52 54 57 52 49 49 48 50 48 48 49 41 39 37 33 30 26 22 20 19 17 15 14 14 15 16 16
71 76 81 85 87 76 79 93 89 94 72 68 69 71 62 55 56 60 59 56 55 55 52 56 50 50 52 46 41 38 35 32 28 24 22 19 16 15 16 17 18 17 17
70 72 71 68 73 78 79 85 86 93 90 79 76 76 65 57 60 60 63 61 60 60 60 55 54 56 51 46 46 38 37 33 29 27 23 19 17 16 17 19 20 20 20
68 68 65 64 65 69 72 82 88 79 84 84 80 79 71 63 64 66 67 64 65 70 66 63 63 54 51 46 44 43 36 31 28 25 21 19 19 20 21 21 23 25 25
58 53 60 60 62 72 79 86 83 76 79 74 78 83 78 72 69 68 67 72 73 71 65 66 65 59 52 48 46 44 33 29 26 24 24 25 25 25 25 26 28 29 27
53 59 63 69 70 69 76 86 82 80 68 71 77 84 80 77 73 67 72 70 71 72 68 67 65 64 56 48 45 36 33 29 26 27 30 32 32 31 30 31 34 33 32
56 66 76 76 84 78 82 82 78 78 72 78 77 75 78 79 75 72 74 69 70 69 70 66 66 63 57 45 38 32 32 29 29 31 34 36 37 37 37 36 35 36 36
62 76 84 83 85 92 94 88 89 78 76 79 81 76 79 80 78 75 70 66 67 70 69 66 70 65 53 46 38 31 30 31 34 37 39 41 40 42 43 43 42 39 39
64 74 83 88 90 90 88 89 89 85 80 78 79 76 75 81 80 76 69 68 69 73 71 73 73 67 53 45 42 37 33 33 37 41 43 45 47 49 48 50 46 47 48
59 70 82 88 88 88 88 89 90 92 87 83 77 75 78 83 80 74 71 70 70 69 70 78 74 64 51 46 44 42 43 48 44 44 48 52 53 55 58 56 58 57 55
57 63 75 86 89 86 85 85 89 90 82 83 81 82 82 78 76 69 71 67 63 68 74 78 75 56 50 49 49 52 57 57 56 57 59 58 62 64 68 65 65 65 63
48 54 61 73 78 78 74 75 79 77 80 83 82 77 75 73 72 69 64 63 66 72 72 73 66 59 60 64 67 67 70 72 73 69 69 69 69 72 76 74 72 71 66
40 43 46 51 57 58 57 60 68 68 70 71 69 67 72 73 73 71 68 66 62 69 76 77 73 68 73 75 76 82 82 82 79 79 82 84 79 79 80 77 73 70 66
34 35 38 40 41 43 46 48 52 54 56 52 54 56 61 62 65 69 70 78 77 80 81 78 82 84 84 84 86 85 85 81 86 82 86 86 88 87 80 75 73 67 67
28 28 32 35 37 39 40 42 44 44 47 49 51 58 55 56 59 62 64 69 77 78 78 79 81 80 83 88 88 87 95 94 91 86 89 94 93 88 80 74 73 73 71
29 29 31 36 37 37 37 39 42 43 41 44 49 51 53 55 55 54 57 57 63 69 71 81 85 86 89 91 91 95 93 93 91 88 92 94 92 84 75 74 72 64 63
36 33 32 34 35 36 36 40 45 48 49 50 50 53 55 58 63 65 66 67 65 69 78 80 82 80 82 87 96 90 97 90 90 88 89 91 87 77 72 71 66 66 67

GFSSE_prec_cthk_069.txt.gz
RH
75 76 75 66 85 72 72 69 64 64 67 55 52 52 45 39 35 33 28 20 25 34 34 32 28 23 17 17 18 20 20 18 20 21 20 23 21 20 23 25 28 29 31
69 68 70 66 68 68 70 72 74 74 65 59 57 50 43 38 32 28 23 22 28 30 28 25 21 19 19 18 17 17 17 20 26 26 27 27 27 23 22 25 30 32 32
70 71 72 74 73 73 77 72 74 75 69 65 60 44 38 36 31 27 28 31 28 25 23 22 21 21 23 24 22 21 18 18 21 24 25 27 27 28 27 28 28 28 27
73 73 71 69 73 75 79 77 84 84 81 68 50 40 39 38 35 33 32 30 27 25 24 23 24 25 27 28 27 25 22 19 20 21 20 25 28 28 28 27 25 24 23
74 74 76 75 79 76 77 70 67 87 88 72 46 42 44 42 39 37 33 32 29 28 28 25 29 29 30 31 29 25 22 21 19 18 19 20 21 24 24 23 23 22 20
68 69 76 80 90 95 90 79 71 80 91 70 44 47 46 44 41 38 35 31 30 32 33 30 33 34 32 31 30 23 19 19 17 18 16 16 16 19 21 22 19 20 18
68 66 68 78 87 90 92 94 81 82 88 71 48 52 48 45 42 40 36 35 35 38 38 36 36 37 35 33 32 28 24 26 22 18 15 15 17 19 18 17 18 19 18
73 76 71 72 79 80 80 84 95 92 92 73 47 48 52 47 41 41 39 41 42 42 42 39 39 38 38 34 34 35 35 31 23 18 17 15 17 18 19 18 15 15 15
72 72 81 91 94 92 91 79 96 99 94 74 60 55 49 47 44 43 43 46 45 47 46 43 42 42 40 37 40 45 42 30 20 21 18 17 18 18 16 14 14 15 15
79 78 83 88 82 80 91 88 98 99 96 82 74 70 56 49 46 46 48 49 47 49 46 44 44 48 50 45 44 40 35 26 23 20 18 18 18 19 16 16 15 14 14
81 79 82 86 87 83 94 82 97 97 97 91 76 57 47 49 50 51 52 55 53 48 45 47 48 51 51 50 50 41 34 31 25 22 21 21 20 19 17 18 16 17 17
73 75 75 75 75 78 78 77 90 89 94 87 76 62 55 54 55 56 59 61 56 48 50 49 52 55 53 54 51 42 38 33 31 26 24 24 20 18 20 19 20 20 20
63 65 63 63 64 66 67 81 87 92 91 93 89 65 60 57 56 63 65 62 56 54 52 60 59 53 54 53 47 45 40 35 32 28 25 23 20 21 22 22 23 24 23
57 56 53 56 60 63 67 78 91 93 94 93 89 74 63 65 70 71 68 64 63 66 67 68 58 57 53 51 49 47 40 34 31 29 27 26 26 26 26 26 26 25 26
46 51 53 58 64 68 70 73 85 86 89 88 92 86 74 75 76 74 71 69 68 71 70 69 64 57 55 49 48 46 40 32 30 28 29 31 32 32 31 31 30 29 30
43 49 60 73 74 78 72 73 86 90 91 88 92 88 83 81 79 76 72 70 72 74 69 70 69 63 56 51 47 43 39 33 29 29 31 33 34 35 37 38 36 36 34
50 57 70 80 85 83 81 79 92 88 85 86 87 86 83 80 80 76 74 75 72 74 72 68 65 65 59 49 43 37 34 32 30 31 34 37 37 38 40 43 43 41 41
53 61 75 83 86 93 88 93 93 90 94 90 88 85 84 82 81 76 74 75 72 73 71 68 69 69 64 52 44 39 32 30 31 33 37 40 42 44 45 46 48 51 52
51 60 75 86 93 93 89 97 93 93 89 85 84 85 86 86 82 79 77 76 69 71 73 70 73 74 70 54 44 41 40 38 40 43 43 47 49 50 53 57 60 60 59
48 58 73 83 90 94 91 85 91 93 93 95 89 88 87 87 84 82 81 76 70 68 70 72 80 79 71 55 51 50 49 53 56 59 59 59 63 62 63 64 67 66 65
48 52 68 87 90 93 93 94 97 93 93 91 90 90 86 86 85 83 79 73 73 69 69 74 85 84 72 58 61 67 69 68 66 71 74 73 76 77 73 72 74 75 70
43 44 50 66 74 77 80 85 86 88 92 91 89 87 84 82 80 78 77 76 70 66 71 80 83 78 73 70 73 74 71 72 73 77 79 78 76 79 82 81 78 81 74
36 36 41 47 54 56 59 65 72 80 85 86 82 78 78 76 77 77 76 72 69 65 70 77 84 83 81 81 79 76 76 76 80 80 83 82 81 81 81 85 82 79 74
29 32 36 42 48 49 52 54 58 63 69 68 71 73 74 74 78 80 78 78 79 73 78 85 87 86 83 84 82 85 83 82 84 79 82 83 78 78 80 83 78 70 65
26 26 32 38 41 44 45 47 52 58 61 63 67 63 61 64 69 68 68 67 69 74 79 82 83 83 87 88 88 88 86 89 81 86 86 81 78 78 82 75 73 70 64
30 27 30 36 40 40 42 44 48 50 52 55 56 56 57 60 62 60 57 58 59 66 69 71 77 81 81 79 79 79 79 86 79 73 77 78 75 76 77 74 71 64 64

GFSSE_prec_cthk_072.txt.gz
RH
69 71 70 66 62 69 65 69 64 62 66 68 67 62 63 54 43 38 33 25 29 36 38 37 31 29 27 26 24 25 23 25 28 29 29 28 28 28 29 31 32 37 35
74 76 69 68 65 68 65 65 65 61 65 69 70 60 54 46 44 39 36 28 34 35 34 29 24 19 20 19 18 16 18 22 24 26 26 26 26 27 28 31 32 33 31
74 74 72 75 73 71 72 68 61 62 65 70 64 57 50 46 46 40 36 32 33 33 31 25 22 21 18 17 16 17 18 20 23 26 29 28 29 28 30 33 30 28 28
74 83 82 81 76 72 73 70 67 65 64 66 60 59 55 42 44 38 36 35 34 30 27 29 25 27 24 21 18 18 19 19 19 20 25 28 28 28 26 26 24 23 19
68 81 82 81 81 73 74 76 76 71 69 69 69 53 56 39 39 39 39 36 30 28 34 31 28 29 29 26 23 20 19 19 18 20 21 27 28 27 25 22 22 20 18
66 73 77 86 83 80 78 79 84 86 69 67 72 54 56 35 41 44 41 36 32 29 31 32 34 33 31 25 21 20 20 20 20 20 19 20 25 24 23 22 19 18 16
60 71 73 84 87 89 90 95 88 91 82 70 65 67 59 36 44 50 47 39 34 34 35 35 37 36 33 29 25 22 22 21 19 20 19 22 24 23 22 19 18 17 15
57 60 66 72 70 74 80 81 95 97 92 83 78 57 41 49 47 49 50 40 37 40 40 41 42 41 38 32 29 25 24 24 29 27 23 22 24 22 17 16 14 14 13
65 65 61 68 78 81 84 88 85 87 90 87 80 56 54 46 44 48 43 44 44 45 47 46 45 44 42 40 35 30 30 35 34 25 21 20 18 17 19 17 14 13 13
69 68 69 70 73 73 76 80 81 86 97 93 86 75 57 58 48 46 47 48 46 51 49 48 49 47 44 40 40 40 35 39 29 24 20 20 22 24 21 16 13 14 15
69 75 76 76 75 77 71 75 74 84 98 96 86 70 60 53 46 50 49 51 50 53 52 51 52 49 47 45 47 46 40 38 29 23 22 23 23 23 19 17 16 17 17
66 69 76 78 74 72 76 66 80 97 98 97 94 82 67 65 63 52 51 54 53 55 54 53 52 52 52 54 50 51 50 39 32 30 23 23 23 22 21 19 20 20 20
68 68 71 70 68 67 69 74 93 98 99 98 96 86 74 69 58 53 51 52 56 62 58 55 54 55 58 54 50 53 46 41 35 28 26 25 25 24 22 21 22 23 22
64 64 62 58 58 59 60 67 85 99 96 96 94 83 69 60 56 56 55 52 60 62 59 60 62 68 60 55 54 52 48 41 36 33 32 30 30 29 26 24 25 25 25
52 58 56 52 52 57 61 66 88 97 97 95 88 72 66 63 68 67 63 60 66 64 63 62 69 65 61 57 52 52 49 42 36 34 33 33 31 29 31 31 29 28 27
52 48 52 59 64 68 67 69 82 94 96 94 89 73 73 78 76 76 75 75 72 70 69 71 69 65 61 55 53 50 47 40 33 30 30 31 32 32 34 35 35 35 33
45 51 63 72 77 75 76 73 80 98 97 96 90 81 77 80 86 82 83 84 81 80 78 76 71 65 61 55 51 47 42 38 33 30 31 33 35 35 37 41 41 42 42
48 58 63 78 82 86 81 73 84 97 99 97 91 86 86 89 84 90 89 86 85 84 80 76 73 68 63 62 50 43 40 36 33 32 33 36 39 41 43 45 48 52 52
50 54 68 79 84 87 93 90 93 96 96 96 92 90 93 88 90 90 88 86 83 82 83 77 75 70 69 70 57 49 42 37 37 39 38 38 44 49 51 53 56 60 63
45 52 70 83 91 96 97 98 98 97 96 98 93 93 89 91 91 90 87 86 82 81 82 79 77 78 77 75 61 52 48 48 48 48 51 60 63 61 66 68 67 66 69
41 46 70 87 92 94 95 89 96 96 97 96 97 93 92 92 91 88 86 87 85 78 80 79 78 84 86 83 70 61 59 64 68 69 68 69 72 76 81 82 79 79 77
39 39 56 76 87 93 95 94 93 94 99 97 97 95 92 93 92 90 88 86 84 78 76 77 79 84 86 88 70 65 68 71 67 72 74 77 81 81 85 86 85 84 81
35 36 42 52 64 72 78 85 91 96 97 96 95 93 92 92 92 92 89 86 81 78 74 73 77 84 83 83 74 73 74 78 75 76 81 85 82 82 84 81 82 83 83
29 33 34 41 45 49 53 62 73 81 89 91 93 91 91 90 89 88 89 85 75 73 76 73 72 79 83 85 83 81 81 82 82 80 88 79 83 89 82 80 75 79 76
26 26 32 36 39 42 45 52 60 63 68 74 77 80 81 82 80 81 77 79 74 74 78 78 80 87 91 90 86 89 92 91 88 86 86 87 75 81 78 72 68 74 70
29 26 30 34 36 39 42 44 48 51 57 62 63 66 69 70 74 75 75 77 78 80 80 81 85 86 85 81 86 87 83 82 77 80 73 83 64 68 73 71 70 67 64

GFSSE_prec_cthk_075.txt.gz
RH
47 52 58 63 62 60 66 66 66 64 67 70 72 68 62 56 53 45 35 28 32 48 45 40 31 28 33 32 33 32 31 31 30 27 29 29 32 32 31 33 32 34 33
61 68 66 64 59 61 66 67 69 68 68 70 72 72 68 55 54 42 37 33 38 50 44 39 30 27 27 26 27 27 26 24 25 25 26 28 33 34 33 32 31 30 28
67 70 65 61 61 67 69 66 70 69 66 63 74 70 64 57 47 39 38 33 37 42 41 34 27 26 23 23 21 21 22 23 23 22 27 29 33 32 30 30 28 27 25
64 74 70 65 66 67 65 69 68 69 65 64 68 74 61 55 45 42 37 33 37 39 33 25 24 24 23 23 23 23 21 21 20 21 26 30 29 28 26 25 23 21 18
66 73 85 78 69 85 72 74 68 66 65 65 67 67 62 59 48 41 38 37 39 37 30 31 31 27 25 22 24 22 21 19 19 24 27 30 30 27 24 20 19 19 18
60 72 80 72 76 86 78 76 85 73 70 67 67 66 58 62 48 38 38 40 40 35 37 38 33 33 30 26 23 22 21 20 20 27 29 30 30 28 23 21 19 18 15
68 83 71 72 76 72 72 76 73 78 87 86 76 68 61 61 49 36 41 47 41 42 44 40 38 34 29 28 26 24 22 22 24 27 29 30 29 25 23 21 18 14 12
60 62 88 74 78 75 73 76 77 90 94 83 91 70 58 56 59 37 42 45 39 36 40 43 41 35 32 30 29 28 25 24 24 31 33 30 30 24 22 17 15 12 11
63 66 76 85 83 85 83 86 85 86 97 92 90 77 67 62 61 46 46 42 40 41 44 45 43 38 37 35 33 30 29 27 27 34 39 32 26 22 17 16 14 12 12
66 75 81 85 81 80 81 84 80 80 88 98 91 85 72 71 60 43 42 43 43 45 46 48 47 46 43 40 38 32 33 32 29 38 37 30 23 23 18 17 15 14 15
67 72 81 88 89 90 85 81 80 78 76 89 98 86 78 60 56 57 43 47 48 48 50 52 52 50 48 45 43 33 36 42 33 39 37 25 24 20 19 18 17 16 17
65 68 73 85 85 87 83 80 74 72 83 94 97 94 69 64 62 53 47 52 52 54 54 57 54 52 52 44 46 45 46 43 40 38 31 26 22 22 21 21 21 19 19
59 63 70 76 82 82 75 69 72 80 94 99 99 88 76 75 73 60 52 54 56 57 58 57 59 54 50 51 53 52 50 49 45 36 26 25 23 23 24 25 24 21 21
61 60 65 64 67 67 66 67 67 85 99 99 97 93 80 70 65 62 56 58 60 57 58 61 58 58 57 62 60 54 52 50 42 38 34 28 28 29 30 28 25 24 24
53 51 55 58 52 57 61 65 69 95 99 97 98 87 76 67 65 69 67 66 61 59 59 65 65 65 62 64 58 56 54 50 47 41 37 34 32 35 35 32 29 27 27
53 49 49 52 47 54 61 70 74 94 99 97 92 87 77 72 76 69 67 65 63 67 66 70 68 68 66 63 61 57 54 51 48 41 37 36 37 37 36 34 33 34 35
47 44 48 58 63 67 73 75 79 92 95 96 93 91 88 79 78 77 72 71 73 72 72 75 72 68 65 62 58 55 54 52 47 39 36 34 33 35 35 36 38 40 41
47 50 54 59 71 79 79 84 84 92 98 96 90 84 80 79 79 74 79 84 83 81 79 81 74 73 66 61 57 52 49 48 43 39 36 35 36 37 39 42 43 47 50
47 50 57 68 82 86 87 83 86 87 94 92 89 82 81 81 80 82 86 84 84 85 88 86 82 78 71 66 65 55 47 45 43 43 41 39 41 44 46 49 54 59 60
43 46 59 74 83 94 93 86 88 93 97 95 89 86 83 86 90 90 86 88 91 92 93 87 85 84 79 76 75 69 59 55 53 51 51 51 54 62 68 70 69 74 75
41 44 62 81 86 95 94 93 95 99 98 95 92 84 87 91 93 91 90 94 92 89 92 89 87 86 86 86 86 75 64 60 63 65 63 63 66 73 74 75 81 83 82
39 41 58 80 90 91 94 92 94 95 98 97 96 90 87 90 92 92 92 91 88 87 88 89 89 88 88 89 90 84 75 72 75 71 72 71 73 80 76 79 84 84 83
33 36 46 59 73 79 85 91 92 91 94 97 96 89 88 93 93 94 90 89 88 86 85 83 82 82 86 91 93 92 82 73 74 82 81 80 85 85 84 82 84 84 81
29 29 37 45 50 56 62 72 80 88 87 90 95 92 95 95 93 93 91 89 88 86 85 83 79 77 82 86 88 90 88 79 80 82 82 82 90 91 88 84 90 91 77
27 25 31 39 42 46 51 58 64 80 89 94 97 96 95 96 94 92 91 91 91 90 86 79 77 78 81 85 92 94 88 81 80 83 85 88 84 82 80 95 79 78 77
29 26 29 34 38 41 45 49 57 63 73 81 83 84 82 82 82 84 85 84 87 86 83 82 80 84 83 84 92 92 86 84 84 86 86 81 85 79 65 64 67 74 75

GFSSE_prec_cthk_078.txt.gz
RH
45 49 45 50 57 57 58 58 70 71 72 67 71 68 66 63 53 47 33 24 25 32 36 31 30 32 31 39 38 38 38 36 35 35 33 30 31 32 32 36 38 38 39
46 57 56 56 60 57 58 59 66 72 70 71 73 72 70 68 58 47 34 26 34 54 44 34 31 33 34 36 32 33 32 33 30 29 32 32 32 34 36 36 36 36 35
51 67 63 56 57 61 63 67 65 67 71 72 74 77 74 68 61 51 41 34 44 67 47 37 27 29 30 30 30 29 31 29 28 30 35 37 35 36 35 35 32 31 28
45 57 68 61 59 60 63 66 69 69 73 70 70 71 79 74 61 51 39 37 40 57 46 33 27 27 25 26 25 23 23 26 27 32 39 36 34 34 34 32 27 24 21
46 57 65 67 62 68 77 83 72 70 71 72 70 68 72 72 61 53 41 39 40 45 41 31 25 23 24 25 24 22 25 26 29 42 39 34 29 30 26 24 19 16 15
49 59 74 76 74 78 66 67 93 87 76 70 71 69 69 72 68 62 42 40 41 42 35 25 25 26 28 26 26 25 27 27 35 38 31 27 28 24 20 17 14 12 11
55 65 66 74 87 82 79 76 94 97 89 85 76 74 72 68 64 62 48 35 40 41 31 27 29 30 30 30 29 26 27 29 37 34 29 27 25 20 19 15 12 11 10
53 62 69 70 82 90 93 79 94 90 84 87 93 87 79 70 62 69 53 37 41 43 33 34 34 33 32 30 28 27 27 30 36 31 29 25 27 24 19 14 12 12 11
52 63 73 80 69 82 88 76 84 86 85 88 83 96 90 79 66 78 60 46 44 49 40 36 32 31 32 32 31 30 29 36 40 33 33 27 36 26 17 15 15 13 12
55 65 70 79 83 84 83 83 84 82 87 86 86 89 90 89 70 74 76 56 41 41 44 38 33 35 36 34 35 35 33 36 43 41 31 34 39 30 20 18 15 15 15
59 64 69 76 87 87 84 86 88 88 85 84 92 93 96 87 81 70 71 55 41 44 46 40 39 39 39 39 39 41 42 44 45 50 37 35 37 26 20 18 18 17 16
59 60 66 69 80 86 85 85 90 84 83 85 93 96 98 89 81 81 75 54 44 48 49 46 44 43 44 43 46 45 53 46 55 54 44 34 31 23 21 21 20 19 19
55 58 60 61 66 81 88 89 82 83 83 85 97 98 95 93 88 83 64 52 50 52 53 50 48 50 50 53 51 49 55 55 58 54 49 42 33 25 23 23 22 23 23
58 61 59 63 65 67 76 78 75 75 76 84 98 98 98 96 85 75 67 61 57 55 56 53 54 55 55 57 55 56 61 58 59 55 43 37 30 29 28 27 28 27 25
51 52 54 58 62 64 66 67 65 69 71 86 99 95 94 86 76 70 67 66 65 61 59 60 59 60 59 61 62 63 60 57 58 60 48 41 36 38 36 33 34 31 29
47 46 51 48 47 49 55 58 58 62 68 97 98 95 91 87 82 79 74 67 64 65 64 63 65 66 64 64 65 62 60 61 60 58 52 47 43 41 43 45 40 37 36
44 44 44 45 45 51 57 63 66 70 80 93 97 95 93 90 89 81 76 71 70 70 68 68 68 68 68 69 67 62 63 62 59 56 52 48 43 43 44 39 37 39 40
44 42 43 47 52 60 62 70 70 77 85 94 96 93 90 87 80 78 77 75 77 75 72 71 75 73 73 67 65 62 61 60 59 55 53 46 43 43 39 42 44 44 44
42 42 42 47 54 65 77 77 83 83 88 94 93 90 85 82 81 78 75 76 82 82 80 77 74 73 72 67 64 62 57 54 53 52 48 43 45 50 53 56 53 51 55
42 41 44 52 67 79 79 82 80 81 91 94 93 93 90 90 91 89 86 84 82 79 80 83 81 78 74 71 67 68 61 54 53 56 57 55 57 56 64 62 64 69 70
38 38 41 63 76 82 87 79 84 85 89 92 94 92 92 88 88 82 82 85 84 83 86 87 86 84 82 77 77 76 71 65 63 65 65 65 65 66 65 67 74 76 77
37 33 42 63 81 85 89 89 92 92 96 96 91 85 83 81 82 85 89 88 90 84 84 89 89 87 90 87 87 90 86 78 72 70 71 73 74 72 73 74 73 75 77
33 32 40 50 68 81 87 89 93 96 95 94 88 84 84 85 91 91 92 90 88 84 89 89 89 88 89 92 92 93 92 87 82 86 79 81 85 80 80 80 78 79 80
31 27 33 42 50 56 63 71 80 91 94 89 90 87 90 91 92 93 94 92 87 89 86 87 88 87 87 87 89 91 92 92 92 92 80 78 84 81 82 83 82 81 81
31 22 29 36 43 48 53 58 64 77 89 87 86 88 88 91 93 94 90 91 88 87 86 86 86 83 81 80 79 83 86 91 96 91 80 81 79 79 83 86 85 74 65
32 26 32 35 39 44 47 51 58 66 76 89 92 87 89 88 90 92 92 91 90 90 88 85 85 80 80 80 86 86 81 87 94 92 84 83 88 92 92 93 88 72 65

GFSSE_prec_cthk_081.txt.gz
RH
40 36 37 43 46 48 49 52 55 55 62 68 70 67 64 63 58 52 38 30 26 25 25 27 27 29 28 28 28 31 35 36 38 38 36 38 36 39 42 40 37 35 32
38 42 45 48 51 53 55 56 58 58 62 71 70 72 68 66 62 54 43 29 30 33 37 34 33 33 35 34 34 35 33 33 36 33 34 34 36 34 34 36 36 34 31
33 44 54 60 59 57 58 56 56 62 63 68 72 77 75 70 65 56 47 34 33 54 40 29 32 33 35 32 30 30 32 32 32 35 40 36 33 34 35 33 32 30 27
34 41 55 60 58 57 55 58 62 66 62 69 78 80 80 77 70 64 47 40 40 70 55 31 32 34 34 29 27 31 31 30 32 38 38 35 35 35 33 28 27 25 23
36 39 43 50 59 62 64 62 66 74 71 73 76 80 76 81 75 71 54 55 44 73 63 33 27 29 28 27 29 28 28 32 38 42 37 34 34 34 30 25 23 20 17
36 42 42 52 61 71 68 83 80 82 93 83 80 79 75 77 81 75 61 48 42 53 48 28 23 26 26 26 27 27 30 37 44 39 39 36 32 28 22 21 18 16 14
35 41 45 50 62 64 75 92 95 94 82 96 77 76 76 74 72 68 65 48 48 40 36 26 25 25 27 28 27 29 31 37 43 38 38 32 28 22 18 17 15 13 11
37 38 46 60 71 71 74 83 89 91 82 98 88 88 81 79 69 73 68 52 48 42 32 29 30 29 31 30 31 32 36 40 39 37 36 30 24 20 21 16 15 12 11
40 39 44 59 74 81 78 82 88 90 86 97 91 88 91 91 78 59 80 57 48 43 32 31 34 32 31 30 31 35 38 41 40 40 36 31 22 18 28 18 14 13 13
43 44 48 60 75 76 76 79 87 91 91 98 87 88 77 98 85 65 79 67 54 44 41 38 33 33 31 32 33 36 39 44 44 42 46 34 27 25 31 19 15 15 16
41 46 50 58 65 79 85 79 92 94 90 98 95 87 84 92 96 81 81 77 66 52 44 33 33 35 34 35 36 40 46 55 50 50 42 36 35 29 29 21 18 19 18
43 46 51 56 62 69 79 79 81 88 90 88 92 88 91 95 96 88 84 84 74 60 43 36 35 38 38 39 42 49 56 60 57 47 42 45 40 38 32 24 21 20 18
45 47 49 54 56 59 69 82 85 83 84 89 87 86 93 97 96 93 91 87 72 60 45 40 38 43 46 46 48 55 57 60 62 50 47 46 43 38 33 26 22 22 20
53 49 52 55 56 58 58 71 78 78 78 78 80 87 94 93 97 95 89 86 72 62 49 45 44 55 52 52 56 58 59 65 66 55 49 52 46 38 35 28 25 24 23
56 55 52 55 60 61 60 62 67 69 68 67 72 76 84 98 95 92 91 89 74 65 57 50 57 58 60 57 59 63 65 71 70 57 51 47 41 37 33 27 29 30 29
47 48 49 50 52 56 53 54 57 62 62 61 61 71 86 86 97 94 90 90 74 67 63 59 64 61 63 65 65 69 67 68 70 61 54 46 45 42 38 36 38 40 40
42 47 48 46 45 45 47 47 50 53 53 54 63 69 87 95 97 94 93 85 77 72 69 68 67 62 67 67 66 70 71 70 67 64 56 52 47 47 46 43 44 44 44
44 45 47 46 45 48 52 54 56 56 56 61 70 84 97 95 94 88 93 92 86 81 76 72 71 69 70 71 73 74 72 71 66 65 61 56 50 49 44 45 45 40 46
42 43 45 44 41 48 56 59 69 68 70 77 82 91 94 95 90 87 92 87 78 75 73 77 77 79 78 74 77 72 70 68 63 64 62 59 57 53 51 48 49 54 53
42 40 44 42 50 66 73 75 77 82 83 86 87 93 93 95 94 92 91 89 81 78 80 82 83 83 82 80 76 70 67 64 63 62 61 58 60 56 58 59 58 62 63
38 37 37 43 61 74 81 78 81 83 82 89 89 92 94 94 92 94 93 91 84 86 86 83 82 83 83 78 75 70 68 64 61 63 65 64 64 64 66 68 69 69 63
33 36 32 44 63 80 82 82 79 86 83 81 87 92 94 93 93 92 90 86 85 88 87 86 87 86 86 81 78 75 76 77 70 68 68 71 73 73 70 72 73 71 66
29 32 30 39 54 70 82 83 86 89 91 91 90 93 92 89 89 88 86 83 84 89 89 89 90 90 92 85 82 83 90 90 88 81 78 72 73 71 76 79 74 71 69
28 27 27 34 45 50 57 69 74 81 86 90 91 93 91 92 92 92 89 88 88 90 92 89 90 90 90 86 87 89 91 94 89 90 87 82 82 78 84 81 76 70 69
34 27 23 28 39 46 51 55 60 67 73 84 86 92 89 90 90 88 81 85 90 91 90 89 87 87 86 88 88 86 89 89 86 87 89 91 88 81 77 74 73 73 75
40 29 26 29 34 40 45 49 53 60 67 73 86 84 82 78 84 85 84 91 92 92 90 88 88 88 86 84 84 85 85 84 82 84 86 88 92 95 91 85 84 87 80

GFSSE_prec_cthk_084.txt.gz
RH
46 36 29 31 36 43 44 50 48 48 49 53 56 59 58 53 46 46 39 32 27 26 27 23 23 24 24 23 26 29 28 31 30 33 34 37 35 34 35 33 30 27 25
39 36 30 34 41 47 51 50 50 52 53 56 61 63 66 64 55 51 42 38 30 29 26 26 28 25 26 25 28 32 35 34 35 34 36 37 39 38 36 35 31 27 23
43 33 28 38 45 51 54 57 59 57 56 57 62 68 75 74 64 55 47 38 35 36 33 34 31 31 32 33 37 37 35 35 32 32 33 34 36 36 37 35 32 25 22
28 28 27 41 54 56 58 61 63 64 65 63 66 71 76 78 72 61 50 40 45 48 40 30 29 31 32 35 34 36 35 33 34 35 36 34 35 38 35 32 28 24 21
26 29 31 35 46 53 58 61 64 63 67 76 71 81 79 81 78 69 56 46 52 60 53 30 28 32 30 34 38 39 35 33 36 35 34 35 36 35 30 28 26 23 19
24 29 33 35 41 48 60 67 74 75 74 80 79 86 84 80 77 77 70 60 62 65 72 32 26 33 32 36 34 34 34 37 37 36 33 35 34 33 27 24 24 19 17
32 31 32 37 41 49 58 71 82 82 98 97 98 91 83 79 73 77 74 65 69 67 68 42 31 29 28 29 34 37 38 40 47 39 32 33 32 29 23 20 18 18 14
34 36 39 39 41 48 57 70 79 79 71 90 91 99 89 80 74 77 82 70 66 60 49 33 26 25 26 29 36 38 40 43 42 38 31 31 31 27 22 22 18 16 12
36 40 42 42 43 53 63 76 77 79 79 83 88 88 94 83 78 72 77 72 66 49 42 30 27 30 31 33 38 40 42 47 43 38 32 33 32 29 24 24 23 16 13
36 45 47 46 49 53 64 73 78 75 79 85 89 93 98 95 92 81 74 71 59 51 39 35 32 30 34 36 38 39 43 46 45 41 33 35 33 32 25 24 23 19 17
36 41 41 46 47 55 61 69 77 79 84 85 95 98 97 84 90 94 73 71 74 54 41 37 34 39 31 36 37 39 46 52 47 38 33 38 38 35 28 26 25 23 19
33 38 42 44 49 52 57 65 72 75 87 88 85 98 98 89 91 93 91 75 72 55 44 39 40 39 32 36 41 48 53 56 50 43 36 41 40 37 28 28 27 26 20
36 43 43 46 47 52 53 56 72 79 79 87 83 84 94 96 93 95 95 91 80 68 46 39 39 38 34 41 48 54 55 58 52 46 42 40 39 38 33 30 28 27 21
37 44 49 46 49 50 51 53 61 78 84 85 86 90 90 89 95 95 94 96 88 66 52 42 43 41 37 44 52 54 62 60 53 47 45 41 43 42 35 31 31 29 26
34 38 47 48 50 54 55 53 55 60 74 81 83 82 80 81 89 91 93 97 92 73 59 51 55 47 41 49 56 60 65 64 59 48 48 48 47 45 41 35 32 30 26
37 36 37 42 43 48 55 58 57 56 63 68 72 72 74 74 80 97 98 96 89 75 64 59 58 56 51 54 55 61 69 67 64 51 49 48 48 43 39 37 34 30 29
38 38 37 38 42 45 43 42 45 49 53 61 64 65 66 66 74 88 98 94 87 75 68 68 65 62 60 59 59 65 68 67 63 59 53 50 50 46 42 39 38 36 38
36 43 38 36 40 41 41 41 43 45 51 55 58 62 61 66 78 86 93 92 91 86 76 73 67 66 65 65 68 67 68 75 71 64 58 53 51 48 47 45 43 41 39
37 40 37 34 36 38 41 45 46 47 50 53 55 59 63 83 94 95 95 92 98 84 81 79 72 68 69 70 69 70 70 75 75 69 62 59 54 48 46 44 43 43 47
35 38 36 34 35 45 58 60 62 67 64 66 68 70 77 93 98 97 97 97 97 88 81 79 75 76 76 77 77 75 78 76 70 70 72 63 60 54 55 53 51 51 53
37 36 33 32 35 49 67 66 67 72 73 74 75 81 90 95 98 97 94 95 95 92 82 80 81 82 82 81 85 85 82 79 72 67 63 62 68 64 61 57 60 61 64
37 32 32 29 36 46 68 71 73 73 75 79 81 91 93 93 92 93 94 93 94 96 91 81 82 85 84 82 83 80 75 74 71 69 67 69 71 71 68 66 71 73 70
34 29 28 28 34 43 52 64 75 79 82 85 86 95 94 94 95 95 90 92 92 89 83 79 83 81 82 83 81 77 80 77 77 80 76 75 72 73 75 77 74 73 74
39 32 28 26 33 40 44 49 54 63 73 82 87 92 93 92 89 89 88 88 84 81 79 81 83 83 84 85 83 82 83 87 93 92 87 83 81 79 76 71 77 80 75
42 39 29 27 33 37 39 42 46 53 57 69 78 84 89 89 87 87 87 85 84 80 79 82 84 88 91 89 89 88 90 92 90 93 89 87 89 79 84 80 77 75 77
42 40 30 27 33 37 38 39 44 47 52 56 71 80 84 86 86 84 85 81 76 80 90 85 90 92 92 89 92 91 90 89 88 86 83 80 82 83 87 87 84 85 80

GFSSE_prec_cthk_087.txt.gz
RH
40 40 40 37 31 29 39 42 47 49 49 51 52 52 53 46 38 35 37 42 37 31 26 22 24 27 28 29 29 33 44 40 29 27 30 32 33 28 28 27 28 28 28
36 39 36 40 35 32 41 51 53 51 49 53 55 56 57 55 49 39 31 33 33 29 27 25 25 29 27 26 29 35 31 31 35 34 36 35 34 34 31 30 28 30 29
37 37 34 34 33 37 47 52 57 53 55 57 60 63 61 63 61 50 37 33 36 33 27 28 26 26 25 28 30 34 35 38 37 38 36 36 34 35 34 30 24 24 26
27 22 23 25 33 45 51 59 60 62 65 64 64 64 66 64 71 64 50 41 44 48 39 37 32 30 29 34 38 40 37 36 35 36 35 36 34 36 35 29 25 24 22
27 19 23 27 28 42 57 60 62 64 66 70 71 72 69 66 71 66 58 50 58 57 40 37 35 35 37 38 37 37 34 33 37 39 38 34 36 36 33 29 25 20 18
24 29 31 29 29 32 41 51 58 67 70 79 86 89 82 75 74 69 64 60 63 63 48 37 33 36 34 33 35 36 40 36 38 39 37 36 36 33 28 23 20 18 18
26 30 32 33 35 36 37 42 50 65 76 79 83 86 98 83 82 76 77 68 70 74 64 41 37 35 32 33 36 39 39 31 34 34 36 36 34 32 26 21 18 18 20
27 29 32 36 38 39 39 43 55 62 76 78 86 91 96 97 89 80 75 73 76 71 70 57 37 34 35 36 37 39 39 35 35 34 33 34 34 31 24 20 18 18 18
29 30 32 37 41 43 43 45 56 71 78 83 82 82 82 98 93 79 76 78 75 75 64 58 42 43 38 35 37 42 39 38 36 31 30 35 32 29 24 21 22 21 19
29 30 37 40 45 43 47 51 59 72 82 83 84 83 86 95 97 85 78 83 80 71 62 51 48 34 35 39 48 42 43 41 35 33 33 35 33 31 26 22 21 21 21
33 30 32 38 42 44 48 51 62 73 80 83 87 85 86 88 99 95 83 77 74 71 58 44 36 30 41 48 50 44 44 40 38 34 36 37 37 35 29 26 25 23 23
30 30 31 41 41 45 48 51 54 69 76 81 86 92 93 94 94 92 92 85 67 64 46 39 38 41 43 46 47 45 44 41 40 37 34 39 38 35 32 29 26 26 25
29 29 32 41 44 46 49 51 50 61 73 81 89 91 97 98 98 92 89 90 81 65 52 47 44 40 38 41 50 49 47 46 45 42 37 42 37 39 37 33 28 28 26
31 29 30 41 48 48 47 50 52 54 73 80 85 89 86 94 94 90 88 92 84 71 59 46 39 38 38 50 53 53 49 50 50 46 40 42 43 43 38 34 31 28 27
30 28 27 33 44 48 50 55 52 50 58 75 83 83 86 87 85 88 89 87 87 72 56 46 41 39 45 54 58 52 53 52 54 48 42 44 45 43 42 35 32 30 30
31 28 31 30 35 42 49 52 55 56 55 59 72 82 84 81 77 77 82 88 88 82 64 50 43 43 53 55 61 55 55 55 57 52 45 47 45 43 42 39 38 34 33
34 28 31 34 33 37 42 43 44 47 55 56 61 67 75 74 77 77 75 87 87 83 62 56 51 51 61 63 62 56 57 63 60 54 46 47 49 45 44 39 37 35 35
35 29 33 35 37 35 37 37 40 42 46 51 60 67 70 70 70 72 70 87 90 81 67 67 64 60 62 59 67 63 63 65 62 56 50 52 51 49 47 43 41 39 39
37 32 33 36 37 34 37 46 49 48 44 45 48 58 65 69 70 74 83 85 86 83 81 77 73 68 67 62 68 69 66 65 66 62 59 57 55 53 50 47 46 44 43
37 37 34 33 34 30 42 57 58 57 57 54 52 53 57 62 66 80 89 92 89 83 85 82 80 75 68 67 70 74 73 70 71 69 68 64 59 55 51 48 46 47 50
37 38 34 31 32 29 42 61 63 62 65 62 61 64 63 68 80 89 96 97 92 89 87 84 79 75 74 80 79 79 78 76 79 76 72 69 63 59 59 58 59 58 58
36 38 29 29 29 31 38 56 66 63 64 66 66 72 79 80 92 98 96 94 94 94 89 87 82 81 81 82 79 80 85 84 83 81 79 69 63 64 65 65 65 64 67
35 35 29 26 25 31 38 44 58 66 72 70 68 74 83 91 93 97 97 97 98 96 93 86 82 78 81 80 83 82 82 80 80 80 74 70 71 70 69 66 68 67 70
35 38 34 26 22 29 37 41 44 46 57 69 75 79 87 95 94 95 95 95 94 96 97 91 83 78 80 82 83 84 84 74 75 76 76 79 80 73 69 72 70 72 73
34 37 34 30 23 29 36 39 41 45 51 58 70 81 88 94 95 97 96 96 94 93 92 88 81 81 82 82 83 84 82 79 83 82 80 82 82 79 80 76 79 80 75
35 36 36 32 24 30 35 38 41 44 47 53 62 75 88 92 94 92 89 88 88 87 88 84 81 82 83 84 86 86 84 85 89 87 90 86 87 83 84 88 84 88 88

GFSSE_prec_cthk_093.txt.gz
RH
30 29 31 35 37 38 39 37 37 35 34 37 39 40 42 45 49 48 46 45 46 52 52 38 40 40 42 48 53 60 62 54 53 48 49 47 53 51 42 41 36 33 31
30 32 34 36 36 36 38 37 37 37 42 44 43 43 45 46 45 47 43 43 47 46 47 43 40 41 44 50 58 59 61 60 39 45 45 42 43 41 35 33 32 29 29
28 28 30 31 32 33 33 34 35 39 45 50 49 49 48 47 46 44 43 44 41 35 37 42 41 42 40 39 43 43 44 45 34 33 34 33 37 32 30 30 29 28 30
21 22 22 24 24 26 32 36 38 42 49 53 54 55 54 54 56 55 50 44 38 33 35 40 40 38 35 34 33 33 37 31 33 33 33 32 33 32 29 29 28 29 31
23 21 19 19 24 29 36 40 44 48 54 54 66 57 58 59 61 61 56 49 40 37 34 33 39 41 40 36 34 33 30 34 36 35 36 34 31 30 29 28 29 30 30
23 21 22 24 26 30 36 41 54 56 54 59 60 60 63 63 62 61 59 54 45 45 38 35 39 42 39 35 33 31 31 35 34 35 36 34 34 34 27 25 27 27 28
22 23 23 23 26 28 33 40 43 55 71 63 81 81 65 67 71 67 70 69 60 51 53 50 43 47 36 35 40 36 34 33 34 37 34 37 34 33 27 24 24 22 21
25 25 24 24 27 28 32 38 43 46 48 54 60 63 71 90 89 86 86 79 75 62 66 67 56 57 45 42 41 36 32 32 37 35 37 34 31 29 27 25 23 19 17
26 25 25 26 27 29 32 38 46 48 49 49 61 72 82 91 87 96 90 86 88 76 71 70 63 64 46 42 39 38 31 30 34 40 37 37 34 31 27 23 21 18 16
29 30 29 26 24 27 32 41 47 50 58 64 66 76 85 90 87 84 88 89 95 92 76 75 71 54 42 40 38 34 32 36 36 39 37 35 38 31 29 26 23 23 21
30 30 32 27 22 22 31 41 48 54 55 58 65 77 81 90 91 89 86 88 98 97 87 73 63 53 43 37 33 36 38 40 42 32 34 39 37 34 33 29 25 25 22
30 31 31 27 23 24 36 41 47 49 52 56 60 78 85 87 88 94 92 89 89 98 94 88 67 60 50 44 39 41 40 42 39 43 38 37 36 38 34 30 30 26 24
32 32 31 27 23 26 37 42 45 50 53 57 57 69 87 91 95 96 93 90 93 98 93 83 70 63 58 50 46 45 45 45 48 35 35 37 42 40 36 34 35 31 27
32 31 31 27 22 26 38 44 48 51 52 54 54 67 91 96 98 97 94 92 95 97 87 82 74 64 66 63 52 50 50 54 43 38 38 41 41 42 42 43 41 37 30
34 31 30 28 21 24 34 42 46 49 50 52 55 67 93 99 98 98 94 94 96 94 83 82 70 59 64 67 63 57 48 51 53 40 39 41 43 44 44 43 42 34 32
35 32 29 29 24 23 29 34 42 47 51 54 55 62 85 88 94 98 96 93 94 90 82 78 69 63 59 64 59 46 46 53 53 51 39 39 40 43 46 46 42 36 33
35 35 28 28 27 24 29 33 35 40 46 52 58 64 71 81 85 89 89 94 94 91 80 74 70 65 60 58 51 47 53 51 58 59 40 39 39 45 47 48 45 41 38
40 39 30 30 29 26 28 31 34 35 38 45 53 63 67 75 80 88 91 90 83 87 79 66 62 59 57 56 58 54 54 53 58 66 48 41 42 43 43 46 45 45 42
40 40 31 33 34 32 27 30 30 31 44 54 51 58 68 72 77 82 83 84 76 82 81 78 74 74 71 70 64 56 59 58 62 66 54 44 47 46 46 48 48 48 47
40 42 36 34 37 35 29 27 27 37 58 63 62 62 60 73 75 78 87 84 80 77 65 72 70 71 69 66 63 61 62 60 63 65 60 54 53 52 49 52 53 53 50
39 43 41 36 38 32 26 24 28 36 57 61 60 61 67 64 73 84 75 75 98 94 72 71 67 66 68 69 69 71 69 70 69 70 62 62 63 59 57 59 62 59 54
37 40 42 40 37 31 25 23 27 33 53 60 60 59 58 63 82 74 79 98 87 82 80 83 73 69 70 74 74 75 77 78 78 78 76 68 64 66 69 71 64 62 55
37 38 40 40 39 34 26 23 28 33 42 51 63 60 57 56 56 64 95 83 84 80 91 85 80 79 77 82 75 73 78 86 84 78 81 75 75 74 79 71 73 64 63
36 38 41 42 40 37 27 23 26 31 34 38 50 60 65 64 63 68 82 91 99 78 88 85 83 81 81 77 81 83 78 80 79 75 80 79 80 82 77 80 70 71 74
37 38 42 42 41 39 29 23 25 30 34 37 42 49 57 67 74 81 86 94 90 94 96 92 87 85 82 80 81 89 89 84 79 80 81 86 86 84 82 72 77 81 85
40 41 42 42 40 39 30 22 25 30 32 36 41 48 56 64 77 87 94 95 96 98 96 95 94 90 93 93 90 89 86 79 80 83 85 87 84 82 79 75 80 84 83

GFSSE_prec_cthk_096.txt.gz
RH
29 28 29 30 32 33 32 33 34 33 35 38 41 48 52 51 51 47 46 45 42 42 43 41 41 43 46 47 44 43 43 48 53 53 53 46 51 54 47 46 38 35 35
27 27 29 32 33 32 31 31 30 32 33 34 40 44 46 50 48 49 47 46 45 43 46 49 42 44 46 47 51 60 60 57 56 57 63 53 53 47 40 38 32 29 30
28 25 26 28 29 29 29 28 29 31 35 36 41 44 48 52 54 49 47 45 47 48 44 43 46 44 48 50 57 63 64 63 45 51 48 43 41 39 34 33 31 31 30
23 23 23 22 22 25 26 30 32 34 39 43 45 51 50 56 53 51 48 46 47 44 42 38 44 47 49 48 49 50 51 47 42 38 35 34 35 33 30 34 30 29 29
23 23 22 22 23 26 31 34 37 40 44 48 49 51 56 59 61 56 55 53 47 39 39 39 43 48 49 41 37 35 36 38 30 30 29 28 30 31 32 29 28 30 30
24 22 23 23 25 30 33 35 40 47 50 55 50 68 58 71 65 64 61 58 55 55 42 44 44 43 46 38 34 37 32 30 30 30 29 29 29 27 27 33 33 33 31
25 24 23 23 24 29 33 35 38 46 51 52 77 75 67 93 94 79 67 68 67 68 59 42 44 43 43 45 35 34 30 33 32 30 28 30 30 26 22 29 30 30 31
25 24 25 24 26 27 29 33 37 43 49 50 56 68 70 64 68 92 75 86 86 78 71 67 53 46 45 46 35 38 41 34 32 31 30 31 30 33 28 26 28 27 25
26 25 27 28 27 26 28 33 38 41 47 47 51 58 60 61 69 76 81 83 87 96 86 67 63 55 48 42 43 42 44 36 32 32 32 35 40 23 25 24 25 25 22
28 29 29 28 28 26 27 31 37 44 47 53 63 61 58 66 81 87 88 84 86 93 94 79 69 68 60 51 51 55 34 36 33 33 33 46 33 29 31 25 26 28 21
30 28 29 30 26 24 23 28 36 45 50 58 63 63 66 69 80 85 88 85 82 87 93 88 68 73 64 59 48 40 30 30 29 34 44 47 32 34 31 33 33 27 27
31 29 29 31 27 25 23 27 38 46 48 50 54 57 61 63 81 88 87 85 89 87 87 91 74 79 63 53 44 39 29 32 33 41 48 38 39 39 39 31 32 34 33
32 31 32 31 28 25 23 28 39 46 47 49 54 57 61 65 79 90 93 88 87 95 93 97 85 75 62 53 41 37 33 34 36 41 48 53 42 39 40 36 38 37 36
33 33 34 33 30 26 24 27 36 43 46 51 55 58 62 62 78 93 95 95 94 96 98 97 89 80 61 51 44 44 41 40 42 43 58 42 39 43 41 38 39 40 40
32 33 36 35 33 28 24 25 33 42 48 53 55 56 57 60 84 96 97 98 95 98 99 97 96 79 68 57 52 53 53 45 44 42 49 42 43 42 40 42 43 42 36
32 31 37 37 35 30 25 24 27 37 44 49 51 53 58 61 78 95 99 99 97 98 98 97 94 84 76 64 58 61 54 46 54 52 50 41 45 42 44 45 46 43 38
31 34 38 40 37 31 28 26 26 31 36 40 44 50 55 60 73 93 99 99 99 98 95 97 93 83 68 63 66 76 67 64 51 50 48 50 49 44 46 46 46 49 41
32 33 39 43 33 32 31 28 26 30 29 33 38 43 50 56 66 74 89 96 99 97 96 95 92 83 66 62 61 70 65 51 50 51 47 51 49 47 46 48 50 46 43
34 35 39 39 34 36 35 33 28 31 30 35 48 56 55 53 63 71 78 89 93 97 98 96 91 86 76 71 66 62 56 52 57 59 48 51 53 48 43 46 46 46 45
34 35 38 44 36 36 38 33 28 29 30 38 58 66 65 63 61 72 76 83 95 90 89 88 78 74 72 67 63 61 59 62 65 61 55 48 62 53 48 46 46 48 50
34 35 35 42 41 38 35 30 26 26 31 37 59 62 61 64 67 73 77 84 92 83 82 82 77 80 85 78 73 73 77 72 67 65 63 51 57 59 56 53 52 52 53
35 35 36 42 41 40 36 32 25 25 30 37 50 60 61 69 64 76 74 80 90 96 89 89 74 69 72 79 83 78 76 74 72 70 68 57 57 61 63 63 60 58 68
36 34 35 42 40 42 39 35 25 26 30 35 39 45 64 59 71 70 71 78 95 94 92 93 90 76 81 81 84 80 78 76 73 72 70 65 62 67 74 72 72 74 75
37 36 37 41 42 44 41 38 25 25 28 32 36 40 51 59 59 67 84 90 84 87 96 93 83 80 87 87 88 85 77 72 80 74 74 74 76 76 70 72 76 78 72
40 39 39 42 44 44 42 39 26 26 29 33 37 41 45 50 54 59 66 72 82 89 96 96 88 85 87 89 88 87 85 85 82 81 82 80 77 74 78 82 83 76 80
39 42 41 43 45 44 42 39 27 25 29 33 36 39 44 48 54 60 67 72 79 97 95 98 90 89 89 88 88 87 87 85 87 83 83 78 78 85 85 86 81 78 75

GFSSE_prec_cthk_099.txt.gz
RH
30 27 25 24 25 27 29 31 31 31 31 33 35 40 45 48 47 51 50 45 43 44 40 36 42 43 48 49 50 48 45 45 49 50 58 55 55 58 55 57 42 42 39
22 22 24 28 28 27 27 28 29 30 33 37 40 45 49 50 47 50 48 48 47 45 43 44 44 46 50 52 49 49 48 49 55 62 65 66 56 54 48 41 34 33 34
22 24 24 23 23 23 25 26 28 30 32 36 39 42 46 54 50 45 54 50 48 45 47 47 50 47 46 46 48 56 60 62 60 63 70 60 57 48 38 38 34 31 31
21 21 20 19 20 21 22 26 30 32 34 37 40 42 43 57 48 58 57 52 48 49 50 46 47 46 47 49 54 62 65 67 56 54 56 47 41 38 34 32 37 37 33
20 20 20 20 20 24 27 30 32 35 37 39 43 48 48 61 63 61 64 61 61 57 52 44 39 43 53 56 54 55 56 56 51 46 44 40 36 32 29 31 34 30 30
22 22 22 21 22 24 29 31 31 34 38 43 47 52 53 61 59 72 72 73 65 56 54 54 45 45 53 55 50 41 38 37 40 35 31 30 32 29 30 33 33 34 34
23 22 21 22 22 25 27 30 31 32 36 43 49 57 60 81 88 76 84 97 82 69 70 65 59 51 52 51 47 36 34 38 32 33 31 29 30 26 27 27 35 29 31
25 22 24 25 25 25 26 28 31 33 36 44 54 62 68 65 72 83 69 82 86 84 82 82 76 60 50 45 43 34 29 43 38 32 30 31 27 25 27 30 34 32 28
26 26 26 25 25 28 26 26 29 34 36 41 48 57 61 63 61 61 64 72 77 85 89 87 86 68 56 47 44 37 33 41 35 34 31 32 29 32 36 39 26 29 24
28 28 27 26 26 26 26 24 27 32 37 43 50 63 68 65 62 65 73 78 83 90 85 87 91 87 68 48 42 50 42 49 42 33 32 32 32 36 28 24 26 29 33
28 30 29 29 29 27 27 24 25 30 36 43 53 57 61 61 61 68 73 83 88 88 88 90 89 90 73 54 46 58 47 40 40 32 35 32 37 39 44 31 27 37 38
28 30 30 29 31 28 26 23 25 31 40 48 52 53 57 58 63 63 68 82 88 87 94 91 94 90 82 69 64 59 56 39 32 33 37 43 42 39 29 33 39 39 33
29 31 31 31 31 30 27 23 24 30 41 47 52 52 57 59 63 64 65 83 91 89 96 98 95 91 85 72 58 62 38 31 32 38 35 42 42 41 43 47 36 35 35
31 33 33 33 33 32 30 25 24 29 39 45 49 52 58 61 61 65 70 87 88 94 96 97 96 89 86 70 52 47 39 37 32 33 37 46 51 53 46 37 36 37 37
32 34 34 33 34 35 35 27 25 28 35 41 47 53 55 58 61 64 72 88 91 97 97 97 94 93 84 64 56 47 42 38 36 38 41 57 59 59 36 43 37 39 40
31 35 34 33 36 36 37 28 25 29 34 37 42 50 55 56 58 61 69 83 97 97 97 99 97 95 80 63 55 52 48 45 40 38 47 48 53 50 42 38 39 41 41
28 35 34 34 39 38 37 30 27 27 32 36 40 42 44 47 54 59 69 85 98 99 97 96 98 93 89 69 60 55 53 49 47 46 46 47 65 46 39 39 41 43 44
28 33 36 36 40 38 35 32 30 29 28 35 36 38 42 47 49 55 67 83 96 99 97 99 96 97 90 77 68 65 61 60 55 52 52 52 54 52 52 42 48 46 46
27 31 37 36 39 39 36 33 33 32 29 29 27 38 56 62 63 62 65 76 97 98 96 99 99 97 94 85 76 71 72 74 77 67 62 50 52 57 63 48 52 50 45
26 29 35 38 40 43 39 35 34 30 29 28 30 42 64 68 68 69 68 70 84 99 96 96 97 98 94 80 71 71 72 78 71 62 54 46 46 49 62 58 57 49 43
26 27 33 38 39 43 41 36 31 30 27 28 32 44 62 72 70 69 72 71 75 88 96 96 97 95 93 88 81 75 72 71 68 57 57 49 48 54 54 62 61 58 51
26 28 33 37 41 43 43 38 34 31 24 28 33 40 49 64 70 73 73 81 80 86 88 95 97 94 92 82 84 77 72 71 66 63 61 60 56 55 55 63 64 58 58
26 29 33 37 40 43 46 41 37 34 24 27 32 38 43 59 73 72 82 76 91 85 88 88 91 88 83 78 78 80 79 76 72 72 71 68 58 54 54 55 63 64 61
29 32 36 40 40 42 46 41 38 36 21 25 30 36 41 48 57 78 66 80 75 91 91 93 93 90 81 78 80 80 83 83 85 81 74 68 68 59 58 61 67 71 74
32 36 40 42 41 41 46 44 42 39 23 27 31 36 40 45 50 53 73 85 76 84 95 94 98 96 90 83 77 87 88 85 83 76 73 71 78 66 64 69 72 72 73
35 40 43 42 41 42 48 45 42 39 23 27 31 35 39 46 50 54 56 71 71 89 90 94 95 96 94 89 87 89 89 95 90 87 81 83 82 83 77 75 76 76 80

GFSSE_prec_cthk_102.txt.gz
RH
21 21 21 20 20 22 24 27 28 29 31 31 34 37 40 45 49 48 49 49 45 48 48 44 46 47 48 49 53 56 55 56 55 53 53 59 59 58 62 66 58 50 47
22 19 18 21 23 24 25 25 26 27 28 30 36 40 46 50 51 54 53 51 51 53 47 43 43 47 49 51 52 52 51 50 49 50 58 66 70 60 59 61 45 44 41
17 19 21 23 21 20 21 23 25 27 30 32 39 43 50 52 53 51 52 54 53 53 48 50 49 50 52 53 52 49 51 51 53 58 70 76 70 60 54 43 33 34 35
20 20 18 17 17 18 20 22 26 29 32 35 40 45 47 50 52 51 56 57 59 54 50 54 51 52 52 51 49 51 59 61 64 69 79 75 65 58 39 33 32 32 33
19 18 18 17 17 19 22 25 28 30 31 35 41 45 47 55 51 66 56 64 63 60 57 69 55 53 49 53 53 56 65 69 71 66 72 58 49 42 36 32 31 33 31
20 19 18 18 17 20 22 26 27 28 31 36 42 48 51 51 61 72 76 75 80 75 74 64 63 51 48 56 60 57 60 63 64 70 56 54 43 35 32 31 33 32 30
21 20 18 19 19 21 22 24 27 28 30 33 41 48 56 72 71 77 79 78 80 85 82 72 71 66 55 57 62 56 46 45 52 55 49 43 38 32 29 30 31 34 31
22 21 21 22 21 22 23 24 27 28 29 34 43 63 65 79 75 63 75 72 69 85 84 84 82 83 72 58 62 55 39 41 40 49 44 42 36 30 26 27 28 35 35
23 23 23 23 23 25 25 24 27 28 30 33 37 48 60 64 69 68 64 69 61 69 80 83 85 87 86 73 61 49 41 41 49 50 48 36 33 29 26 27 31 35 31
24 25 25 25 25 26 27 26 27 28 31 34 37 45 59 71 71 66 61 68 72 74 83 85 83 86 88 85 71 53 42 39 54 54 47 34 34 31 29 33 36 40 31
25 25 27 27 26 28 29 27 27 28 30 35 39 47 56 65 64 64 63 62 67 77 82 88 91 94 96 89 74 51 51 48 54 52 42 34 33 33 32 29 34 38 31
25 26 28 30 30 30 30 28 28 28 31 33 43 50 58 61 63 63 64 67 64 75 86 89 95 98 94 94 77 56 59 54 54 57 45 33 32 30 30 36 39 35 35
32 30 30 30 30 31 36 27 26 25 29 33 42 50 58 61 61 60 63 62 61 73 86 90 96 98 94 92 72 64 66 61 55 51 39 36 38 38 34 31 31 34 46
32 31 31 32 30 31 37 30 27 23 28 32 37 47 51 52 54 57 58 59 60 74 84 90 97 97 98 90 74 69 65 58 58 51 39 39 42 40 33 34 44 51 37
32 31 30 33 32 32 34 34 30 23 26 30 33 42 49 52 54 55 60 61 63 79 86 90 99 95 98 88 85 74 65 58 51 44 39 40 45 40 43 44 50 37 35
29 32 33 33 33 34 37 38 35 25 26 29 31 37 43 49 51 58 59 61 67 81 83 91 98 96 96 93 86 63 57 50 46 45 41 38 47 55 51 51 47 41 37
27 30 33 32 34 36 40 40 36 35 28 28 29 35 38 43 47 51 54 59 68 80 88 96 98 97 94 94 86 66 59 52 48 43 45 45 54 54 51 51 48 40 38
25 27 32 31 33 38 41 40 38 39 33 30 28 31 36 42 47 55 54 53 62 80 91 98 99 97 97 97 87 69 61 52 51 48 50 51 54 56 51 56 53 41 39
24 27 31 32 33 36 42 43 39 34 32 30 27 29 34 40 55 63 64 61 63 79 92 97 97 99 98 96 86 73 62 56 53 53 49 54 55 55 51 58 53 44 41
26 28 31 32 34 36 42 48 45 36 32 29 25 26 30 42 59 64 67 66 66 78 96 98 99 98 96 96 88 73 66 63 60 60 62 55 57 61 56 60 58 61 48
26 28 30 32 36 37 41 48 45 37 34 31 25 25 33 45 55 66 61 64 70 76 96 99 99 99 97 96 90 79 79 76 70 69 70 72 66 63 60 57 56 59 58
25 26 27 30 35 35 40 49 49 40 36 33 26 27 33 43 52 70 69 68 75 72 86 96 97 98 98 97 93 86 87 79 77 76 79 69 60 55 53 53 52 61 61
24 24 23 28 36 38 43 50 51 44 38 35 26 27 34 42 50 67 77 77 75 84 78 87 92 95 97 94 94 85 87 80 75 75 75 67 60 55 56 56 60 60 59
27 24 24 30 36 42 46 48 49 43 39 36 27 27 34 38 44 56 69 84 83 87 96 83 93 94 92 90 88 83 84 78 74 76 72 69 67 65 65 63 63 59 60
27 28 27 31 38 44 47 47 52 48 44 40 28 28 34 39 45 53 60 76 81 82 90 87 87 89 94 87 78 79 83 83 76 78 81 76 75 79 75 64 67 67 64
25 29 30 34 41 46 47 48 53 50 44 40 26 32 35 39 45 52 57 68 78 81 83 90 92 89 90 93 91 86 84 83 88 92 91 92 84 78 73 66 69 70 73

GFSSE_prec_cthk_105.txt.gz
RH
23 21 18 18 19 20 22 23 25 26 28 32 30 33 37 42 49 46 46 44 46 43 44 46 52 57 55 54 55 57 57 61 63 62 59 59 55 57 60 70 73 63 60
25 18 17 17 18 20 23 24 24 24 27 28 30 35 39 44 49 49 48 56 48 46 46 46 46 49 49 50 51 54 55 57 57 53 53 58 67 68 63 72 61 53 47
23 15 16 18 19 21 21 21 22 24 25 27 31 37 43 48 52 52 46 49 50 49 49 46 45 46 50 53 54 53 51 52 54 54 59 66 71 69 63 65 51 40 42
20 16 17 17 16 16 17 19 21 24 26 29 32 37 46 48 49 50 50 53 57 61 55 47 51 55 54 53 53 51 52 56 56 60 72 84 78 72 63 52 34 30 33
22 21 17 15 15 16 18 20 22 24 27 30 33 39 44 48 51 54 62 62 64 60 67 70 73 57 57 51 50 51 58 65 67 70 85 88 77 69 60 40 32 32 30
24 23 17 16 15 17 19 22 24 25 27 29 33 37 45 48 67 56 68 69 76 76 84 78 82 78 54 51 55 57 63 69 74 74 86 86 74 54 51 38 31 30 31
23 24 18 18 18 19 20 22 24 25 27 29 31 37 45 61 71 70 69 72 73 75 80 80 79 72 66 53 59 66 61 66 73 85 71 61 59 45 39 33 33 31 31
25 24 19 19 20 20 22 23 25 26 27 30 33 42 63 65 72 64 71 71 70 73 73 82 81 77 72 73 64 70 61 63 69 87 65 56 44 42 36 29 31 30 32
24 20 20 20 20 21 23 24 25 26 29 30 33 37 44 53 62 65 67 65 62 64 63 77 81 81 85 79 73 70 69 56 56 77 55 50 46 40 31 26 27 29 31
26 21 21 22 22 22 24 25 25 26 28 31 36 35 40 48 57 71 66 63 60 61 74 74 82 88 94 92 85 73 66 61 55 64 51 44 38 37 30 27 27 29 30
29 26 24 26 25 24 25 26 26 26 27 31 34 37 40 50 60 72 64 60 59 65 65 77 84 91 96 95 91 85 69 60 49 56 50 44 38 36 29 27 31 32 32
28 29 29 31 32 32 28 29 27 27 27 28 35 43 47 51 57 65 68 60 61 69 67 76 85 91 95 94 95 92 80 61 55 63 58 48 36 35 31 30 26 27 28
32 34 30 31 33 35 35 35 34 34 31 32 37 48 54 56 64 65 66 63 62 64 70 67 82 89 94 96 96 90 79 63 64 57 49 46 33 32 28 27 28 31 32
34 33 35 34 34 35 42 38 31 35 32 30 30 41 48 49 59 61 64 63 65 62 65 63 82 88 98 95 94 86 79 76 66 56 48 48 38 33 28 29 32 30 31
35 34 35 35 35 35 38 40 39 39 29 24 31 37 37 43 50 52 54 58 58 60 60 67 82 86 95 97 97 88 76 75 73 54 46 45 40 36 32 35 30 32 43
35 38 36 32 35 37 39 39 41 38 30 22 27 33 33 40 42 47 50 52 56 59 63 74 83 87 92 94 98 90 87 79 66 53 47 44 41 42 37 35 37 40 44
30 37 36 33 34 37 39 40 44 42 37 26 26 27 32 33 39 40 44 54 58 59 65 78 84 88 96 98 96 96 87 79 61 58 48 39 39 42 44 44 47 44 44
28 36 39 34 32 36 38 40 43 45 41 36 31 26 28 30 35 39 47 55 59 61 62 72 82 93 98 96 97 96 89 68 59 55 42 44 41 43 47 50 51 45 41
27 33 40 34 32 34 39 41 43 44 44 40 36 27 26 27 32 41 50 58 62 60 56 66 86 91 98 97 99 97 85 71 60 51 52 46 43 44 47 46 48 46 46
28 30 35 33 32 33 37 41 43 45 45 42 36 29 27 28 32 42 52 63 65 64 66 70 88 98 98 97 98 95 88 82 61 56 52 51 45 47 54 52 50 47 48
27 32 34 33 30 33 31 37 41 44 44 42 34 28 28 33 35 44 55 64 64 61 69 78 96 99 98 98 99 96 93 82 66 58 51 54 50 51 56 58 53 56 50
28 28 32 32 34 33 30 35 42 44 47 47 38 33 24 29 34 43 53 61 64 61 67 81 96 98 99 99 97 94 94 87 80 69 62 59 63 59 58 58 58 61 59
33 30 31 33 34 33 35 37 43 44 49 50 41 36 24 29 37 47 52 58 66 64 70 83 96 98 98 98 97 94 88 86 79 74 68 67 70 73 67 57 61 54 53
32 33 30 31 33 36 36 36 41 41 50 51 44 37 29 30 35 43 47 54 70 71 76 83 90 97 98 96 97 96 89 83 87 84 82 74 76 74 67 65 60 58 60
28 31 30 32 31 35 33 36 42 44 50 56 48 41 28 31 35 39 45 54 62 76 82 87 89 93 98 96 95 92 92 90 88 81 80 76 84 78 70 66 70 67 62
26 26 31 33 32 34 32 35 44 45 51 58 51 43 28 30 35 39 43 53 61 72 78 86 90 87 89 92 93 93 91 89 88 81 81 77 74 76 75 74 72 75 69

GFSSE_prec_cthk_108.txt.gz
RH
25 19 15 15 16 16 17 20 22 24 26 28 29 26 31 38 44 45 42 38 37 38 38 42 47 55 58 59 64 61 62 61 66 71 70 63 60 57 58 63 69 67 65
21 17 15 15 15 16 16 18 21 23 24 26 27 27 31 36 45 48 41 40 43 41 39 40 43 47 50 50 52 55 56 57 60 61 60 60 63 65 64 70 71 63 57
19 15 14 15 16 17 18 19 20 21 22 23 25 27 32 37 42 46 44 44 53 50 58 44 42 40 45 48 49 52 54 53 55 57 58 57 62 75 72 68 66 57 53
15 14 15 15 15 15 15 16 18 20 22 23 26 28 33 39 44 49 47 45 48 53 62 56 48 45 46 50 53 53 51 53 54 57 62 71 72 75 71 65 55 44 40
15 15 15 13 13 14 15 16 18 20 23 24 26 30 34 41 50 51 55 55 60 58 56 61 65 63 50 48 51 49 51 55 58 59 67 86 83 80 71 61 47 35 31
20 16 14 14 13 14 15 17 19 21 23 25 26 30 34 40 48 55 58 62 68 66 65 64 66 70 66 52 48 51 55 60 66 72 87 91 84 79 72 60 44 31 29
22 17 15 15 15 15 16 17 19 21 24 25 26 30 35 42 55 63 65 64 68 71 74 71 72 71 75 65 50 56 61 61 69 78 82 91 86 76 59 56 36 29 29
20 17 16 17 17 16 18 18 20 21 23 24 26 30 39 46 53 63 66 62 66 70 69 68 66 76 77 74 64 59 64 61 66 78 84 74 69 61 49 37 30 30 30
21 17 17 18 18 18 19 20 21 21 23 25 26 29 36 44 46 53 61 63 68 67 65 68 64 82 86 82 86 74 67 63 65 72 83 80 58 48 42 34 29 29 29
22 18 19 19 19 19 20 22 22 22 23 25 27 29 35 39 47 52 61 68 62 59 61 64 69 78 85 84 88 88 78 73 69 72 87 70 54 40 39 30 27 29 29
25 20 19 19 20 21 21 23 24 23 24 26 27 29 32 40 51 55 59 67 62 60 60 66 62 74 83 87 88 93 89 81 72 75 60 54 43 38 34 28 27 28 30
26 24 22 23 22 22 22 23 25 24 24 25 26 28 36 45 51 57 61 66 67 60 61 64 64 73 83 87 88 88 88 89 83 71 51 51 41 34 31 27 27 30 31
28 27 27 28 29 29 27 24 25 24 25 25 25 28 38 44 52 60 65 69 71 67 62 65 71 65 77 86 93 95 93 92 88 69 63 59 44 35 34 28 29 30 26
33 29 30 30 32 30 28 30 30 31 32 31 28 30 35 40 44 55 61 64 66 65 66 65 67 61 72 87 92 94 95 93 91 67 55 51 48 41 38 26 29 27 28
38 35 33 33 31 31 33 31 31 31 35 34 29 27 29 38 42 51 58 58 60 63 65 66 63 63 73 83 93 93 95 94 91 79 61 47 44 40 34 24 27 28 31
36 39 37 35 31 31 33 34 32 31 33 32 29 28 28 33 36 45 49 53 53 53 55 58 63 69 78 85 92 93 95 98 89 76 68 50 43 44 37 25 28 29 30
26 36 43 37 36 32 32 34 33 32 33 31 29 31 30 32 32 42 45 43 45 52 55 59 71 71 78 87 93 96 97 96 89 85 67 46 43 47 40 27 30 33 34
24 27 37 38 36 34 32 32 33 34 35 31 32 30 32 27 28 33 40 42 43 56 63 63 68 71 81 88 92 95 98 96 87 79 62 43 40 46 41 36 41 38 38
24 26 31 38 35 31 32 33 33 35 36 35 34 34 32 25 25 27 35 39 44 57 62 65 64 63 71 85 95 95 98 97 93 79 53 43 46 42 36 40 43 44 43
21 25 31 35 34 31 31 34 34 35 37 38 35 37 32 26 24 25 30 40 47 57 62 64 63 65 69 86 97 95 99 97 90 78 58 53 46 40 40 37 43 48 45
21 24 30 36 35 30 30 31 34 33 36 39 39 40 36 28 23 26 30 39 50 54 63 65 64 70 78 91 99 97 98 96 88 78 68 57 49 44 41 42 43 46 46
25 27 35 38 40 34 33 32 35 37 34 38 39 41 39 34 26 26 31 39 46 50 62 65 65 70 90 98 99 97 98 96 92 86 74 66 54 50 47 48 50 50 48
37 31 30 36 42 39 34 36 39 41 35 39 38 40 42 38 29 26 32 39 46 52 57 63 66 74 93 98 98 97 95 92 93 90 78 64 67 57 54 47 52 59 54
37 37 36 33 36 44 38 35 36 34 33 35 37 41 47 40 28 27 33 38 42 50 54 64 72 78 93 97 98 98 95 90 92 94 90 74 74 68 64 61 58 63 62
33 34 38 40 38 41 34 34 35 40 36 36 38 42 50 44 30 28 33 37 41 48 53 64 80 80 93 97 98 95 94 93 91 88 89 84 71 72 74 75 72 69 58
35 33 32 35 38 37 39 33 37 39 38 37 40 42 51 49 33 29 31 37 40 49 54 62 79 84 84 96 97 97 95 93 91 89 90 87 84 78 77 80 79 78 73

GFSSE_prec_cthk_111.txt.gz
RH
26 20 17 15 14 15 16 17 19 20 22 23 24 24 26 33 39 38 33 32 34 34 38 40 42 47 53 58 60 61 65 66 70 76 77 74 67 64 62 61 65 65 64
24 19 17 14 13 14 16 17 18 20 21 23 23 24 25 30 39 39 39 36 35 36 36 38 42 47 49 49 51 55 56 59 61 64 66 67 62 60 59 62 64 65 61
20 17 16 13 13 15 16 17 18 20 21 21 22 24 26 29 35 41 42 38 38 42 42 44 43 42 42 43 45 48 53 57 58 59 61 61 60 64 70 66 66 63 59
20 17 13 13 14 14 15 16 16 18 19 20 21 24 28 31 36 40 44 41 42 46 47 53 47 41 43 46 48 50 50 51 52 53 56 59 60 67 72 68 61 60 53
18 14 13 13 12 13 13 15 16 17 19 20 22 25 29 34 39 44 45 45 48 51 54 57 53 49 48 51 51 52 54 53 53 55 58 67 74 75 71 68 60 49 43
16 13 13 12 12 13 14 15 16 18 20 21 23 26 31 34 40 44 47 53 57 59 57 56 61 64 64 58 55 52 55 57 61 61 62 78 83 85 79 67 59 45 34
14 14 13 13 13 14 14 16 18 19 20 22 23 26 31 34 43 49 52 56 55 63 64 65 64 65 65 70 66 60 59 62 68 71 78 84 84 85 80 72 62 43 31
14 14 14 14 14 14 15 16 18 19 20 21 23 26 30 35 42 50 50 60 55 57 62 66 65 64 65 74 81 74 69 67 70 78 83 93 96 84 75 62 53 36 29
17 15 15 15 15 15 16 17 17 19 20 21 23 25 28 34 40 46 53 55 55 63 65 66 61 62 69 80 83 79 80 75 72 81 86 87 83 80 65 53 32 27 27
19 16 16 16 16 15 17 18 18 19 20 21 22 24 26 30 37 45 53 56 60 64 59 55 54 59 66 82 85 86 85 87 75 77 79 81 89 68 49 42 27 25 27
21 18 16 17 18 17 17 19 19 20 20 22 23 22 24 28 35 44 53 57 61 64 60 55 57 58 59 73 84 87 90 88 86 79 76 76 88 66 44 36 27 28 29
24 20 18 17 18 18 18 19 20 21 21 22 23 23 23 28 36 42 52 60 62 66 65 59 58 59 60 69 80 87 89 87 88 92 85 77 77 54 40 33 28 29 28
28 24 19 19 18 19 19 20 21 22 23 23 24 24 23 27 34 39 47 56 66 70 70 63 59 60 66 66 74 85 93 90 89 91 89 79 64 53 36 30 27 28 28
30 25 21 21 20 20 21 21 22 23 23 24 24 24 24 27 32 37 43 54 63 65 65 61 62 61 65 64 65 82 91 94 92 93 94 80 69 50 34 32 27 27 29
35 31 27 25 22 21 23 23 22 24 25 27 27 26 24 25 31 34 40 54 61 61 65 60 60 61 65 62 65 76 86 94 95 96 97 83 74 60 41 36 30 36 28
33 38 35 34 30 24 24 24 25 25 26 27 29 28 25 24 28 31 35 43 50 54 57 55 55 56 60 63 67 78 88 91 97 96 96 80 55 51 43 36 32 26 28
26 29 35 40 35 33 26 25 28 30 27 28 28 28 26 27 29 29 32 37 37 44 49 50 54 56 59 68 69 79 89 95 96 96 95 77 62 46 42 36 31 27 26
24 24 29 35 37 36 33 31 27 30 29 29 31 29 27 32 31 29 28 33 35 41 46 51 58 61 65 68 69 85 90 96 98 97 95 78 63 46 43 41 32 28 28
23 23 26 30 34 37 38 37 32 30 30 28 32 32 29 34 33 28 27 30 34 38 43 47 60 65 66 65 67 80 89 95 98 98 94 83 62 42 40 41 38 31 31
22 22 22 29 31 33 38 42 39 33 30 30 32 33 31 31 34 30 26 29 31 35 42 50 58 64 64 64 68 75 88 93 99 97 92 76 61 42 41 41 46 37 38
24 20 21 29 34 38 41 43 38 34 31 31 31 34 35 35 34 32 27 27 30 33 40 52 55 65 68 65 73 78 87 94 99 97 92 77 58 48 47 47 39 37 39
26 25 22 24 29 37 41 42 39 36 35 34 33 35 37 38 37 37 31 27 30 34 42 48 56 62 67 68 74 85 96 98 97 97 94 86 66 53 52 43 40 38 40
30 28 25 25 31 42 47 44 46 44 40 41 35 36 38 39 39 42 36 28 30 37 42 48 53 64 68 70 81 93 98 97 96 96 94 88 79 59 52 48 45 42 41
37 36 35 30 33 41 45 42 41 39 38 35 37 40 42 42 40 46 41 28 31 36 40 46 49 59 67 75 85 99 97 95 94 96 97 95 80 71 57 54 50 45 48
36 36 38 47 50 39 37 35 32 35 37 35 39 44 45 43 43 48 47 31 30 33 37 45 49 58 71 83 88 98 97 95 94 93 96 95 92 82 67 64 65 56 56
39 40 40 39 46 55 51 39 30 33 35 34 38 44 45 44 45 50 51 35 29 32 36 45 51 56 71 81 92 97 97 95 96 95 93 92 91 90 81 77 65 65 69

GFSSE_prec_cthk_114.txt.gz
RH
29 25 21 22 20 17 16 18 18 19 21 22 22 23 24 28 29 30 30 31 31 32 33 35 40 44 48 54 65 68 71 73 75 78 80 79 74 70 71 66 64 62 62
28 24 22 19 17 15 15 17 18 19 21 22 23 23 25 28 31 32 33 32 33 33 33 37 40 46 51 57 59 59 63 65 69 76 77 78 72 70 67 62 60 62 62
24 20 20 18 15 14 15 17 18 20 21 22 23 24 25 27 32 34 36 37 36 36 35 37 43 47 47 49 50 51 57 59 64 66 66 67 67 66 65 64 60 60 60
22 21 19 17 15 15 15 17 19 20 22 22 22 24 26 28 31 35 36 37 37 40 43 44 46 44 42 46 48 52 55 55 59 60 62 66 63 63 65 67 64 63 61
22 21 18 14 14 14 14 15 16 18 20 20 21 24 27 29 32 38 40 41 42 46 49 48 51 48 46 46 49 53 54 56 56 57 57 59 68 64 64 65 65 59 56
20 18 17 13 12 13 13 14 15 17 19 20 22 25 28 30 33 41 45 44 44 47 51 54 55 53 51 53 52 52 56 58 60 59 59 62 72 74 72 67 65 61 53
17 14 12 13 12 13 14 14 15 17 19 20 21 24 27 30 33 41 44 46 49 53 54 56 59 56 61 61 62 60 57 62 65 68 67 71 81 89 81 76 69 59 45
17 15 13 14 13 13 13 15 15 17 19 20 21 23 25 29 34 42 46 47 53 57 56 61 62 63 62 63 67 72 76 70 68 71 83 81 88 97 86 82 72 62 44
18 16 14 14 14 14 14 15 16 16 18 19 21 23 25 28 34 39 45 49 57 56 53 60 63 64 62 62 68 79 82 77 74 73 84 89 92 91 87 75 66 52 38
20 18 15 15 15 15 15 16 17 16 17 19 21 22 24 26 32 37 44 49 53 57 57 61 62 60 58 63 73 89 84 82 78 75 81 89 89 85 82 72 56 37 26
22 20 17 16 16 16 16 17 17 17 17 19 21 22 23 26 28 35 42 48 53 57 62 61 56 53 56 62 67 78 86 88 89 82 76 79 89 93 83 55 45 30 25
25 23 20 18 17 17 18 18 18 19 19 19 21 22 23 25 28 32 39 44 51 55 63 66 64 57 60 62 62 71 77 85 92 89 83 77 85 87 82 56 37 28 28
30 28 23 21 18 18 19 19 19 19 20 20 21 23 23 24 27 31 36 41 47 52 60 66 65 60 60 62 64 67 73 81 89 87 87 88 89 89 79 54 39 26 27
28 29 27 24 21 18 20 21 21 21 20 20 21 24 24 23 24 29 33 37 43 54 60 65 68 62 60 63 69 65 63 70 88 90 90 89 92 85 73 53 35 22 26
24 24 25 25 23 19 21 21 21 22 22 21 21 24 25 23 23 27 31 35 41 49 56 60 64 61 59 62 67 65 64 68 78 89 92 94 93 89 73 54 37 21 23
25 29 33 34 29 24 22 22 23 24 24 23 23 24 25 24 24 26 29 31 37 41 45 51 56 58 62 61 62 62 66 70 78 90 91 98 95 92 74 49 34 26 25
29 28 29 33 40 37 33 25 24 25 26 26 25 26 27 26 26 27 28 29 33 37 38 40 46 50 53 56 59 62 68 72 77 84 94 98 97 89 72 65 39 29 28
28 32 32 33 35 35 36 36 33 27 28 28 27 27 29 28 27 29 30 27 31 35 36 39 41 43 50 58 62 67 69 71 79 87 97 98 97 86 63 54 40 33 29
26 25 27 30 33 34 34 38 38 35 34 30 30 28 28 30 28 30 29 29 30 31 33 37 37 40 50 58 64 68 69 71 79 92 98 98 96 80 66 43 41 37 32
25 24 25 26 26 30 37 37 40 42 41 36 31 30 30 31 31 32 32 32 30 31 33 36 39 43 48 63 66 68 69 70 77 94 99 97 96 82 60 42 43 41 37
29 26 24 23 23 29 34 43 43 41 42 42 35 33 33 33 33 33 34 33 32 30 32 36 40 45 53 59 65 69 72 68 74 90 96 99 95 84 60 43 42 42 44
33 29 28 26 23 24 30 37 47 48 48 44 41 35 35 36 36 35 35 36 34 32 33 36 40 47 52 58 65 73 71 78 78 93 97 98 93 82 62 47 43 47 46
34 32 29 28 24 23 26 39 49 55 66 61 46 38 35 38 40 38 38 41 38 34 32 36 41 47 51 59 68 73 74 79 84 96 97 97 92 83 64 49 51 50 47
39 36 33 34 35 32 28 33 40 45 46 43 42 42 37 39 42 41 41 44 44 40 34 36 40 45 52 58 67 71 73 84 95 96 98 96 95 87 77 58 54 50 45
42 40 38 40 41 47 48 48 36 47 49 45 42 39 42 41 43 42 43 45 50 46 38 37 42 44 51 56 63 73 86 95 99 97 97 97 97 94 88 72 61 54 48
44 42 42 41 43 48 51 60 78 78 65 47 42 41 39 43 42 43 45 46 54 53 42 38 41 45 52 56 63 73 85 93 97 95 96 96 97 96 92 82 74 65 60

GFSSE_prec_cthk_117.txt.gz
RH
22 27 29 26 23 21 20 19 19 20 20 21 22 22 22 22 25 26 29 31 31 31 32 36 39 42 49 55 61 68 72 73 75 80 82 81 79 74 72 73 72 70 70
22 26 25 24 21 19 19 19 19 20 21 21 21 23 24 25 27 28 29 30 31 32 32 34 39 43 49 55 60 63 65 67 70 75 77 80 78 74 73 73 70 66 67
23 23 24 21 19 18 17 19 19 21 21 21 23 24 25 27 28 31 32 33 34 35 33 35 40 46 50 53 54 57 60 60 64 69 74 77 79 77 74 71 68 61 62
23 20 22 22 18 16 16 17 18 19 20 22 23 25 26 27 29 31 33 36 39 40 38 42 43 41 45 45 45 47 52 56 58 62 68 72 71 69 68 68 67 64 62
21 20 20 20 18 17 15 16 17 18 19 20 22 24 27 28 30 32 35 40 41 42 42 46 45 45 45 44 44 46 50 53 55 57 60 64 70 72 67 65 66 67 66
21 20 18 17 16 15 14 15 16 16 17 18 20 23 27 28 30 33 37 39 43 45 44 47 46 48 51 47 48 48 49 55 59 58 58 60 67 71 73 70 65 60 58
20 19 18 14 14 14 13 14 15 15 16 18 19 23 27 29 31 34 38 41 44 46 48 49 52 54 56 55 56 55 54 56 60 67 74 72 74 78 77 72 69 66 62
17 16 16 16 14 14 13 14 15 15 16 18 19 22 26 29 31 34 37 40 43 50 52 52 56 58 59 59 57 59 66 72 70 70 74 77 79 90 90 84 79 72 59
20 19 17 16 15 14 14 15 15 16 17 17 19 21 24 27 31 35 38 40 43 53 57 53 56 58 61 62 58 61 68 82 81 78 79 83 84 90 94 93 82 73 62
20 19 18 18 16 15 16 16 16 17 17 18 19 20 22 25 29 35 37 40 44 49 54 55 59 61 62 63 61 65 71 83 84 80 83 83 93 91 88 88 83 71 54
20 19 18 19 18 16 16 17 17 17 18 19 19 20 21 22 26 32 36 40 44 48 52 55 61 59 60 57 56 62 67 81 86 84 82 86 85 92 91 88 78 60 45
18 19 19 19 20 18 17 18 18 18 18 19 20 20 21 22 24 27 33 38 43 46 50 54 60 60 58 56 59 58 62 71 83 88 91 89 81 83 93 89 75 53 32
20 21 22 22 22 21 20 18 19 19 18 20 21 22 22 22 23 25 29 34 39 43 48 54 59 61 61 58 56 59 60 67 71 81 92 91 86 81 90 86 71 46 31
24 23 24 23 21 22 21 19 20 21 20 20 21 22 23 23 22 23 26 30 37 42 47 53 56 61 63 61 57 59 62 63 62 68 84 91 89 88 92 88 77 53 31
29 26 24 22 21 21 22 21 20 22 22 22 22 22 24 24 22 23 26 29 34 40 45 50 54 58 62 59 58 59 63 62 62 65 73 88 94 95 90 91 77 49 31
30 27 27 28 26 23 23 23 23 23 23 25 25 24 24 25 23 23 26 28 31 35 40 45 48 51 53 54 57 62 61 62 61 65 75 83 92 95 96 92 79 55 38
31 31 29 29 33 34 30 28 26 25 24 25 26 26 26 26 25 25 27 29 31 32 36 39 42 44 48 50 52 56 58 61 62 67 71 78 87 93 97 95 80 60 43
36 35 35 33 36 42 42 41 40 33 26 27 28 29 28 28 28 27 28 30 31 32 33 35 37 39 42 45 46 52 58 60 64 66 70 76 83 96 98 95 77 55 40
39 37 38 36 39 41 43 43 41 40 38 36 33 32 32 31 30 28 29 31 32 34 32 33 36 37 39 41 45 52 58 64 65 65 68 73 86 99 96 94 77 70 47
30 30 28 28 29 30 36 43 45 44 43 42 40 42 37 34 33 30 29 32 34 36 35 33 35 38 39 42 48 51 63 69 69 67 67 73 97 99 96 88 76 62 47
37 32 29 28 28 27 31 33 38 37 48 48 44 46 45 38 36 32 31 34 36 37 36 34 36 39 40 43 53 57 64 67 68 71 67 80 98 98 96 81 74 45 44
40 35 32 31 31 28 26 26 30 32 39 50 50 50 52 44 37 34 34 35 38 41 40 38 38 38 39 45 49 56 62 66 71 75 73 86 96 98 97 89 72 45 44
42 40 36 36 34 32 29 29 31 35 40 56 65 62 58 55 43 38 38 37 40 41 44 40 38 39 42 45 52 56 61 65 77 74 79 84 94 98 98 93 70 47 44
52 46 40 37 37 36 37 38 39 31 34 45 61 64 68 59 53 43 41 40 43 44 45 45 41 41 44 45 51 56 60 68 76 76 76 86 97 97 97 90 69 51 48
53 47 44 43 41 40 42 42 42 46 51 50 46 55 55 57 52 51 46 42 43 45 47 49 44 42 45 45 50 55 59 69 78 85 94 94 97 97 97 93 76 58 53
55 50 47 46 46 45 46 48 47 47 50 63 74 74 60 58 53 53 51 48 44 45 46 51 49 47 46 47 51 55 60 64 72 89 99 96 99 96 97 95 88 72 60

GFSSE_prec_cthk_120.txt.gz
RH
20 24 26 25 23 20 19 18 17 18 19 19 19 20 20 20 23 26 27 31 31 32 33 34 38 41 46 50 54 59 64 69 73 79 81 77 80 76 76 76 75 75 76
22 25 27 25 24 20 18 18 17 18 19 19 20 20 21 22 22 24 26 29 31 33 33 35 37 41 45 51 56 57 61 67 72 77 79 78 77 74 74 74 76 74 71
24 27 27 25 24 22 19 17 17 18 19 19 20 21 23 23 24 25 26 28 31 35 34 33 38 41 47 51 53 54 56 59 63 68 75 77 77 76 77 77 75 73 70
26 26 26 25 24 22 19 18 17 18 19 19 20 22 23 24 25 27 29 32 33 36 38 37 41 44 43 44 46 46 48 51 56 61 66 72 74 78 76 75 71 68 64
24 25 26 25 24 21 18 17 17 18 19 20 20 22 23 25 25 26 30 33 35 35 39 38 44 44 42 42 41 43 45 48 53 57 57 62 67 72 73 71 69 69 66
23 22 23 22 21 19 17 15 17 18 19 20 21 21 23 25 26 26 30 34 37 37 40 40 44 43 45 48 45 44 46 47 52 57 58 58 63 71 75 75 72 69 68
20 19 20 20 20 20 18 16 16 17 18 19 20 21 22 24 26 28 30 33 38 39 41 45 45 47 50 51 50 51 50 51 55 60 63 69 73 80 79 80 74 69 64
20 18 19 19 19 19 18 17 15 16 18 19 19 20 21 23 26 28 31 35 38 39 43 47 49 50 52 53 54 54 55 57 66 71 72 75 78 96 91 81 74 70 69
20 19 20 20 20 19 19 18 16 16 18 19 20 21 22 23 25 28 31 34 38 41 44 49 53 52 55 56 57 56 59 65 69 79 79 83 86 90 97 94 88 79 72
20 19 20 20 19 20 20 19 18 17 18 19 21 21 22 24 25 27 30 33 35 40 44 49 51 52 55 57 59 55 58 64 67 77 82 83 88 87 83 87 90 87 78
22 20 20 19 19 19 19 19 19 19 18 19 21 22 23 23 25 26 29 32 35 40 44 48 51 54 57 55 53 50 58 62 70 79 84 82 88 90 92 94 92 87 74
23 21 20 19 19 19 21 19 19 20 19 19 20 21 23 24 24 26 28 31 35 38 43 47 52 55 59 58 54 51 54 60 67 74 80 88 89 89 87 88 89 79 57
22 23 21 21 21 21 22 21 19 19 20 20 20 21 23 25 25 25 27 29 32 36 41 45 52 58 61 60 59 54 52 55 59 67 66 76 88 95 88 85 84 79 56
25 23 22 23 22 22 22 22 21 19 20 21 20 21 23 25 26 25 25 27 29 32 37 45 51 55 59 60 61 57 51 55 58 59 64 71 84 92 95 91 87 83 59
30 28 28 26 24 23 22 21 21 21 20 23 22 22 23 24 26 25 25 27 28 30 35 41 48 55 56 60 59 57 54 54 58 59 60 64 81 92 94 96 89 88 69
40 37 33 29 26 24 24 23 24 23 24 24 24 24 24 24 26 26 25 26 28 29 32 37 43 48 51 55 56 53 53 55 56 56 57 60 78 90 96 96 95 92 72
47 43 37 32 29 28 28 27 26 26 26 26 27 27 27 26 26 28 27 28 30 31 32 35 38 44 48 50 52 52 51 51 53 56 56 59 68 78 85 93 97 94 78
58 54 46 34 35 35 33 34 35 32 29 29 30 29 29 29 28 29 29 30 31 33 33 33 35 38 42 45 48 49 50 49 50 54 56 60 64 70 78 86 98 97 83
62 62 51 40 38 40 41 39 48 47 44 39 36 32 32 32 32 31 31 30 32 35 35 34 34 35 38 41 45 46 47 47 50 54 59 60 63 66 71 82 94 96 86
51 54 52 43 40 45 50 46 49 50 47 42 42 42 41 40 38 36 35 33 33 35 36 35 34 34 36 40 44 45 48 49 52 57 64 65 62 62 67 90 99 94 84
40 42 46 47 41 41 43 44 42 41 44 49 44 44 42 42 45 41 39 37 35 36 37 38 39 39 39 40 43 49 51 54 53 59 64 67 68 66 73 96 96 94 85
47 43 41 39 37 36 36 35 36 35 38 41 47 50 49 49 52 47 41 39 37 38 40 41 41 44 40 40 48 48 48 51 48 56 61 68 71 70 88 98 97 96 82
50 47 42 38 37 37 38 39 39 39 39 39 41 47 48 57 57 56 48 44 40 39 42 45 44 48 45 41 37 47 51 48 51 53 60 70 74 77 87 97 98 92 79
57 49 46 42 40 40 41 41 43 42 40 37 38 42 53 64 60 61 61 56 49 43 42 48 48 45 48 46 43 46 49 51 55 56 64 72 77 79 84 96 97 95 89
58 57 51 50 46 48 50 50 44 44 44 41 41 42 53 60 69 74 74 62 52 48 47 46 51 49 47 50 48 43 49 53 58 60 64 71 81 84 87 94 99 97 92
73 68 62 60 56 59 56 53 52 51 50 47 44 48 54 58 61 68 70 67 59 55 54 51 53 52 50 50 53 47 50 50 57 64 65 69 84 95 96 93 98 96 89

GFSSE_prec_cthk_123.txt.gz
RH
16 19 24 26 25 23 23 20 17 17 18 19 19 19 20 20 22 23 26 29 28 27 31 34 37 40 44 46 48 54 57 62 68 74 77 78 79 76 76 76 77 76 74
17 21 25 28 25 24 24 21 18 17 17 18 19 20 20 21 21 22 23 27 28 30 33 34 36 38 43 47 51 55 58 62 70 76 82 84 79 74 72 74 76 76 77
18 21 28 28 26 26 25 21 19 18 17 18 19 19 19 20 21 21 21 24 28 32 34 33 36 41 43 50 52 53 53 55 60 67 72 74 76 77 75 76 80 79 75
18 22 28 28 27 26 26 22 20 19 18 17 19 19 20 20 21 21 21 23 28 31 33 34 34 39 44 46 46 47 47 48 51 56 61 65 69 74 76 83 81 78 72
24 26 27 26 28 26 24 22 21 19 20 19 19 21 21 21 21 22 23 25 30 32 33 34 37 44 42 41 42 41 41 44 48 51 55 59 63 73 77 77 79 74 69
27 27 25 24 23 23 24 24 22 20 20 21 21 22 22 21 22 22 24 26 30 33 35 38 39 41 40 41 45 44 44 44 47 50 56 57 63 67 73 75 73 70 67
30 27 24 23 22 23 23 23 23 22 22 22 21 22 22 23 23 23 25 29 31 33 36 38 41 42 43 47 46 45 47 46 47 51 62 63 65 72 88 91 86 76 71
28 25 24 23 23 24 24 23 23 23 22 21 21 22 23 24 24 25 26 30 32 35 37 39 42 44 46 48 51 52 50 52 55 60 67 72 79 88 97 95 90 80 68
28 26 25 24 24 24 24 23 22 22 21 21 21 21 23 25 25 26 27 30 34 35 38 39 42 45 46 50 54 54 56 54 55 58 63 77 80 90 88 94 91 84 73
29 26 24 23 24 23 23 23 23 22 22 21 21 21 23 26 28 29 30 31 35 35 38 39 42 44 46 49 53 56 53 52 58 59 70 79 83 89 87 84 88 91 86
29 26 25 23 23 21 22 22 22 24 23 22 21 22 25 26 28 30 30 32 34 37 38 40 42 44 46 51 53 51 50 54 58 61 69 75 79 85 94 87 89 91 87
29 27 25 24 22 21 22 23 23 23 24 23 23 22 24 26 27 29 31 33 34 36 37 41 42 44 48 51 53 52 51 52 57 60 66 74 81 92 91 86 86 86 84
32 32 31 27 24 22 23 25 25 24 23 24 24 23 24 26 28 29 30 32 34 35 36 40 42 44 48 52 54 54 53 51 52 55 60 63 71 81 97 92 89 85 80
33 31 33 30 27 26 25 27 27 26 25 24 24 25 25 25 26 27 28 29 31 33 34 37 40 44 48 49 53 56 54 51 51 55 58 59 62 79 95 93 95 87 80
39 35 32 32 30 29 28 27 27 24 24 25 24 25 26 25 25 26 26 27 29 32 33 35 39 43 45 46 48 53 55 52 51 53 56 58 60 63 86 98 97 93 87
40 38 39 37 34 34 31 26 26 26 26 26 27 26 27 27 25 26 26 26 28 31 33 35 37 40 43 45 45 46 53 53 51 53 55 57 58 60 76 96 98 94 93
35 43 40 41 40 34 32 28 27 27 27 27 28 28 29 29 27 27 27 26 28 31 34 36 38 40 41 43 44 45 53 53 51 49 52 57 57 58 66 82 96 96 97
33 39 45 45 42 38 33 32 31 29 30 30 30 30 31 32 31 29 28 28 28 31 34 35 38 40 40 40 42 43 47 52 53 50 47 52 57 59 62 68 76 86 97
34 38 45 48 50 44 37 35 38 39 38 35 33 33 34 35 34 32 31 31 31 31 34 36 38 38 39 40 41 41 42 46 47 47 45 50 56 60 60 70 71 76 89
31 36 42 51 60 57 44 41 46 47 45 45 46 42 39 37 35 35 35 35 35 33 34 36 38 38 39 41 42 41 43 46 46 47 48 53 59 64 65 64 64 73 90
33 37 45 53 63 66 53 50 49 51 52 49 48 50 48 46 43 44 44 42 38 37 35 36 38 40 42 42 44 42 41 42 46 50 53 53 57 64 67 67 65 69 83
38 39 51 52 65 60 55 54 56 58 55 54 53 50 47 48 48 46 45 48 43 39 38 38 39 40 45 45 45 42 41 38 41 42 44 50 53 61 67 72 70 76 89
46 44 49 51 63 59 58 58 57 51 49 47 49 48 49 50 51 53 52 55 48 41 40 40 41 44 47 43 47 49 46 43 40 39 44 45 53 59 69 72 76 83 97
53 50 51 43 42 45 49 47 44 40 40 40 41 45 48 51 54 57 59 58 57 54 48 47 46 50 47 46 50 46 48 45 44 44 43 47 52 60 70 75 80 80 93
58 68 58 52 44 41 42 48 48 49 46 48 46 46 45 49 56 62 68 70 73 71 66 58 53 49 48 48 47 46 49 52 50 46 47 51 53 59 67 74 79 86 96
71 77 68 52 47 45 46 47 53 57 58 59 56 51 45 45 49 53 72 74 79 89 86 74 63 53 52 52 49 49 49 53 51 51 47 53 56 58 65 76 89 94 99

GFSSE_prec_cthk_126.txt.gz
RH
18 17 19 24 24 22 23 22 20 20 21 22 21 21 20 20 21 23 24 26 24 25 29 32 35 37 40 43 46 49 54 55 58 64 66 71 77 81 73 77 82 78 77
20 16 19 24 26 24 24 24 21 21 21 22 21 20 20 20 21 23 24 26 24 26 28 31 35 37 40 43 47 51 54 57 61 65 70 77 81 79 75 72 80 77 77
21 17 20 25 26 25 25 25 22 21 21 21 21 21 20 20 21 22 23 25 25 27 28 30 33 37 42 46 51 52 54 55 56 60 64 70 72 73 74 75 80 78 76
23 19 22 28 27 27 26 24 22 21 21 21 21 21 21 21 22 21 22 22 26 27 29 31 30 35 42 44 46 47 49 50 50 53 58 73 76 66 70 78 83 82 83
28 23 26 30 28 25 23 24 24 22 22 22 21 21 22 22 22 21 21 23 25 28 30 32 33 40 42 42 43 43 43 43 45 50 61 68 73 66 70 77 81 87 85
30 32 30 30 28 24 23 23 24 24 23 22 21 22 22 23 23 22 22 24 26 29 31 34 36 39 39 39 40 42 42 45 47 59 56 61 69 72 75 77 80 86 83
32 35 31 30 25 23 24 24 25 24 25 24 22 23 23 24 24 24 24 25 27 30 32 35 37 39 39 42 44 45 45 46 52 60 65 69 75 79 84 89 91 87 81
38 36 30 28 27 26 26 25 26 25 26 25 24 23 24 24 26 26 26 27 29 31 35 35 36 40 41 43 46 48 47 48 52 63 68 67 78 82 86 93 96 95 87
37 32 29 29 29 28 27 26 27 27 27 27 26 25 24 25 27 28 28 30 31 33 34 36 37 38 42 42 47 49 50 52 55 65 69 67 70 77 89 89 93 94 85
39 32 30 29 30 29 29 28 27 27 27 27 27 26 26 27 29 29 30 32 33 34 34 36 38 40 42 44 47 49 51 50 55 64 70 75 74 75 81 82 80 83 82
45 39 37 34 31 30 29 29 28 28 27 28 28 28 28 28 29 30 31 32 41 36 35 38 39 41 43 45 48 48 48 52 57 60 67 75 70 75 77 77 84 86 87
50 44 41 38 34 35 33 31 29 29 28 28 28 27 29 32 32 33 33 33 37 42 38 37 41 41 44 50 50 48 50 53 54 60 62 73 70 79 80 90 90 90 89
50 50 43 41 37 33 32 33 32 33 32 30 27 27 30 34 34 34 35 33 34 36 37 38 40 42 47 51 56 55 56 53 54 57 59 60 62 68 78 84 94 94 91
39 52 45 42 39 36 33 31 29 36 30 29 31 28 33 34 34 35 35 34 35 35 39 40 43 45 45 47 53 55 56 55 53 55 53 55 57 64 73 88 95 91 96
30 46 46 43 41 37 35 33 31 37 34 27 26 27 28 34 34 35 35 34 34 34 36 39 42 43 44 47 49 52 53 54 54 53 55 61 61 56 63 73 90 96 96
28 40 49 46 41 39 34 33 32 31 35 30 27 26 27 30 35 35 35 33 33 33 36 37 38 40 44 44 45 47 48 49 52 53 52 56 58 56 56 59 80 95 95
26 34 45 49 44 38 35 33 32 31 30 29 31 28 28 28 29 31 33 35 29 34 35 36 38 38 44 46 45 45 45 43 47 53 50 51 53 55 53 60 63 83 92
24 30 37 51 49 40 39 37 36 34 28 31 31 31 31 30 30 31 33 34 33 32 33 34 34 35 40 42 46 46 44 43 44 48 49 49 48 52 59 62 68 71 82
17 27 35 49 49 49 42 41 39 35 31 31 32 33 32 34 33 32 33 34 34 31 33 34 35 35 38 40 42 46 46 47 44 43 46 45 45 44 52 63 63 69 69
13 24 31 44 48 52 53 47 44 39 33 34 34 34 34 35 36 36 36 36 36 36 35 35 36 37 38 39 41 44 42 42 43 44 45 46 47 47 52 58 67 68 66
13 15 28 41 49 52 55 49 44 44 40 38 39 40 41 41 41 39 39 38 38 39 38 36 37 40 40 41 43 43 43 41 39 38 41 41 45 52 50 53 60 64 67
19 15 23 37 51 58 61 52 48 46 47 48 51 52 51 50 48 49 49 47 46 46 47 41 40 43 45 44 43 45 46 47 41 37 38 37 42 44 47 47 54 62 65
25 21 22 35 54 62 68 65 59 54 55 52 52 55 52 53 54 53 53 52 51 51 51 47 43 43 47 48 50 49 48 47 50 47 39 38 38 44 43 47 51 60 65
31 30 29 36 48 66 72 78 79 60 57 55 60 57 55 54 55 58 57 61 61 56 57 56 52 48 51 53 57 55 50 49 53 51 51 40 39 43 46 49 54 60 65
45 44 40 40 48 62 80 76 91 88 71 62 59 52 49 47 54 61 61 59 60 61 66 68 64 57 56 60 60 59 52 52 53 50 53 54 47 45 51 53 55 60 65
69 60 54 53 51 56 74 75 70 89 72 62 57 49 48 49 50 55 59 57 59 65 73 77 78 76 73 68 70 64 58 56 51 51 52 51 54 50 52 56 59 59 65

GFSSE_prec_cthk_129.txt.gz
RH
26 21 18 21 24 24 22 22 19 19 21 23 24 23 23 22 22 21 23 23 24 25 26 29 32 35 39 42 45 47 51 54 57 62 64 66 68 69 73 74 78 83 81
28 21 18 22 26 25 24 24 20 20 22 23 23 23 22 22 23 22 23 25 24 26 27 28 32 36 39 42 44 48 51 54 59 63 66 68 70 79 74 79 85 80 80
27 22 18 20 27 27 26 25 23 23 23 23 22 22 21 22 23 24 23 24 24 26 27 28 29 33 38 43 45 48 52 55 57 63 65 75 69 68 74 76 81 79 79
27 26 20 21 28 27 26 24 23 24 25 25 24 22 22 23 23 24 24 24 24 27 29 30 29 32 38 43 45 48 49 51 52 56 59 70 73 78 75 73 77 81 85
30 30 23 24 31 28 25 22 22 24 24 25 24 24 23 24 24 23 24 24 24 27 29 32 31 36 40 40 42 43 43 43 45 50 87 74 82 78 80 77 78 81 85
36 36 28 28 32 30 24 23 22 24 25 25 25 25 25 25 24 23 24 25 26 28 30 31 33 38 40 38 38 41 41 43 45 55 62 66 72 80 85 88 87 82 89
38 41 32 32 31 29 26 25 24 26 27 26 27 27 26 26 25 24 24 26 27 29 31 33 35 39 37 38 40 44 45 46 49 60 62 71 74 82 85 89 90 95 96
39 41 36 35 33 29 28 28 25 27 28 28 28 28 27 26 25 25 26 27 29 31 33 35 36 37 39 39 42 45 49 49 53 65 71 74 68 72 76 82 92 93 95
41 44 43 36 33 32 32 31 28 27 28 28 29 29 29 28 27 26 27 27 30 33 34 36 35 38 39 40 41 46 49 52 62 61 63 67 68 74 80 87 82 93 93
43 44 44 39 35 33 33 32 30 29 29 29 30 29 29 30 29 28 29 29 31 33 35 35 36 37 40 42 42 46 48 52 58 62 61 64 70 70 76 81 84 85 86
46 52 45 42 40 36 34 32 30 30 30 30 30 30 31 31 31 30 30 31 33 36 38 36 35 37 40 43 44 48 47 53 57 61 59 67 69 67 77 80 83 83 86
40 55 53 46 44 40 39 36 30 29 29 30 30 29 29 34 34 36 34 34 35 37 39 37 38 37 40 45 46 49 49 60 57 59 59 60 65 65 69 75 87 90 92
28 49 56 50 49 46 44 41 34 33 32 31 29 30 29 34 38 37 42 37 34 33 34 33 34 37 39 52 59 54 58 65 62 59 57 51 54 58 63 77 93 90 93
24 37 56 58 49 47 47 43 40 38 37 35 33 32 31 34 38 42 40 41 37 35 37 35 37 39 43 48 53 64 62 64 66 64 54 50 49 54 59 66 75 84 93
24 25 39 61 55 48 47 47 40 38 41 39 38 32 32 38 37 38 39 44 37 39 39 40 41 39 46 46 46 52 57 60 56 60 55 56 50 56 58 56 61 86 87
28 27 29 49 59 55 50 46 43 39 41 37 37 37 31 33 38 40 39 39 39 38 44 47 42 40 44 43 45 45 47 52 52 55 55 54 53 49 53 56 57 61 76
18 29 30 41 54 61 54 50 46 41 40 43 35 33 29 32 34 37 41 42 42 39 43 44 44 46 45 44 47 48 47 46 47 47 53 53 55 49 47 57 55 59 72
9 19 31 33 44 55 60 56 50 44 40 42 37 35 30 29 35 35 37 41 40 42 39 39 39 40 42 45 44 47 49 50 50 43 46 52 54 50 49 46 54 59 62
11 9 18 29 34 48 57 63 54 46 38 37 38 36 33 30 33 36 32 32 39 40 39 38 40 40 40 42 44 43 45 46 46 50 50 49 46 49 46 46 47 52 60
17 15 17 22 28 39 51 65 63 52 44 39 38 35 37 34 32 37 37 37 35 42 41 38 39 38 41 44 46 46 46 45 45 43 43 45 44 46 47 55 57 56 59
34 31 27 23 26 34 54 61 71 56 48 40 34 35 38 40 32 34 36 37 34 36 38 39 43 44 42 43 45 44 46 46 44 44 42 42 42 42 42 44 55 58 58
36 35 30 23 21 33 60 61 74 65 53 44 38 34 30 33 34 34 36 42 37 40 41 43 47 52 44 42 45 47 47 45 43 42 42 42 42 42 41 44 46 49 51
35 34 25 24 21 29 49 79 72 72 65 54 41 39 37 40 41 36 38 43 44 45 49 49 54 55 54 46 47 46 49 46 47 47 47 44 44 46 47 45 43 43 47
42 39 30 23 23 29 47 66 66 77 62 51 48 52 51 52 54 55 51 52 54 52 53 53 57 60 62 57 54 48 49 50 55 56 54 50 46 44 44 43 45 46 50
52 42 40 31 30 29 42 54 67 74 71 65 58 66 62 60 64 69 62 65 60 60 61 65 63 69 68 66 60 58 51 55 60 59 55 56 53 50 45 46 44 48 52
68 49 50 43 42 40 38 54 68 81 91 87 80 92 71 64 62 70 65 65 67 63 60 64 65 68 69 83 70 70 69 67 64 66 62 57 59 58 50 52 52 49 51

GFSSE_prec_cthk_132.txt.gz
RH
34 27 16 17 21 22 20 20 19 18 19 22 23 22 20 19 21 21 24 22 23 25 28 31 33 34 36 40 45 48 48 49 51 54 56 59 61 61 61 68 79 77 80
35 27 20 17 22 24 21 21 19 19 21 23 24 23 21 20 20 21 24 25 25 26 28 30 32 34 38 40 43 46 48 50 52 55 62 65 65 65 64 71 83 85 81
28 22 23 18 21 25 22 22 19 19 22 23 23 23 22 22 21 21 24 25 26 28 27 29 31 33 35 38 43 45 46 49 53 61 64 69 72 71 71 74 79 81 80
31 22 24 21 22 27 24 23 19 19 22 24 24 22 22 23 23 22 23 24 25 28 29 30 30 33 37 39 42 44 45 46 50 56 60 78 71 66 78 78 80 81 84
26 23 24 22 24 31 27 24 20 20 21 24 24 24 23 23 23 23 23 24 25 27 30 31 32 34 38 39 39 39 38 39 42 49 73 79 85 69 78 78 80 83 84
30 28 28 24 24 32 30 28 23 21 21 23 24 24 25 24 23 23 23 24 25 27 30 31 33 37 39 39 38 37 37 38 41 55 68 73 67 72 77 76 80 82 85
35 31 34 28 28 32 32 29 27 24 23 23 24 25 25 26 25 24 23 23 25 27 30 33 36 38 38 36 37 38 40 41 45 55 59 59 67 69 66 69 75 82 85
39 37 41 34 31 31 32 30 29 26 25 25 26 26 26 27 26 25 25 25 26 28 31 33 36 38 38 37 37 40 42 45 48 66 60 59 67 63 68 74 82 84 90
41 44 46 41 37 35 32 32 31 29 27 26 27 27 28 28 28 27 26 27 28 29 31 34 35 36 37 39 37 39 43 45 52 76 52 56 59 64 68 74 80 85 88
37 47 46 43 40 38 34 33 33 31 29 28 28 28 27 28 29 29 28 28 29 31 32 34 33 34 35 37 39 40 44 46 50 53 59 53 60 66 67 73 77 84 85
29 44 49 52 43 37 36 34 33 31 30 29 28 29 29 28 28 28 30 29 30 32 35 38 35 33 34 36 38 41 43 45 51 51 79 64 62 64 65 66 75 84 86
25 30 44 51 53 43 38 35 34 33 31 29 28 28 28 29 28 29 30 29 31 35 40 37 37 36 35 36 39 42 45 52 60 56 58 70 56 55 60 63 69 79 85
25 27 37 50 57 53 47 42 38 34 31 29 28 28 29 29 29 30 30 33 34 34 34 35 33 33 35 37 42 47 49 56 71 56 62 54 49 46 49 54 61 73 73
22 24 32 51 60 61 58 49 43 37 32 30 29 29 29 29 32 31 32 34 34 35 35 36 36 34 36 39 46 52 54 61 74 67 60 53 49 45 48 55 58 58 65
13 24 26 34 54 62 60 66 55 43 36 32 31 30 30 30 32 31 34 32 33 34 34 36 38 38 38 41 45 43 46 45 53 51 63 53 51 49 48 51 53 53 56
9 12 26 28 37 53 77 71 62 61 46 39 34 30 31 31 33 36 35 33 33 31 32 37 42 45 47 45 45 45 46 45 46 53 43 49 55 52 48 46 49 54 56
14 11 11 26 31 40 60 77 71 63 54 44 41 38 33 31 33 36 35 35 33 33 31 36 40 44 45 48 43 43 45 50 52 49 47 46 44 48 48 49 45 46 53
23 20 15 12 28 33 49 57 77 68 60 48 43 40 36 33 30 40 39 33 35 36 37 36 37 37 38 41 41 41 42 48 52 51 52 53 49 47 47 46 45 44 46
22 23 21 16 19 30 32 62 59 73 68 60 46 42 35 33 33 38 41 39 39 40 40 39 37 38 38 40 40 41 41 41 45 44 48 49 49 48 47 52 53 50 51
24 25 22 21 20 22 31 41 69 59 72 66 54 44 35 33 33 35 40 41 43 39 40 38 41 42 41 41 45 42 42 43 40 41 43 44 43 44 46 43 47 50 52
20 21 25 22 24 23 27 38 55 76 69 74 65 50 40 33 34 35 38 38 43 41 40 41 41 42 43 43 44 48 45 44 42 41 42 41 42 43 44 43 42 43 46
35 27 24 22 21 20 24 34 48 61 76 71 75 62 46 38 38 35 37 38 38 38 43 43 44 45 48 49 48 49 48 45 43 42 42 43 42 43 45 46 47 43 44
48 43 38 30 21 16 20 28 36 46 64 79 75 70 55 46 36 39 36 40 40 39 40 46 48 48 50 55 57 54 53 48 44 43 46 49 50 45 45 46 46 50 48
59 56 53 47 33 24 17 29 35 46 61 78 64 79 64 49 40 38 37 39 44 43 43 46 50 52 55 56 63 60 57 57 56 53 49 53 59 50 47 50 47 48 49
64 61 58 54 47 33 22 26 35 40 48 74 74 80 72 54 46 41 43 45 53 50 49 48 56 58 59 63 64 66 66 59 57 59 55 55 58 56 52 53 52 50 46
60 61 63 60 50 43 32 30 34 39 46 71 88 95 76 69 60 58 57 54 64 68 66 65 60 66 68 71 66 69 66 65 70 69 68 64 68 63 57 55 57 54 51